Time,TemperatureF,DewpointF,PressureIn,WindDirection,WindDirectionDegrees,WindSpeedMPH,WindSpeedGustMPH,Humidity,HourlyPrecipIn,Conditions,Clouds,dailyrainin,SoftwareType,DateUTC
2013-03-30 00:00:00,48.4,26.9,29.91,NNE,22,0.0,0.0,43,0.00,,---,0.00,VWS V14.01,2013-03-30 04:00:00,
2013-03-30 00:01:00,48.4,26.9,29.91,NNE,22,0.0,0.0,43,0.00,,---,0.00,VWS V14.01,2013-03-30 04:01:00,
2013-03-30 00:02:00,48.4,26.9,29.91,NNE,22,0.0,0.0,43,0.00,,---,0.00,VWS V14.01,2013-03-30 04:02:00,
2013-03-30 00:03:00,48.4,26.9,29.91,NNE,22,0.0,0.0,43,0.00,,---,0.00,VWS V14.01,2013-03-30 04:03:00,
2013-03-30 00:04:00,48.4,26.9,29.91,NNE,22,0.0,0.0,43,0.00,,---,0.00,VWS V14.01,2013-03-30 04:04:00,
2013-03-30 00:05:00,48.4,26.9,29.91,NNE,22,0.0,0.0,43,0.00,,---,0.00,VWS V14.01,2013-03-30 04:05:00,
2013-03-30 00:06:00,48.2,27.3,29.91,NNE,22,0.0,0.0,44,0.00,,---,0.00,VWS V14.01,2013-03-30 04:06:00,
2013-03-30 00:07:00,48.2,26.8,29.91,NNE,22,0.0,0.0,43,0.00,,---,0.00,VWS V14.01,2013-03-30 04:07:00,
2013-03-30 00:08:00,48.4,26.9,29.91,NNE,22,0.0,0.0,43,0.00,,---,0.00,VWS V14.01,2013-03-30 04:08:00,
2013-03-30 00:09:00,48.0,26.6,29.88,NNE,22,0.0,0.0,43,0.00,,---,0.00,VWS V14.01,2013-03-30 04:09:00,
2013-03-30 00:10:00,48.2,26.8,29.91,NNE,22,0.0,0.0,43,0.00,,---,0.00,VWS V14.01,2013-03-30 04:10:00,
2013-03-30 00:11:00,48.2,26.8,29.91,NNE,22,0.0,0.0,43,0.00,,---,0.00,VWS V14.01,2013-03-30 04:11:00,
2013-03-30 00:12:00,48.2,27.3,29.91,NNE,22,0.0,0.0,44,0.00,,---,0.00,VWS V14.01,2013-03-30 04:12:00,
2013-03-30 00:13:00,48.0,26.6,29.88,NNE,22,0.0,0.0,43,0.00,,---,0.00,VWS V14.01,2013-03-30 04:13:00,
2013-03-30 00:14:00,48.0,26.6,29.91,NNE,22,0.0,0.0,43,0.00,,---,0.00,VWS V14.01,2013-03-30 04:14:00,
2013-03-30 00:15:00,47.8,27.0,29.88,NNE,22,0.0,0.0,44,0.00,,---,0.00,VWS V14.01,2013-03-30 04:15:00,
2013-03-30 00:16:00,48.0,27.2,29.88,NNE,22,0.0,0.0,44,0.00,,---,0.00,VWS V14.01,2013-03-30 04:16:00,
2013-03-30 00:17:00,48.0,26.6,29.88,NNE,22,0.0,0.0,43,0.00,,---,0.00,VWS V14.01,2013-03-30 04:17:00,
2013-03-30 00:18:00,47.8,27.0,29.88,NNE,22,0.0,0.0,44,0.00,,---,0.00,VWS V14.01,2013-03-30 04:18:00,
2013-03-30 00:19:00,47.7,26.8,29.88,NNE,22,0.0,0.0,44,0.00,,---,0.00,VWS V14.01,2013-03-30 04:19:00,
2013-03-30 00:20:00,47.8,27.0,29.88,NNE,22,0.0,0.0,44,0.00,,---,0.00,VWS V14.01,2013-03-30 04:20:00,
2013-03-30 00:21:00,47.8,27.0,29.88,NNE,22,0.0,0.0,44,0.00,,---,0.00,VWS V14.01,2013-03-30 04:21:00,
2013-03-30 00:22:00,47.8,27.0,29.88,NNE,22,0.0,0.0,44,0.00,,---,0.00,VWS V14.01,2013-03-30 04:22:00,
2013-03-30 00:23:00,47.7,27.4,29.88,NNE,22,0.0,0.0,45,0.00,,---,0.00,VWS V14.01,2013-03-30 04:23:00,
2013-03-30 00:24:00,47.5,26.7,29.88,NNE,22,0.0,0.0,44,0.00,,---,0.00,VWS V14.01,2013-03-30 04:24:00,
2013-03-30 00:25:00,47.7,26.8,29.88,NNE,22,0.0,0.0,44,0.00,,---,0.00,VWS V14.01,2013-03-30 04:25:00,
2013-03-30 00:26:00,47.5,26.7,29.88,NNE,22,0.0,0.0,44,0.00,,---,0.00,VWS V14.01,2013-03-30 04:26:00,
2013-03-30 00:27:00,47.7,27.4,29.88,NNE,22,0.0,0.0,45,0.00,,---,0.00,VWS V14.01,2013-03-30 04:27:00,
2013-03-30 00:28:00,47.3,26.5,29.88,NNE,22,0.0,0.0,44,0.00,,---,0.00,VWS V14.01,2013-03-30 04:28:00,
2013-03-30 00:29:00,47.7,27.4,29.88,NNE,22,0.0,0.0,45,0.00,,---,0.00,VWS V14.01,2013-03-30 04:29:00,
2013-03-30 00:30:00,47.5,26.7,29.88,NNE,22,0.0,0.0,44,0.00,,---,0.00,VWS V14.01,2013-03-30 04:30:00,
2013-03-30 00:31:00,47.5,26.7,29.88,NNE,22,0.0,0.0,44,0.00,,---,0.00,VWS V14.01,2013-03-30 04:31:00,
2013-03-30 00:32:00,47.3,26.5,29.88,NNE,22,0.0,0.0,44,0.00,,---,0.00,VWS V14.01,2013-03-30 04:32:00,
2013-03-30 00:33:00,47.3,26.5,29.88,NNE,22,0.0,0.0,44,0.00,,---,0.00,VWS V14.01,2013-03-30 04:33:00,
2013-03-30 00:34:00,47.1,26.3,29.88,NNE,22,0.0,0.0,44,0.00,,---,0.00,VWS V14.01,2013-03-30 04:34:00,
2013-03-30 00:35:00,47.3,26.5,29.88,NNE,22,0.0,0.0,44,0.00,,---,0.00,VWS V14.01,2013-03-30 04:35:00,
2013-03-30 00:36:00,47.3,26.5,29.88,NNE,22,0.0,0.0,44,0.00,,---,0.00,VWS V14.01,2013-03-30 04:36:00,
2013-03-30 00:37:00,47.1,26.9,29.88,NNE,22,0.0,0.0,45,0.00,,---,0.00,VWS V14.01,2013-03-30 04:37:00,
2013-03-30 00:38:00,47.3,26.5,29.88,NNE,22,0.0,0.0,44,0.00,,---,0.00,VWS V14.01,2013-03-30 04:38:00,
2013-03-30 00:39:00,47.3,26.5,29.88,NNE,22,0.0,0.0,44,0.00,,---,0.00,VWS V14.01,2013-03-30 04:39:00,
2013-03-30 00:40:00,47.1,26.3,29.88,NNE,22,0.0,0.0,44,0.00,,---,0.00,VWS V14.01,2013-03-30 04:40:00,
2013-03-30 00:41:00,46.9,26.7,29.88,NNE,22,0.0,0.0,45,0.00,,---,0.00,VWS V14.01,2013-03-30 04:41:00,
2013-03-30 00:42:00,46.8,26.6,29.88,NNE,22,0.0,0.0,45,0.00,,---,0.00,VWS V14.01,2013-03-30 04:42:00,
2013-03-30 00:43:00,47.1,26.9,29.88,NNE,22,0.0,0.0,45,0.00,,---,0.00,VWS V14.01,2013-03-30 04:43:00,
2013-03-30 00:44:00,46.9,26.7,29.88,NNE,22,0.0,0.0,45,0.00,,---,0.00,VWS V14.01,2013-03-30 04:44:00,
2013-03-30 00:45:00,46.9,26.7,29.88,NNE,22,0.0,0.0,45,0.00,,---,0.00,VWS V14.01,2013-03-30 04:45:00,
2013-03-30 00:46:00,46.6,26.9,29.88,NNE,22,0.0,0.0,46,0.00,,---,0.00,VWS V14.01,2013-03-30 04:46:00,
2013-03-30 00:47:00,46.9,26.7,29.88,NNE,22,0.0,0.0,45,0.00,,---,0.00,VWS V14.01,2013-03-30 04:47:00,
2013-03-30 00:48:00,46.8,26.6,29.88,NNE,22,0.0,0.0,45,0.00,,---,0.00,VWS V14.01,2013-03-30 04:48:00,
2013-03-30 00:49:00,46.4,27.3,29.88,NNE,22,0.0,0.0,47,0.00,,---,0.00,VWS V14.01,2013-03-30 04:49:00,
2013-03-30 00:51:00,46.6,26.9,29.88,NNE,22,0.0,0.0,46,0.00,,---,0.00,VWS V14.01,2013-03-30 04:51:00,
2013-03-30 00:52:00,46.4,27.3,29.88,NNE,22,0.0,0.0,47,0.00,,---,0.00,VWS V14.01,2013-03-30 04:52:00,
2013-03-30 00:53:00,46.4,27.3,29.88,NNE,22,0.0,0.0,47,0.00,,---,0.00,VWS V14.01,2013-03-30 04:53:00,
2013-03-30 00:54:00,45.9,26.8,29.85,NNE,22,0.0,0.0,47,0.00,,---,0.00,VWS V14.01,2013-03-30 04:54:00,
2013-03-30 00:55:00,46.4,27.3,29.88,NNE,22,0.0,0.0,47,0.00,,---,0.00,VWS V14.01,2013-03-30 04:55:00,
2013-03-30 00:56:00,46.4,27.3,29.88,NNE,22,0.0,0.0,47,0.00,,---,0.00,VWS V14.01,2013-03-30 04:56:00,
2013-03-30 00:57:00,46.4,27.3,29.88,NNE,22,0.0,0.0,47,0.00,,---,0.00,VWS V14.01,2013-03-30 04:57:00,
2013-03-30 00:58:00,45.5,26.5,29.85,NNE,22,0.0,0.0,47,0.00,,---,0.00,VWS V14.01,2013-03-30 04:58:00,
2013-03-30 00:59:00,45.9,26.8,29.88,NNE,22,0.0,0.0,47,0.00,,---,0.00,VWS V14.01,2013-03-30 04:59:00,
2013-03-30 01:00:00,45.9,26.8,29.85,NNE,22,0.0,0.0,47,0.00,,---,0.00,VWS V14.01,2013-03-30 05:00:00,
2013-03-30 01:01:00,45.9,26.8,29.85,NNE,22,0.0,0.0,47,0.00,,---,0.00,VWS V14.01,2013-03-30 05:01:00,
2013-03-30 01:02:00,45.3,26.8,29.85,NNE,22,0.0,0.0,48,0.00,,---,0.00,VWS V14.01,2013-03-30 05:02:00,
2013-03-30 01:03:00,45.3,26.8,29.85,NNE,22,0.0,0.0,48,0.00,,---,0.00,VWS V14.01,2013-03-30 05:03:00,
2013-03-30 01:04:00,45.5,26.5,29.85,NNE,22,0.0,0.0,47,0.00,,---,0.00,VWS V14.01,2013-03-30 05:04:00,
2013-03-30 01:05:00,45.5,26.5,29.85,NNE,22,0.0,0.0,47,0.00,,---,0.00,VWS V14.01,2013-03-30 05:05:00,
2013-03-30 01:06:00,45.1,26.6,29.85,NNE,22,0.0,0.0,48,0.00,,---,0.00,VWS V14.01,2013-03-30 05:06:00,
2013-03-30 01:07:00,45.5,26.5,29.85,NNE,22,0.0,0.0,47,0.00,,---,0.00,VWS V14.01,2013-03-30 05:07:00,
2013-03-30 01:08:00,45.3,26.8,29.85,NNE,22,0.0,0.0,48,0.00,,---,0.00,VWS V14.01,2013-03-30 05:08:00,
2013-03-30 01:09:00,44.8,26.8,29.85,NNE,22,0.0,0.0,49,0.00,,---,0.00,VWS V14.01,2013-03-30 05:09:00,
2013-03-30 01:10:00,45.1,26.6,29.85,NNE,22,0.0,0.0,48,0.00,,---,0.00,VWS V14.01,2013-03-30 05:10:00,
2013-03-30 01:11:00,45.1,26.6,29.85,NNE,22,0.0,0.0,48,0.00,,---,0.00,VWS V14.01,2013-03-30 05:11:00,
2013-03-30 01:12:00,44.4,27.0,29.88,NNE,22,0.0,0.0,50,0.00,,---,0.00,VWS V14.01,2013-03-30 05:12:00,
2013-03-30 01:14:00,44.8,26.8,29.85,NNE,22,0.0,0.0,49,0.00,,---,0.00,VWS V14.01,2013-03-30 05:14:00,
2013-03-30 01:15:00,44.2,26.8,29.88,NNE,22,0.0,0.0,50,0.00,,---,0.00,VWS V14.01,2013-03-30 05:15:00,
2013-03-30 01:16:00,44.6,26.6,29.88,NNE,22,0.0,0.0,49,0.00,,---,0.00,VWS V14.01,2013-03-30 05:16:00,
2013-03-30 01:17:00,44.2,26.8,29.88,NNE,22,0.0,0.0,50,0.00,,---,0.00,VWS V14.01,2013-03-30 05:17:00,
2013-03-30 01:18:00,44.4,27.0,29.88,NNE,22,0.0,0.0,50,0.00,,---,0.00,VWS V14.01,2013-03-30 05:18:00,
2013-03-30 01:19:00,44.4,27.0,29.88,NNE,22,0.0,0.0,50,0.00,,---,0.00,VWS V14.01,2013-03-30 05:19:00,
2013-03-30 01:20:00,44.2,26.8,29.88,NNE,22,0.0,0.0,50,0.00,,---,0.00,VWS V14.01,2013-03-30 05:20:00,
2013-03-30 01:21:00,43.7,26.3,29.88,NNE,22,0.0,0.0,50,0.00,,---,0.00,VWS V14.01,2013-03-30 05:21:00,
2013-03-30 01:22:00,43.7,26.3,29.88,NNE,22,0.0,0.0,50,0.00,,---,0.00,VWS V14.01,2013-03-30 05:22:00,
2013-03-30 01:23:00,43.5,26.1,29.88,NNE,22,0.0,0.0,50,0.00,,---,0.00,VWS V14.01,2013-03-30 05:23:00,
2013-03-30 01:24:00,44.1,26.6,29.88,NNE,22,0.0,0.0,50,0.00,,---,0.00,VWS V14.01,2013-03-30 05:24:00,
2013-03-30 01:25:00,43.9,26.5,29.88,NNE,22,0.0,0.0,50,0.00,,---,0.00,VWS V14.01,2013-03-30 05:25:00,
2013-03-30 01:26:00,43.7,26.3,29.88,NNE,22,0.0,0.0,50,0.00,,---,0.00,VWS V14.01,2013-03-30 05:26:00,
2013-03-30 01:27:00,43.3,26.0,29.88,NNE,22,0.0,0.0,50,0.00,,---,0.00,VWS V14.01,2013-03-30 05:27:00,
2013-03-30 01:28:00,43.7,26.3,29.88,NNE,22,0.0,0.0,50,0.00,,---,0.00,VWS V14.01,2013-03-30 05:28:00,
2013-03-30 01:29:00,43.5,26.1,29.88,NNE,22,0.0,0.0,50,0.00,,---,0.00,VWS V14.01,2013-03-30 05:29:00,
2013-03-30 01:30:00,43.2,25.8,29.88,NNE,22,0.0,0.0,50,0.00,,---,0.00,VWS V14.01,2013-03-30 05:30:00,
2013-03-30 01:31:00,43.0,25.6,29.88,NNE,22,0.0,0.0,50,0.00,,---,0.00,VWS V14.01,2013-03-30 05:31:00,
2013-03-30 01:32:00,43.0,25.6,29.88,NNE,22,0.0,0.0,50,0.00,,---,0.00,VWS V14.01,2013-03-30 05:32:00,
2013-03-30 01:33:00,43.0,25.6,29.88,NNE,22,0.0,0.0,50,0.00,,---,0.00,VWS V14.01,2013-03-30 05:33:00,
2013-03-30 01:35:00,43.2,25.8,29.88,NNE,22,0.0,0.0,50,0.00,,---,0.00,VWS V14.01,2013-03-30 05:35:00,
2013-03-30 01:36:00,43.2,25.8,29.88,NNE,22,0.0,0.0,50,0.00,,---,0.00,VWS V14.01,2013-03-30 05:36:00,
2013-03-30 01:37:00,42.8,25.5,29.88,NNE,22,0.0,0.0,50,0.00,,---,0.00,VWS V14.01,2013-03-30 05:37:00,
2013-03-30 01:38:00,42.6,25.3,29.88,NNE,22,0.0,0.0,50,0.00,,---,0.00,VWS V14.01,2013-03-30 05:38:00,
2013-03-30 01:39:00,43.0,25.6,29.88,NNE,22,0.0,0.0,50,0.00,,---,0.00,VWS V14.01,2013-03-30 05:39:00,
2013-03-30 01:40:00,42.8,25.5,29.88,NNE,22,0.0,0.0,50,0.00,,---,0.00,VWS V14.01,2013-03-30 05:40:00,
2013-03-30 01:41:00,42.4,25.1,29.88,NNE,22,0.0,0.0,50,0.00,,---,0.00,VWS V14.01,2013-03-30 05:41:00,
2013-03-30 01:42:00,42.4,25.1,29.88,NNE,22,0.0,0.0,50,0.00,,---,0.00,VWS V14.01,2013-03-30 05:42:00,
2013-03-30 01:43:00,42.8,25.5,29.88,NNE,22,0.0,0.0,50,0.00,,---,0.00,VWS V14.01,2013-03-30 05:43:00,
2013-03-30 01:44:00,42.4,25.6,29.88,NNE,22,0.0,0.0,51,0.00,,---,0.00,VWS V14.01,2013-03-30 05:44:00,
2013-03-30 01:45:00,42.6,25.3,29.88,NNE,22,0.0,0.0,50,0.00,,---,0.00,VWS V14.01,2013-03-30 05:45:00,
2013-03-30 01:46:00,42.4,25.1,29.88,NNE,22,0.0,0.0,50,0.00,,---,0.00,VWS V14.01,2013-03-30 05:46:00,
2013-03-30 01:47:00,42.3,25.4,29.88,NNE,22,0.0,0.0,51,0.00,,---,0.00,VWS V14.01,2013-03-30 05:47:00,
2013-03-30 01:48:00,42.1,25.3,29.88,NNE,22,0.0,0.0,51,0.00,,---,0.00,VWS V14.01,2013-03-30 05:48:00,
2013-03-30 01:49:00,42.4,25.6,29.88,NNE,22,0.0,0.0,51,0.00,,---,0.00,VWS V14.01,2013-03-30 05:49:00,
2013-03-30 01:50:00,42.1,25.3,29.88,NNE,22,0.0,0.0,51,0.00,,---,0.00,VWS V14.01,2013-03-30 05:50:00,
2013-03-30 01:51:00,42.1,25.3,29.88,NNE,22,0.0,0.0,51,0.00,,---,0.00,VWS V14.01,2013-03-30 05:51:00,
2013-03-30 01:52:00,41.7,25.9,29.88,NNE,22,0.0,0.0,53,0.00,,---,0.00,VWS V14.01,2013-03-30 05:52:00,
2013-03-30 01:53:00,42.3,25.4,29.88,NNE,22,0.0,0.0,51,0.00,,---,0.00,VWS V14.01,2013-03-30 05:53:00,
2013-03-30 01:54:00,42.1,25.3,29.88,NNE,22,0.0,0.0,51,0.00,,---,0.00,VWS V14.01,2013-03-30 05:54:00,
2013-03-30 01:55:00,41.5,26.1,29.88,NNE,22,0.0,0.0,54,0.00,,---,0.00,VWS V14.01,2013-03-30 05:55:00,
2013-03-30 01:56:00,42.1,25.3,29.88,NNE,22,0.0,0.0,51,0.00,,---,0.00,VWS V14.01,2013-03-30 05:56:00,
2013-03-30 01:57:00,41.5,26.1,29.88,NNE,22,0.0,0.0,54,0.00,,---,0.00,VWS V14.01,2013-03-30 05:57:00,
2013-03-30 01:58:00,41.4,25.5,29.88,NNE,22,0.0,0.0,53,0.00,,---,0.00,VWS V14.01,2013-03-30 05:58:00,
2013-03-30 01:59:00,41.7,25.9,29.88,NNE,22,0.0,0.0,53,0.00,,---,0.00,VWS V14.01,2013-03-30 05:59:00,
2013-03-30 02:00:00,41.4,25.5,29.88,NNE,22,0.0,0.0,53,0.00,,---,0.00,VWS V14.01,2013-03-30 06:00:00,
2013-03-30 02:01:00,41.5,26.1,29.88,NNE,22,0.0,0.0,54,0.00,,---,0.00,VWS V14.01,2013-03-30 06:01:00,
2013-03-30 02:02:00,41.2,25.4,29.88,NNE,22,0.0,0.0,53,0.00,,---,0.00,VWS V14.01,2013-03-30 06:02:00,
2013-03-30 02:03:00,41.4,25.5,29.88,NNE,22,0.0,0.0,53,0.00,,---,0.00,VWS V14.01,2013-03-30 06:03:00,
2013-03-30 02:04:00,41.4,25.5,29.88,NNE,22,0.0,0.0,53,0.00,,---,0.00,VWS V14.01,2013-03-30 06:04:00,
2013-03-30 02:05:00,41.2,25.8,29.88,NNE,22,0.0,0.0,54,0.00,,---,0.00,VWS V14.01,2013-03-30 06:05:00,
2013-03-30 02:06:00,41.4,25.5,29.88,NNE,22,0.0,0.0,53,0.00,,---,0.00,VWS V14.01,2013-03-30 06:06:00,
2013-03-30 02:07:00,41.0,25.6,29.88,NNE,22,0.0,0.0,54,0.00,,---,0.00,VWS V14.01,2013-03-30 06:07:00,
2013-03-30 02:08:00,41.2,25.4,29.88,NNE,22,0.0,0.0,53,0.00,,---,0.00,VWS V14.01,2013-03-30 06:08:00,
2013-03-30 02:09:00,41.0,25.6,29.88,NNE,22,0.0,0.0,54,0.00,,---,0.00,VWS V14.01,2013-03-30 06:09:00,
2013-03-30 02:10:00,41.2,25.4,29.88,NNE,22,0.0,0.0,53,0.00,,---,0.00,VWS V14.01,2013-03-30 06:10:00,
2013-03-30 02:11:00,40.8,25.5,29.88,NNE,22,0.0,0.0,54,0.00,,---,0.00,VWS V14.01,2013-03-30 06:11:00,
2013-03-30 02:12:00,41.2,25.8,29.88,NNE,22,0.0,0.0,54,0.00,,---,0.00,VWS V14.01,2013-03-30 06:12:00,
2013-03-30 02:13:00,41.0,25.6,29.88,NNE,22,0.0,0.0,54,0.00,,---,0.00,VWS V14.01,2013-03-30 06:13:00,
2013-03-30 02:14:00,41.0,25.6,29.88,NNE,22,0.0,0.0,54,0.00,,---,0.00,VWS V14.01,2013-03-30 06:14:00,
2013-03-30 02:15:00,40.6,25.3,29.88,NNE,22,0.0,0.0,54,0.00,,---,0.00,VWS V14.01,2013-03-30 06:15:00,
2013-03-30 02:16:00,40.5,25.1,29.88,NNE,22,0.0,0.0,54,0.00,,---,0.00,VWS V14.01,2013-03-30 06:16:00,
2013-03-30 02:17:00,40.5,26.0,29.88,NNE,22,0.0,0.0,56,0.00,,---,0.00,VWS V14.01,2013-03-30 06:17:00,
2013-03-30 02:18:00,40.6,25.3,29.88,NNE,22,0.0,0.0,54,0.00,,---,0.00,VWS V14.01,2013-03-30 06:18:00,
2013-03-30 02:19:00,40.6,25.3,29.88,NNE,22,0.0,0.0,54,0.00,,---,0.00,VWS V14.01,2013-03-30 06:19:00,
2013-03-30 02:20:00,40.6,25.3,29.88,NNE,22,0.0,0.0,54,0.00,,---,0.00,VWS V14.01,2013-03-30 06:20:00,
2013-03-30 02:21:00,40.5,27.3,29.88,NNW,338,0.0,0.0,59,0.00,,---,0.00,VWS V14.01,2013-03-30 06:21:00,
2013-03-30 02:22:00,40.3,26.3,29.88,NNW,338,0.0,0.0,57,0.00,,---,0.00,VWS V14.01,2013-03-30 06:22:00,
2013-03-30 02:23:00,40.3,25.9,29.88,NNW,338,0.0,0.0,56,0.00,,---,0.00,VWS V14.01,2013-03-30 06:23:00,
2013-03-30 02:24:00,40.5,26.0,29.88,NNE,22,0.0,0.0,56,0.00,,---,0.00,VWS V14.01,2013-03-30 06:24:00,
2013-03-30 02:25:00,40.5,27.3,29.88,NNW,338,0.0,0.0,59,0.00,,---,0.00,VWS V14.01,2013-03-30 06:25:00,
2013-03-30 02:26:00,40.3,25.4,29.88,NNW,338,0.0,0.0,55,0.00,,---,0.00,VWS V14.01,2013-03-30 06:26:00,
2013-03-30 02:27:00,40.3,26.3,29.88,NNW,338,0.0,0.0,57,0.00,,---,0.00,VWS V14.01,2013-03-30 06:27:00,
2013-03-30 02:28:00,40.3,26.3,29.88,NNW,338,0.0,0.0,57,0.00,,---,0.00,VWS V14.01,2013-03-30 06:28:00,
2013-03-30 02:29:00,40.3,25.9,29.88,North,0,0.0,0.0,56,0.00,,---,0.00,VWS V14.01,2013-03-30 06:29:00,
2013-03-30 02:30:00,40.3,25.9,29.88,North,0,0.0,0.0,56,0.00,,---,0.00,VWS V14.01,2013-03-30 06:30:00,
2013-03-30 02:31:00,40.3,25.4,29.88,NNW,338,0.0,0.0,55,0.00,,---,0.00,VWS V14.01,2013-03-30 06:31:00,
2013-03-30 02:32:00,40.3,26.7,29.88,NNE,22,0.0,0.0,58,0.00,,---,0.00,VWS V14.01,2013-03-30 06:32:00,
2013-03-30 02:33:00,40.3,25.4,29.88,NNW,338,0.0,0.0,55,0.00,,---,0.00,VWS V14.01,2013-03-30 06:33:00,
2013-03-30 02:34:00,40.3,25.9,29.88,NNW,338,0.0,0.0,56,0.00,,---,0.00,VWS V14.01,2013-03-30 06:34:00,
2013-03-30 02:35:00,40.3,26.3,29.88,NNE,22,0.0,0.0,57,0.00,,---,0.00,VWS V14.01,2013-03-30 06:35:00,
2013-03-30 02:36:00,40.3,25.9,29.88,North,0,0.0,0.0,56,0.00,,---,0.00,VWS V14.01,2013-03-30 06:36:00,
2013-03-30 02:37:00,40.3,26.3,29.88,NNE,22,0.0,0.0,57,0.00,,---,0.00,VWS V14.01,2013-03-30 06:37:00,
2013-03-30 02:38:00,40.3,26.7,29.88,NNE,22,0.0,0.0,58,0.00,,---,0.00,VWS V14.01,2013-03-30 06:38:00,
2013-03-30 02:39:00,40.1,26.5,29.88,NNE,22,0.0,0.0,58,0.00,,---,0.00,VWS V14.01,2013-03-30 06:39:00,
2013-03-30 02:40:00,40.3,26.3,29.88,NNE,22,0.0,0.0,57,0.00,,---,0.00,VWS V14.01,2013-03-30 06:40:00,
2013-03-30 02:41:00,40.1,26.5,29.88,NNE,22,0.0,0.0,58,0.00,,---,0.00,VWS V14.01,2013-03-30 06:41:00,
2013-03-30 02:42:00,40.1,26.1,29.88,NNE,22,0.0,0.0,57,0.00,,---,0.00,VWS V14.01,2013-03-30 06:42:00,
2013-03-30 02:43:00,40.1,26.1,29.88,NNE,22,0.0,0.0,57,0.00,,---,0.00,VWS V14.01,2013-03-30 06:43:00,
2013-03-30 02:44:00,40.1,26.1,29.88,NNE,22,0.0,0.0,57,0.00,,---,0.00,VWS V14.01,2013-03-30 06:44:00,
2013-03-30 02:45:00,40.1,26.5,29.88,NNE,22,0.0,0.0,58,0.00,,---,0.00,VWS V14.01,2013-03-30 06:45:00,
2013-03-30 02:46:00,40.1,26.1,29.88,NNE,22,0.0,0.0,57,0.00,,---,0.00,VWS V14.01,2013-03-30 06:46:00,
2013-03-30 02:47:00,40.1,26.5,29.88,NNE,22,0.0,0.0,58,0.00,,---,0.00,VWS V14.01,2013-03-30 06:47:00,
2013-03-30 02:48:00,40.1,26.5,29.88,NNE,22,0.0,0.0,58,0.00,,---,0.00,VWS V14.01,2013-03-30 06:48:00,
2013-03-30 02:49:00,40.1,26.1,29.88,NNE,22,0.0,0.0,57,0.00,,---,0.00,VWS V14.01,2013-03-30 06:49:00,
2013-03-30 02:50:00,40.3,26.3,29.88,NNE,22,0.0,0.0,57,0.00,,---,0.00,VWS V14.01,2013-03-30 06:50:00,
2013-03-30 02:51:00,40.3,26.7,29.88,NNE,22,0.0,0.0,58,0.00,,---,0.00,VWS V14.01,2013-03-30 06:51:00,
2013-03-30 02:52:00,40.3,26.7,29.88,NNE,22,0.0,0.0,58,0.00,,---,0.00,VWS V14.01,2013-03-30 06:52:00,
2013-03-30 02:53:00,40.1,26.1,29.88,NNE,22,0.0,0.0,57,0.00,,---,0.00,VWS V14.01,2013-03-30 06:53:00,
2013-03-30 02:54:00,40.1,26.5,29.88,NNE,22,0.0,0.0,58,0.00,,---,0.00,VWS V14.01,2013-03-30 06:54:00,
2013-03-30 02:55:00,40.1,26.5,29.88,NNE,22,0.0,0.0,58,0.00,,---,0.00,VWS V14.01,2013-03-30 06:55:00,
2013-03-30 02:56:00,40.3,26.3,29.88,NNE,22,0.0,0.0,57,0.00,,---,0.00,VWS V14.01,2013-03-30 06:56:00,
2013-03-30 02:57:00,40.3,26.7,29.88,NNE,22,0.0,0.0,58,0.00,,---,0.00,VWS V14.01,2013-03-30 06:57:00,
2013-03-30 02:58:00,40.3,26.7,29.88,NNE,22,0.0,0.0,58,0.00,,---,0.00,VWS V14.01,2013-03-30 06:58:00,
2013-03-30 02:59:00,40.3,26.3,29.88,NNE,22,0.0,0.0,57,0.00,,---,0.00,VWS V14.01,2013-03-30 06:59:00,
2013-03-30 03:00:00,40.3,26.7,29.88,NNE,22,0.0,0.0,58,0.00,,---,0.00,VWS V14.01,2013-03-30 07:00:00,
2013-03-30 03:01:00,40.3,26.3,29.88,NNE,22,0.0,0.0,57,0.00,,---,0.00,VWS V14.01,2013-03-30 07:01:00,
2013-03-30 03:02:00,40.3,26.3,29.88,NNE,22,0.0,0.0,57,0.00,,---,0.00,VWS V14.01,2013-03-30 07:02:00,
2013-03-30 03:03:00,40.3,27.1,29.88,NNE,22,0.0,0.0,59,0.00,,---,0.00,VWS V14.01,2013-03-30 07:03:00,
2013-03-30 03:04:00,40.3,26.3,29.88,NNE,22,0.0,0.0,57,0.00,,---,0.00,VWS V14.01,2013-03-30 07:04:00,
2013-03-30 03:05:00,40.3,26.7,29.88,NNE,22,0.0,0.0,58,0.00,,---,0.00,VWS V14.01,2013-03-30 07:05:00,
2013-03-30 03:06:00,40.3,26.3,29.88,NNE,22,0.0,0.0,57,0.00,,---,0.00,VWS V14.01,2013-03-30 07:06:00,
2013-03-30 03:07:00,40.3,26.7,29.88,NNE,22,0.0,0.0,58,0.00,,---,0.00,VWS V14.01,2013-03-30 07:07:00,
2013-03-30 03:08:00,40.3,26.7,29.88,NNE,22,0.0,0.0,58,0.00,,---,0.00,VWS V14.01,2013-03-30 07:08:00,
2013-03-30 03:09:00,40.3,27.1,29.88,NNE,22,0.0,0.0,59,0.00,,---,0.00,VWS V14.01,2013-03-30 07:09:00,
2013-03-30 03:10:00,40.3,26.7,29.88,NNE,22,0.0,0.0,58,0.00,,---,0.00,VWS V14.01,2013-03-30 07:10:00,
2013-03-30 03:11:00,40.3,26.7,29.88,NNE,22,0.0,0.0,58,0.00,,---,0.00,VWS V14.01,2013-03-30 07:11:00,
2013-03-30 03:12:00,40.3,26.7,29.88,NNE,22,0.0,0.0,58,0.00,,---,0.00,VWS V14.01,2013-03-30 07:12:00,
2013-03-30 03:13:00,40.3,26.7,29.88,NNE,22,0.0,0.0,58,0.00,,---,0.00,VWS V14.01,2013-03-30 07:13:00,
2013-03-30 03:14:00,40.1,26.5,29.88,NNE,22,0.0,0.0,58,0.00,,---,0.00,VWS V14.01,2013-03-30 07:14:00,
2013-03-30 03:15:00,40.1,26.5,29.88,NNE,22,0.0,0.0,58,0.00,,---,0.00,VWS V14.01,2013-03-30 07:15:00,
2013-03-30 03:16:00,40.3,26.7,29.88,NNE,22,0.0,0.0,58,0.00,,---,0.00,VWS V14.01,2013-03-30 07:16:00,
2013-03-30 03:17:00,40.1,26.5,29.88,NNE,22,0.0,0.0,58,0.00,,---,0.00,VWS V14.01,2013-03-30 07:17:00,
2013-03-30 03:18:00,40.1,26.5,29.88,NNE,22,0.0,0.0,58,0.00,,---,0.00,VWS V14.01,2013-03-30 07:18:00,
2013-03-30 03:19:00,39.9,26.4,29.88,NNE,22,0.0,0.0,58,0.00,,---,0.00,VWS V14.01,2013-03-30 07:19:00,
2013-03-30 03:20:00,39.9,26.4,29.88,NNE,22,0.0,0.0,58,0.00,,---,0.00,VWS V14.01,2013-03-30 07:20:00,
2013-03-30 03:21:00,39.9,26.8,29.88,NNE,22,0.0,0.0,59,0.00,,---,0.00,VWS V14.01,2013-03-30 07:21:00,
2013-03-30 03:22:00,40.1,26.5,29.88,NNE,22,0.0,0.0,58,0.00,,---,0.00,VWS V14.01,2013-03-30 07:22:00,
2013-03-30 03:23:00,40.1,26.5,29.88,NNE,22,0.0,0.0,58,0.00,,---,0.00,VWS V14.01,2013-03-30 07:23:00,
2013-03-30 03:24:00,39.7,26.6,29.88,NNE,22,0.0,0.0,59,0.00,,---,0.00,VWS V14.01,2013-03-30 07:24:00,
2013-03-30 03:25:00,39.7,27.0,29.88,NNE,22,0.0,0.0,60,0.00,,---,0.00,VWS V14.01,2013-03-30 07:25:00,
2013-03-30 03:26:00,39.9,26.4,29.88,NNE,22,0.0,0.0,58,0.00,,---,0.00,VWS V14.01,2013-03-30 07:26:00,
2013-03-30 03:27:00,39.9,26.8,29.88,NNE,22,0.0,0.0,59,0.00,,---,0.00,VWS V14.01,2013-03-30 07:27:00,
2013-03-30 03:28:00,39.9,26.8,29.88,NNE,22,0.0,0.0,59,0.00,,---,0.00,VWS V14.01,2013-03-30 07:28:00,
2013-03-30 03:29:00,39.6,26.4,29.88,NNE,22,0.0,0.0,59,0.00,,---,0.00,VWS V14.01,2013-03-30 07:29:00,
2013-03-30 03:30:00,39.6,26.4,29.88,NNE,22,0.0,0.0,59,0.00,,---,0.00,VWS V14.01,2013-03-30 07:30:00,
2013-03-30 03:31:00,39.7,27.0,29.88,NNE,22,0.0,0.0,60,0.00,,---,0.00,VWS V14.01,2013-03-30 07:31:00,
2013-03-30 03:32:00,39.7,27.0,29.88,NNE,22,0.0,0.0,60,0.00,,---,0.00,VWS V14.01,2013-03-30 07:32:00,
2013-03-30 03:33:00,39.7,27.0,29.88,NNE,22,0.0,0.0,60,0.00,,---,0.00,VWS V14.01,2013-03-30 07:33:00,
2013-03-30 03:34:00,39.4,27.1,29.88,NNE,22,0.0,0.0,61,0.00,,---,0.00,VWS V14.01,2013-03-30 07:34:00,
2013-03-30 03:35:00,39.4,27.1,29.88,NNE,22,0.0,0.0,61,0.00,,---,0.00,VWS V14.01,2013-03-30 07:35:00,
2013-03-30 03:36:00,39.6,26.4,29.88,NNE,22,0.0,0.0,59,0.00,,---,0.00,VWS V14.01,2013-03-30 07:36:00,
2013-03-30 03:37:00,39.4,26.7,29.88,NNE,22,0.0,0.0,60,0.00,,---,0.00,VWS V14.01,2013-03-30 07:37:00,
2013-03-30 03:38:00,39.6,26.4,29.88,NNE,22,0.0,0.0,59,0.00,,---,0.00,VWS V14.01,2013-03-30 07:38:00,
2013-03-30 03:39:00,39.6,27.2,29.88,NNE,22,0.0,0.0,61,0.00,,---,0.00,VWS V14.01,2013-03-30 07:39:00,
2013-03-30 03:40:00,39.4,26.7,29.88,NNE,22,0.0,0.0,60,0.00,,---,0.00,VWS V14.01,2013-03-30 07:40:00,
2013-03-30 03:41:00,39.4,27.1,29.88,NNE,22,0.0,0.0,61,0.00,,---,0.00,VWS V14.01,2013-03-30 07:41:00,
2013-03-30 03:42:00,39.4,27.1,29.88,NNE,22,0.0,0.0,61,0.00,,---,0.00,VWS V14.01,2013-03-30 07:42:00,
2013-03-30 03:43:00,39.4,26.7,29.88,NNE,22,0.0,0.0,60,0.00,,---,0.00,VWS V14.01,2013-03-30 07:43:00,
2013-03-30 03:44:00,39.4,26.7,29.88,NNE,22,0.0,0.0,60,0.00,,---,0.00,VWS V14.01,2013-03-30 07:44:00,
2013-03-30 03:45:00,39.4,26.7,29.88,NNE,22,0.0,0.0,60,0.00,,---,0.00,VWS V14.01,2013-03-30 07:45:00,
2013-03-30 03:46:00,39.4,27.1,29.88,NNE,22,0.0,0.0,61,0.00,,---,0.00,VWS V14.01,2013-03-30 07:46:00,
2013-03-30 03:47:00,39.4,27.1,29.88,NNE,22,0.0,0.0,61,0.00,,---,0.00,VWS V14.01,2013-03-30 07:47:00,
2013-03-30 03:48:00,39.4,27.1,29.88,NNE,22,0.0,0.0,61,0.00,,---,0.00,VWS V14.01,2013-03-30 07:48:00,
2013-03-30 03:49:00,39.2,26.9,29.88,NNE,22,0.0,0.0,61,0.00,,---,0.00,VWS V14.01,2013-03-30 07:49:00,
2013-03-30 03:50:00,39.4,27.1,29.88,NNE,22,0.0,0.0,61,0.00,,---,0.00,VWS V14.01,2013-03-30 07:50:00,
2013-03-30 03:51:00,39.4,27.5,29.88,NNE,22,0.0,0.0,62,0.00,,---,0.00,VWS V14.01,2013-03-30 07:51:00,
2013-03-30 03:52:00,39.4,27.1,29.88,NNE,22,0.0,0.0,61,0.00,,---,0.00,VWS V14.01,2013-03-30 07:52:00,
2013-03-30 03:53:00,39.2,27.3,29.88,NNE,22,0.0,0.0,62,0.00,,---,0.00,VWS V14.01,2013-03-30 07:53:00,
2013-03-30 03:54:00,39.2,26.9,29.91,NNE,22,0.0,0.0,61,0.00,,---,0.00,VWS V14.01,2013-03-30 07:54:00,
2013-03-30 03:55:00,39.2,27.3,29.91,NNE,22,0.0,0.0,62,0.00,,---,0.00,VWS V14.01,2013-03-30 07:55:00,
2013-03-30 03:56:00,39.2,26.9,29.88,NNE,22,0.0,0.0,61,0.00,,---,0.00,VWS V14.01,2013-03-30 07:56:00,
2013-03-30 03:57:00,39.2,26.9,29.88,NNE,22,0.0,0.0,61,0.00,,---,0.00,VWS V14.01,2013-03-30 07:57:00,
2013-03-30 03:58:00,39.2,26.9,29.88,NNE,22,0.0,0.0,61,0.00,,---,0.00,VWS V14.01,2013-03-30 07:58:00,
2013-03-30 03:59:00,39.2,27.3,29.88,NNE,22,0.0,0.0,62,0.00,,---,0.00,VWS V14.01,2013-03-30 07:59:00,
2013-03-30 04:00:00,39.0,27.1,29.91,NNE,22,0.0,0.0,62,0.00,,---,0.00,VWS V14.01,2013-03-30 08:00:00,
2013-03-30 04:01:00,39.2,27.3,29.91,NNE,22,0.0,0.0,62,0.00,,---,0.00,VWS V14.01,2013-03-30 08:01:00,
2013-03-30 04:02:00,39.0,27.1,29.91,NNE,22,0.0,0.0,62,0.00,,---,0.00,VWS V14.01,2013-03-30 08:02:00,
2013-03-30 04:03:00,39.0,27.1,29.91,NNE,22,0.0,0.0,62,0.00,,---,0.00,VWS V14.01,2013-03-30 08:03:00,
2013-03-30 04:04:00,39.0,27.1,29.91,NNE,22,0.0,0.0,62,0.00,,---,0.00,VWS V14.01,2013-03-30 08:04:00,
2013-03-30 04:05:00,39.0,27.1,29.91,NNE,22,0.0,0.0,62,0.00,,---,0.00,VWS V14.01,2013-03-30 08:05:00,
2013-03-30 04:06:00,39.0,27.5,29.91,NNE,22,0.0,0.0,63,0.00,,---,0.00,VWS V14.01,2013-03-30 08:06:00,
2013-03-30 04:07:00,39.0,27.1,29.91,NNE,22,0.0,0.0,62,0.00,,---,0.00,VWS V14.01,2013-03-30 08:07:00,
2013-03-30 04:08:00,38.8,27.3,29.91,NNE,22,0.0,0.0,63,0.00,,---,0.00,VWS V14.01,2013-03-30 08:08:00,
2013-03-30 04:09:00,39.0,27.1,29.91,NNE,22,0.0,0.0,62,0.00,,---,0.00,VWS V14.01,2013-03-30 08:09:00,
2013-03-30 04:10:00,39.0,27.5,29.91,NNE,22,0.0,0.0,63,0.00,,---,0.00,VWS V14.01,2013-03-30 08:10:00,
2013-03-30 04:11:00,39.0,27.5,29.91,NNE,22,0.0,0.0,63,0.00,,---,0.00,VWS V14.01,2013-03-30 08:11:00,
2013-03-30 04:12:00,38.8,27.7,29.88,NNE,22,0.0,0.0,64,0.00,,---,0.00,VWS V14.01,2013-03-30 08:12:00,
2013-03-30 04:13:00,38.8,27.3,29.91,NNE,22,0.0,0.0,63,0.00,,---,0.00,VWS V14.01,2013-03-30 08:13:00,
2013-03-30 04:14:00,38.8,28.1,29.88,NNE,22,0.0,0.0,65,0.00,,---,0.00,VWS V14.01,2013-03-30 08:14:00,
2013-03-30 04:15:00,38.8,27.3,29.88,NNE,22,0.0,0.0,63,0.00,,---,0.00,VWS V14.01,2013-03-30 08:15:00,
2013-03-30 04:16:00,39.0,28.3,29.88,NNE,22,0.0,0.0,65,0.00,,---,0.00,VWS V14.01,2013-03-30 08:16:00,
2013-03-30 04:17:00,38.8,27.7,29.88,NNE,22,0.0,0.0,64,0.00,,---,0.00,VWS V14.01,2013-03-30 08:17:00,
2013-03-30 04:18:00,38.8,28.5,29.88,NNE,22,0.0,0.0,66,0.00,,---,0.00,VWS V14.01,2013-03-30 08:18:00,
2013-03-30 04:19:00,38.8,27.7,29.88,NNE,22,0.0,0.0,64,0.00,,---,0.00,VWS V14.01,2013-03-30 08:19:00,
2013-03-30 04:20:00,38.8,28.1,29.88,NNE,22,0.0,0.0,65,0.00,,---,0.00,VWS V14.01,2013-03-30 08:20:00,
2013-03-30 04:21:00,38.7,27.9,29.88,NNE,22,0.0,0.0,65,0.00,,---,0.00,VWS V14.01,2013-03-30 08:21:00,
2013-03-30 04:22:00,38.7,27.9,29.88,NNE,22,0.0,0.0,65,0.00,,---,0.00,VWS V14.01,2013-03-30 08:22:00,
2013-03-30 04:23:00,38.7,27.5,29.88,NNE,22,0.0,0.0,64,0.00,,---,0.00,VWS V14.01,2013-03-30 08:23:00,
2013-03-30 04:24:00,38.8,28.5,29.88,NNE,22,0.0,0.0,66,0.00,,---,0.00,VWS V14.01,2013-03-30 08:24:00,
2013-03-30 04:25:00,38.7,28.3,29.88,NNE,22,0.0,0.0,66,0.00,,---,0.00,VWS V14.01,2013-03-30 08:25:00,
2013-03-30 04:26:00,38.7,28.3,29.88,NNE,22,0.0,0.0,66,0.00,,---,0.00,VWS V14.01,2013-03-30 08:26:00,
2013-03-30 04:27:00,38.7,27.9,29.88,NNE,22,0.0,0.0,65,0.00,,---,0.00,VWS V14.01,2013-03-30 08:27:00,
2013-03-30 04:28:00,38.7,28.7,29.88,NNE,22,0.0,0.0,67,0.00,,---,0.00,VWS V14.01,2013-03-30 08:28:00,
2013-03-30 04:29:00,38.7,27.5,29.88,NNE,22,0.0,0.0,64,0.00,,---,0.00,VWS V14.01,2013-03-30 08:29:00,
2013-03-30 04:30:00,38.7,27.5,29.88,NNE,22,0.0,0.0,64,0.00,,---,0.00,VWS V14.01,2013-03-30 08:30:00,
2013-03-30 04:31:00,38.7,29.0,29.88,NNE,22,0.0,0.0,68,0.00,,---,0.00,VWS V14.01,2013-03-30 08:31:00,
2013-03-30 04:32:00,38.7,27.5,29.88,NNE,22,0.0,0.0,64,0.00,,---,0.00,VWS V14.01,2013-03-30 08:32:00,
2013-03-30 04:33:00,38.7,28.7,29.88,NNE,22,0.0,0.0,67,0.00,,---,0.00,VWS V14.01,2013-03-30 08:33:00,
2013-03-30 04:34:00,38.7,28.7,29.88,NNE,22,0.0,0.0,67,0.00,,---,0.00,VWS V14.01,2013-03-30 08:34:00,
2013-03-30 04:35:00,38.7,29.0,29.88,NNE,22,0.0,0.0,68,0.00,,---,0.00,VWS V14.01,2013-03-30 08:35:00,
2013-03-30 04:36:00,38.7,28.3,29.88,NNE,22,0.0,0.0,66,0.00,,---,0.00,VWS V14.01,2013-03-30 08:36:00,
2013-03-30 04:37:00,38.7,28.3,29.88,NNE,22,0.0,0.0,66,0.00,,---,0.00,VWS V14.01,2013-03-30 08:37:00,
2013-03-30 04:38:00,38.7,29.0,29.88,NNE,22,0.0,0.0,68,0.00,,---,0.00,VWS V14.01,2013-03-30 08:38:00,
2013-03-30 04:39:00,38.7,28.7,29.88,NNE,22,0.0,0.0,67,0.00,,---,0.00,VWS V14.01,2013-03-30 08:39:00,
2013-03-30 04:40:00,38.7,28.3,29.88,NNE,22,0.0,0.0,66,0.00,,---,0.00,VWS V14.01,2013-03-30 08:40:00,
2013-03-30 04:41:00,38.7,28.7,29.88,NNE,22,0.0,0.0,67,0.00,,---,0.00,VWS V14.01,2013-03-30 08:41:00,
2013-03-30 04:42:00,38.5,28.1,29.88,NNE,22,0.0,0.0,66,0.00,,---,0.00,VWS V14.01,2013-03-30 08:42:00,
2013-03-30 04:43:00,38.7,28.3,29.88,NNE,22,0.0,0.0,66,0.00,,---,0.00,VWS V14.01,2013-03-30 08:43:00,
2013-03-30 04:44:00,38.7,28.3,29.88,NNE,22,0.0,0.0,66,0.00,,---,0.00,VWS V14.01,2013-03-30 08:44:00,
2013-03-30 04:45:00,38.7,28.3,29.88,NNE,22,0.0,0.0,66,0.00,,---,0.00,VWS V14.01,2013-03-30 08:45:00,
2013-03-30 04:46:00,38.7,28.3,29.88,NNE,22,0.0,0.0,66,0.00,,---,0.00,VWS V14.01,2013-03-30 08:46:00,
2013-03-30 04:47:00,38.5,28.1,29.88,NNE,22,0.0,0.0,66,0.00,,---,0.00,VWS V14.01,2013-03-30 08:47:00,
2013-03-30 04:48:00,38.5,28.1,29.88,NNE,22,0.0,0.0,66,0.00,,---,0.00,VWS V14.01,2013-03-30 08:48:00,
2013-03-30 04:49:00,38.5,28.1,29.88,NNE,22,0.0,0.0,66,0.00,,---,0.00,VWS V14.01,2013-03-30 08:49:00,
2013-03-30 04:50:00,38.5,28.1,29.88,NNE,22,0.0,0.0,66,0.00,,---,0.00,VWS V14.01,2013-03-30 08:50:00,
2013-03-30 04:51:00,38.5,28.1,29.88,NNE,22,0.0,0.0,66,0.00,,---,0.00,VWS V14.01,2013-03-30 08:51:00,
2013-03-30 04:52:00,38.5,28.1,29.88,NNE,22,0.0,0.0,66,0.00,,---,0.00,VWS V14.01,2013-03-30 08:52:00,
2013-03-30 04:53:00,38.5,28.1,29.88,NNE,22,0.0,0.0,66,0.00,,---,0.00,VWS V14.01,2013-03-30 08:53:00,
2013-03-30 04:54:00,38.5,28.1,29.88,NNE,22,0.0,0.0,66,0.00,,---,0.00,VWS V14.01,2013-03-30 08:54:00,
2013-03-30 04:55:00,38.5,28.1,29.88,NNE,22,0.0,0.0,66,0.00,,---,0.00,VWS V14.01,2013-03-30 08:55:00,
2013-03-30 04:56:00,38.5,28.1,29.88,NNE,22,0.0,0.0,66,0.00,,---,0.00,VWS V14.01,2013-03-30 08:56:00,
2013-03-30 04:57:00,38.5,28.5,29.88,NNE,22,0.0,0.0,67,0.00,,---,0.00,VWS V14.01,2013-03-30 08:57:00,
2013-03-30 04:58:00,38.5,28.1,29.88,NNE,22,0.0,0.0,66,0.00,,---,0.00,VWS V14.01,2013-03-30 08:58:00,
2013-03-30 04:59:00,38.5,28.1,29.88,NNE,22,0.0,0.0,66,0.00,,---,0.00,VWS V14.01,2013-03-30 08:59:00,
2013-03-30 05:00:00,38.3,28.0,29.88,NNE,22,0.0,0.0,66,0.00,,---,0.00,VWS V14.01,2013-03-30 09:00:00,
2013-03-30 05:01:00,38.5,28.1,29.88,NNE,22,0.0,0.0,66,0.00,,---,0.00,VWS V14.01,2013-03-30 09:01:00,
2013-03-30 05:02:00,38.3,28.0,29.88,NNE,22,0.0,0.0,66,0.00,,---,0.00,VWS V14.01,2013-03-30 09:02:00,
2013-03-30 05:03:00,38.3,28.0,29.88,NNE,22,0.0,0.0,66,0.00,,---,0.00,VWS V14.01,2013-03-30 09:03:00,
2013-03-30 05:04:00,38.3,28.0,29.88,NNE,22,0.0,0.0,66,0.00,,---,0.00,VWS V14.01,2013-03-30 09:04:00,
2013-03-30 05:05:00,38.5,28.1,29.88,NNE,22,0.0,0.0,66,0.00,,---,0.00,VWS V14.01,2013-03-30 09:05:00,
2013-03-30 05:06:00,38.3,28.0,29.88,NNE,22,0.0,0.0,66,0.00,,---,0.00,VWS V14.01,2013-03-30 09:06:00,
2013-03-30 05:07:00,38.3,28.0,29.88,NNE,22,0.0,0.0,66,0.00,,---,0.00,VWS V14.01,2013-03-30 09:07:00,
2013-03-30 05:08:00,38.3,28.0,29.88,NNE,22,0.0,0.0,66,0.00,,---,0.00,VWS V14.01,2013-03-30 09:08:00,
2013-03-30 05:09:00,38.3,28.0,29.88,NNE,22,0.0,0.0,66,0.00,,---,0.00,VWS V14.01,2013-03-30 09:09:00,
2013-03-30 05:10:00,38.3,28.0,29.88,NNE,22,0.0,0.0,66,0.00,,---,0.00,VWS V14.01,2013-03-30 09:10:00,
2013-03-30 05:11:00,38.3,28.0,29.88,NNE,22,0.0,0.0,66,0.00,,---,0.00,VWS V14.01,2013-03-30 09:11:00,
2013-03-30 05:12:00,38.1,27.8,29.88,NNE,22,0.0,0.0,66,0.00,,---,0.00,VWS V14.01,2013-03-30 09:12:00,
2013-03-30 05:13:00,38.1,27.8,29.88,NNE,22,0.0,0.0,66,0.00,,---,0.00,VWS V14.01,2013-03-30 09:13:00,
2013-03-30 05:14:00,38.3,28.0,29.88,NNE,22,0.0,0.0,66,0.00,,---,0.00,VWS V14.01,2013-03-30 09:14:00,
2013-03-30 05:15:00,38.1,27.8,29.88,NNE,22,0.0,0.0,66,0.00,,---,0.00,VWS V14.01,2013-03-30 09:15:00,
2013-03-30 05:16:00,38.3,28.0,29.88,NNE,22,0.0,0.0,66,0.00,,---,0.00,VWS V14.01,2013-03-30 09:16:00,
2013-03-30 05:17:00,38.3,28.0,29.88,NNE,22,0.0,0.0,66,0.00,,---,0.00,VWS V14.01,2013-03-30 09:17:00,
2013-03-30 05:18:00,38.1,27.8,29.88,NNE,22,0.0,0.0,66,0.00,,---,0.00,VWS V14.01,2013-03-30 09:18:00,
2013-03-30 05:19:00,38.1,27.8,29.88,NNE,22,0.0,0.0,66,0.00,,---,0.00,VWS V14.01,2013-03-30 09:19:00,
2013-03-30 05:21:00,38.1,27.8,29.88,NNE,22,0.0,0.0,66,0.00,,---,0.00,VWS V14.01,2013-03-30 09:21:00,
2013-03-30 05:22:00,38.1,27.8,29.88,NNE,22,0.0,0.0,66,0.00,,---,0.00,VWS V14.01,2013-03-30 09:22:00,
2013-03-30 05:23:00,38.1,27.8,29.88,NNE,22,0.0,0.0,66,0.00,,---,0.00,VWS V14.01,2013-03-30 09:23:00,
2013-03-30 05:24:00,38.1,27.8,29.88,NNE,22,0.0,0.0,66,0.00,,---,0.00,VWS V14.01,2013-03-30 09:24:00,
2013-03-30 05:25:00,38.1,27.8,29.88,NNE,22,0.0,0.0,66,0.00,,---,0.00,VWS V14.01,2013-03-30 09:25:00,
2013-03-30 05:26:00,38.1,27.8,29.88,NNE,22,0.0,0.0,66,0.00,,---,0.00,VWS V14.01,2013-03-30 09:26:00,
2013-03-30 05:27:00,38.1,27.8,29.88,NNE,22,0.0,0.0,66,0.00,,---,0.00,VWS V14.01,2013-03-30 09:27:00,
2013-03-30 05:28:00,38.1,28.1,29.88,NNE,22,0.0,0.0,67,0.00,,---,0.00,VWS V14.01,2013-03-30 09:28:00,
2013-03-30 05:29:00,38.1,28.1,29.88,NNE,22,0.0,0.0,67,0.00,,---,0.00,VWS V14.01,2013-03-30 09:29:00,
2013-03-30 05:30:00,38.1,27.8,29.88,NNE,22,0.0,0.0,66,0.00,,---,0.00,VWS V14.01,2013-03-30 09:30:00,
2013-03-30 05:31:00,38.1,27.8,29.88,NNE,22,0.0,0.0,66,0.00,,---,0.00,VWS V14.01,2013-03-30 09:31:00,
2013-03-30 05:32:00,38.1,27.8,29.88,NNE,22,0.0,0.0,66,0.00,,---,0.00,VWS V14.01,2013-03-30 09:32:00,
2013-03-30 05:33:00,38.1,28.1,29.88,NNE,22,0.0,0.0,67,0.00,,---,0.00,VWS V14.01,2013-03-30 09:33:00,
2013-03-30 05:34:00,38.1,28.1,29.88,NNE,22,0.0,0.0,67,0.00,,---,0.00,VWS V14.01,2013-03-30 09:34:00,
2013-03-30 05:35:00,38.1,28.1,29.88,NNE,22,0.0,0.0,67,0.00,,---,0.00,VWS V14.01,2013-03-30 09:35:00,
2013-03-30 05:36:00,38.1,28.1,29.88,NNE,22,0.0,0.0,67,0.00,,---,0.00,VWS V14.01,2013-03-30 09:36:00,
2013-03-30 05:37:00,38.1,28.1,29.88,NNE,22,0.0,0.0,67,0.00,,---,0.00,VWS V14.01,2013-03-30 09:37:00,
2013-03-30 05:38:00,38.1,28.1,29.88,NNE,22,0.0,0.0,67,0.00,,---,0.00,VWS V14.01,2013-03-30 09:38:00,
2013-03-30 05:39:00,38.1,28.1,29.88,NNE,22,0.0,0.0,67,0.00,,---,0.00,VWS V14.01,2013-03-30 09:39:00,
2013-03-30 05:40:00,38.1,28.1,29.85,NNE,22,0.0,0.0,67,0.00,,---,0.00,VWS V14.01,2013-03-30 09:40:00,
2013-03-30 05:41:00,38.1,28.5,29.85,NNE,22,0.0,0.0,68,0.00,,---,0.00,VWS V14.01,2013-03-30 09:41:00,
2013-03-30 05:43:00,38.1,28.5,29.85,NNE,22,0.0,0.0,68,0.00,,---,0.00,VWS V14.01,2013-03-30 09:43:00,
2013-03-30 05:44:00,38.1,28.1,29.88,NNE,22,0.0,0.0,67,0.00,,---,0.00,VWS V14.01,2013-03-30 09:44:00,
2013-03-30 05:45:00,38.1,28.9,29.85,NNE,22,0.0,0.0,69,0.00,,---,0.00,VWS V14.01,2013-03-30 09:45:00,
2013-03-30 05:46:00,38.1,28.9,29.85,NNE,22,0.0,0.0,69,0.00,,---,0.00,VWS V14.01,2013-03-30 09:46:00,
2013-03-30 05:47:00,38.1,28.5,29.85,NNE,22,0.0,0.0,68,0.00,,---,0.00,VWS V14.01,2013-03-30 09:47:00,
2013-03-30 05:48:00,38.1,28.5,29.85,NNE,22,0.0,0.0,68,0.00,,---,0.00,VWS V14.01,2013-03-30 09:48:00,
2013-03-30 05:49:00,38.1,28.5,29.85,NNE,22,0.0,0.0,68,0.00,,---,0.00,VWS V14.01,2013-03-30 09:49:00,
2013-03-30 05:50:00,37.9,28.3,29.85,NNE,22,0.0,0.0,68,0.00,,---,0.00,VWS V14.01,2013-03-30 09:50:00,
2013-03-30 05:51:00,38.1,28.9,29.85,NNE,22,0.0,0.0,69,0.00,,---,0.00,VWS V14.01,2013-03-30 09:51:00,
2013-03-30 05:52:00,38.1,28.9,29.85,NNE,22,0.0,0.0,69,0.00,,---,0.00,VWS V14.01,2013-03-30 09:52:00,
2013-03-30 05:53:00,37.9,28.3,29.85,NNE,22,0.0,0.0,68,0.00,,---,0.00,VWS V14.01,2013-03-30 09:53:00,
2013-03-30 05:54:00,37.9,28.7,29.85,NNE,22,0.0,0.0,69,0.00,,---,0.00,VWS V14.01,2013-03-30 09:54:00,
2013-03-30 05:55:00,37.9,28.3,29.88,NNE,22,0.0,0.0,68,0.00,,---,0.00,VWS V14.01,2013-03-30 09:55:00,
2013-03-30 05:56:00,37.9,28.3,29.88,NNE,22,0.0,0.0,68,0.00,,---,0.00,VWS V14.01,2013-03-30 09:56:00,
2013-03-30 05:57:00,37.9,28.3,29.85,NNE,22,0.0,0.0,68,0.00,,---,0.00,VWS V14.01,2013-03-30 09:57:00,
2013-03-30 05:58:00,37.9,28.3,29.85,NNE,22,0.0,0.0,68,0.00,,---,0.00,VWS V14.01,2013-03-30 09:58:00,
2013-03-30 05:59:00,37.9,28.3,29.88,NNE,22,0.0,0.0,68,0.00,,---,0.00,VWS V14.01,2013-03-30 09:59:00,
2013-03-30 06:00:00,37.9,28.3,29.88,NNE,22,0.0,0.0,68,0.00,,---,0.00,VWS V14.01,2013-03-30 10:00:00,
2013-03-30 06:01:00,37.9,28.3,29.88,NNE,22,0.0,0.0,68,0.00,,---,0.00,VWS V14.01,2013-03-30 10:01:00,
2013-03-30 06:02:00,37.9,28.3,29.88,NNE,22,0.0,0.0,68,0.00,,---,0.00,VWS V14.01,2013-03-30 10:02:00,
2013-03-30 06:03:00,37.8,28.2,29.88,NNE,22,0.0,0.0,68,0.00,,---,0.00,VWS V14.01,2013-03-30 10:03:00,
2013-03-30 06:04:00,37.6,28.0,29.88,NNE,22,0.0,0.0,68,0.00,,---,0.00,VWS V14.01,2013-03-30 10:04:00,
2013-03-30 06:05:00,37.8,28.2,29.88,NNE,22,0.0,0.0,68,0.00,,---,0.00,VWS V14.01,2013-03-30 10:05:00,
2013-03-30 06:06:00,37.6,28.0,29.88,NNE,22,0.0,0.0,68,0.00,,---,0.00,VWS V14.01,2013-03-30 10:06:00,
2013-03-30 06:07:00,37.8,28.2,29.88,NNE,22,0.0,0.0,68,0.00,,---,0.00,VWS V14.01,2013-03-30 10:07:00,
2013-03-30 06:08:00,37.8,28.2,29.88,NNE,22,0.0,0.0,68,0.00,,---,0.00,VWS V14.01,2013-03-30 10:08:00,
2013-03-30 06:09:00,37.8,28.2,29.88,NNE,22,0.0,0.0,68,0.00,,---,0.00,VWS V14.01,2013-03-30 10:09:00,
2013-03-30 06:10:00,37.4,27.8,29.85,NNE,22,0.0,0.0,68,0.00,,---,0.00,VWS V14.01,2013-03-30 10:10:00,
2013-03-30 06:11:00,37.4,27.8,29.85,NNE,22,0.0,0.0,68,0.00,,---,0.00,VWS V14.01,2013-03-30 10:11:00,
2013-03-30 06:12:00,37.6,28.0,29.88,NNE,22,0.0,0.0,68,0.00,,---,0.00,VWS V14.01,2013-03-30 10:12:00,
2013-03-30 06:13:00,37.4,27.8,29.85,NNE,22,0.0,0.0,68,0.00,,---,0.00,VWS V14.01,2013-03-30 10:13:00,
2013-03-30 06:14:00,37.6,28.0,29.88,NNE,22,0.0,0.0,68,0.00,,---,0.00,VWS V14.01,2013-03-30 10:14:00,
2013-03-30 06:15:00,37.4,27.8,29.85,NNE,22,0.0,0.0,68,0.00,,---,0.00,VWS V14.01,2013-03-30 10:15:00,
2013-03-30 06:16:00,37.4,27.8,29.85,NNE,22,0.0,0.0,68,0.00,,---,0.00,VWS V14.01,2013-03-30 10:16:00,
2013-03-30 06:17:00,37.4,28.2,29.85,NNE,22,0.0,0.0,69,0.00,,---,0.00,VWS V14.01,2013-03-30 10:17:00,
2013-03-30 06:18:00,37.2,28.0,29.85,NNE,22,0.0,0.0,69,0.00,,---,0.00,VWS V14.01,2013-03-30 10:18:00,
2013-03-30 06:19:00,37.4,27.8,29.85,NNE,22,0.0,0.0,68,0.00,,---,0.00,VWS V14.01,2013-03-30 10:19:00,
2013-03-30 06:20:00,37.2,28.4,29.85,NNE,22,0.0,0.0,70,0.00,,---,0.00,VWS V14.01,2013-03-30 10:20:00,
2013-03-30 06:21:00,37.4,27.8,29.85,NNE,22,0.0,0.0,68,0.00,,---,0.00,VWS V14.01,2013-03-30 10:21:00,
2013-03-30 06:22:00,37.0,28.2,29.85,NNE,22,0.0,0.0,70,0.00,,---,0.00,VWS V14.01,2013-03-30 10:22:00,
2013-03-30 06:23:00,37.4,28.2,29.85,NNE,22,0.0,0.0,69,0.00,,---,0.00,VWS V14.01,2013-03-30 10:23:00,
2013-03-30 06:24:00,37.2,28.0,29.85,NNE,22,0.0,0.0,69,0.00,,---,0.00,VWS V14.01,2013-03-30 10:24:00,
2013-03-30 06:25:00,37.2,28.4,29.85,NNE,22,0.0,0.0,70,0.00,,---,0.00,VWS V14.01,2013-03-30 10:25:00,
2013-03-30 06:26:00,36.9,27.7,29.88,NNE,22,0.0,0.0,69,0.00,,---,0.00,VWS V14.01,2013-03-30 10:26:00,
2013-03-30 06:27:00,37.0,28.2,29.85,NNE,22,0.0,0.0,70,0.00,,---,0.00,VWS V14.01,2013-03-30 10:27:00,
2013-03-30 06:28:00,36.9,27.7,29.88,NNE,22,0.0,0.0,69,0.00,,---,0.00,VWS V14.01,2013-03-30 10:28:00,
2013-03-30 06:29:00,36.9,28.0,29.88,NNE,22,0.0,0.0,70,0.00,,---,0.00,VWS V14.01,2013-03-30 10:29:00,
2013-03-30 06:30:00,37.0,27.8,29.88,NNE,22,0.0,0.0,69,0.00,,---,0.00,VWS V14.01,2013-03-30 10:30:00,
2013-03-30 06:31:00,36.9,27.7,29.88,NNE,22,0.0,0.0,69,0.00,,---,0.00,VWS V14.01,2013-03-30 10:31:00,
2013-03-30 06:32:00,36.7,27.5,29.88,NNE,22,0.0,0.0,69,0.00,,---,0.00,VWS V14.01,2013-03-30 10:32:00,
2013-03-30 06:33:00,36.9,27.7,29.88,NNE,22,0.0,0.0,69,0.00,,---,0.00,VWS V14.01,2013-03-30 10:33:00,
2013-03-30 06:34:00,36.7,27.5,29.88,NNE,22,0.0,0.0,69,0.00,,---,0.00,VWS V14.01,2013-03-30 10:34:00,
2013-03-30 06:35:00,36.9,28.0,29.88,NNE,22,0.0,0.0,70,0.00,,---,0.00,VWS V14.01,2013-03-30 10:35:00,
2013-03-30 06:36:00,36.7,27.8,29.88,NNE,22,0.0,0.0,70,0.00,,---,0.00,VWS V14.01,2013-03-30 10:36:00,
2013-03-30 06:37:00,36.9,27.7,29.88,NNE,22,0.0,0.0,69,0.00,,---,0.00,VWS V14.01,2013-03-30 10:37:00,
2013-03-30 06:38:00,36.7,27.5,29.88,NNE,22,0.0,0.0,69,0.00,,---,0.00,VWS V14.01,2013-03-30 10:38:00,
2013-03-30 06:39:00,36.7,28.2,29.88,NNE,22,0.0,0.0,71,0.00,,---,0.00,VWS V14.01,2013-03-30 10:39:00,
2013-03-30 06:40:00,36.7,27.5,29.88,NNE,22,0.0,0.0,69,0.00,,---,0.00,VWS V14.01,2013-03-30 10:40:00,
2013-03-30 06:41:00,36.7,27.8,29.88,NNE,22,0.0,0.0,70,0.00,,---,0.00,VWS V14.01,2013-03-30 10:41:00,
2013-03-30 06:42:00,36.7,27.8,29.88,NNE,22,0.0,0.0,70,0.00,,---,0.00,VWS V14.01,2013-03-30 10:42:00,
2013-03-30 06:43:00,36.7,28.2,29.88,NNE,22,0.0,0.0,71,0.00,,---,0.00,VWS V14.01,2013-03-30 10:43:00,
2013-03-30 06:44:00,36.5,27.7,29.88,NNE,22,0.0,0.0,70,0.00,,---,0.00,VWS V14.01,2013-03-30 10:44:00,
2013-03-30 06:45:00,36.7,28.2,29.88,NNE,22,0.0,0.0,71,0.00,,---,0.00,VWS V14.01,2013-03-30 10:45:00,
2013-03-30 06:46:00,36.5,27.7,29.88,NNE,22,0.0,0.0,70,0.00,,---,0.00,VWS V14.01,2013-03-30 10:46:00,
2013-03-30 06:47:00,36.5,27.7,29.88,NNE,22,0.0,0.0,70,0.00,,---,0.00,VWS V14.01,2013-03-30 10:47:00,
2013-03-30 06:48:00,36.5,27.7,29.88,NNE,22,0.0,0.0,70,0.00,,---,0.00,VWS V14.01,2013-03-30 10:48:00,
2013-03-30 06:49:00,36.5,27.7,29.88,NNE,22,0.0,0.0,70,0.00,,---,0.00,VWS V14.01,2013-03-30 10:49:00,
2013-03-30 06:50:00,36.5,27.7,29.88,NNE,22,0.0,0.0,70,0.00,,---,0.00,VWS V14.01,2013-03-30 10:50:00,
2013-03-30 06:51:00,36.5,27.7,29.88,NNE,22,0.0,0.0,70,0.00,,---,0.00,VWS V14.01,2013-03-30 10:51:00,
2013-03-30 06:52:00,36.3,27.8,29.88,NNE,22,0.0,0.0,71,0.00,,---,0.00,VWS V14.01,2013-03-30 10:52:00,
2013-03-30 06:53:00,36.5,27.7,29.88,NNE,22,0.0,0.0,70,0.00,,---,0.00,VWS V14.01,2013-03-30 10:53:00,
2013-03-30 06:54:00,36.3,27.8,29.91,NNE,22,0.0,0.0,71,0.00,,---,0.00,VWS V14.01,2013-03-30 10:54:00,
2013-03-30 06:55:00,36.5,28.0,29.88,NNE,22,0.0,0.0,71,0.00,,---,0.00,VWS V14.01,2013-03-30 10:55:00,
2013-03-30 06:56:00,36.5,28.0,29.88,NNE,22,0.0,0.0,71,0.00,,---,0.00,VWS V14.01,2013-03-30 10:56:00,
2013-03-30 06:57:00,36.3,27.8,29.91,NNE,22,0.0,0.0,71,0.00,,---,0.00,VWS V14.01,2013-03-30 10:57:00,
2013-03-30 06:58:00,36.3,27.8,29.88,NNE,22,0.0,0.0,71,0.00,,---,0.00,VWS V14.01,2013-03-30 10:58:00,
2013-03-30 06:59:00,36.3,27.8,29.88,NNE,22,0.0,0.0,71,0.00,,---,0.00,VWS V14.01,2013-03-30 10:59:00,
2013-03-30 07:00:00,36.3,27.8,29.91,NNE,22,0.0,0.0,71,0.00,,---,0.00,VWS V14.01,2013-03-30 11:00:00,
2013-03-30 07:01:00,36.3,27.8,29.91,NNE,22,0.0,0.0,71,0.00,,---,0.00,VWS V14.01,2013-03-30 11:01:00,
2013-03-30 07:03:00,36.3,27.8,29.91,NNE,22,0.0,0.0,71,0.00,,---,0.00,VWS V14.01,2013-03-30 11:03:00,
2013-03-30 07:04:00,36.3,27.5,29.91,NNE,22,0.0,0.0,70,0.00,,---,0.00,VWS V14.01,2013-03-30 11:04:00,
2013-03-30 07:05:00,36.1,27.7,29.91,NNE,22,0.0,0.0,71,0.00,,---,0.00,VWS V14.01,2013-03-30 11:05:00,
2013-03-30 07:06:00,36.1,27.7,29.91,NNE,22,0.0,0.0,71,0.00,,---,0.00,VWS V14.01,2013-03-30 11:06:00,
2013-03-30 07:07:00,36.3,27.8,29.91,NNE,22,0.0,0.0,71,0.00,,---,0.00,VWS V14.01,2013-03-30 11:07:00,
2013-03-30 07:08:00,36.1,28.0,29.91,NNE,22,0.0,0.0,72,0.00,,---,0.00,VWS V14.01,2013-03-30 11:08:00,
2013-03-30 07:09:00,36.1,27.7,29.91,NNE,22,0.0,0.0,71,0.00,,---,0.00,VWS V14.01,2013-03-30 11:09:00,
2013-03-30 07:10:00,36.1,28.0,29.88,NNE,22,0.0,0.0,72,0.00,,---,0.00,VWS V14.01,2013-03-30 11:10:00,
2013-03-30 07:11:00,36.1,28.0,29.88,NNE,22,0.0,0.0,72,0.00,,---,0.00,VWS V14.01,2013-03-30 11:11:00,
2013-03-30 07:12:00,36.1,27.7,29.91,NNE,22,0.0,0.0,71,0.00,,---,0.00,VWS V14.01,2013-03-30 11:12:00,
2013-03-30 07:13:00,36.1,28.0,29.91,NNE,22,0.0,0.0,72,0.00,,---,0.00,VWS V14.01,2013-03-30 11:13:00,
2013-03-30 07:14:00,36.1,28.3,29.88,NNE,22,0.0,0.0,73,0.00,,---,0.00,VWS V14.01,2013-03-30 11:14:00,
2013-03-30 07:15:00,36.1,28.0,29.88,NNE,22,0.0,0.0,72,0.00,,---,0.00,VWS V14.01,2013-03-30 11:15:00,
2013-03-30 07:16:00,36.1,28.0,29.88,NNE,22,0.0,0.0,72,0.00,,---,0.00,VWS V14.01,2013-03-30 11:16:00,
2013-03-30 07:17:00,36.0,28.2,29.88,NNE,22,0.0,0.0,73,0.00,,---,0.00,VWS V14.01,2013-03-30 11:17:00,
2013-03-30 07:18:00,36.1,28.3,29.88,NNE,22,0.0,0.0,73,0.00,,---,0.00,VWS V14.01,2013-03-30 11:18:00,
2013-03-30 07:19:00,36.0,28.2,29.88,NNE,22,0.0,0.0,73,0.00,,---,0.00,VWS V14.01,2013-03-30 11:19:00,
2013-03-30 07:20:00,36.0,28.2,29.88,NNE,22,0.0,0.0,73,0.00,,---,0.00,VWS V14.01,2013-03-30 11:20:00,
2013-03-30 07:21:00,36.0,28.2,29.88,NNE,22,0.0,0.0,73,0.00,,---,0.00,VWS V14.01,2013-03-30 11:21:00,
2013-03-30 07:22:00,36.0,28.2,29.88,NNE,22,0.0,0.0,73,0.00,,---,0.00,VWS V14.01,2013-03-30 11:22:00,
2013-03-30 07:23:00,36.0,28.2,29.88,NNE,22,0.0,0.0,73,0.00,,---,0.00,VWS V14.01,2013-03-30 11:23:00,
2013-03-30 07:24:00,35.8,28.0,29.88,NNE,22,0.0,0.0,73,0.00,,---,0.00,VWS V14.01,2013-03-30 11:24:00,
2013-03-30 07:25:00,35.8,28.0,29.91,NNE,22,0.0,0.0,73,0.00,,---,0.00,VWS V14.01,2013-03-30 11:25:00,
2013-03-30 07:26:00,36.0,28.2,29.88,NNE,22,0.0,0.0,73,0.00,,---,0.00,VWS V14.01,2013-03-30 11:26:00,
2013-03-30 07:27:00,35.8,28.0,29.88,NNE,22,0.0,0.0,73,0.00,,---,0.00,VWS V14.01,2013-03-30 11:27:00,
2013-03-30 07:28:00,35.6,27.8,29.91,NNE,22,0.0,0.0,73,0.00,,---,0.00,VWS V14.01,2013-03-30 11:28:00,
2013-03-30 07:29:00,35.8,28.0,29.88,NNE,22,0.0,0.0,73,0.00,,---,0.00,VWS V14.01,2013-03-30 11:29:00,
2013-03-30 07:30:00,35.6,27.8,29.91,NNE,22,0.0,0.0,73,0.00,,---,0.00,VWS V14.01,2013-03-30 11:30:00,
2013-03-30 07:31:00,35.6,27.8,29.91,NNE,22,0.0,0.0,73,0.00,,---,0.00,VWS V14.01,2013-03-30 11:31:00,
2013-03-30 07:32:00,35.8,28.0,29.91,NNE,22,0.0,0.0,73,0.00,,---,0.00,VWS V14.01,2013-03-30 11:32:00,
2013-03-30 07:33:00,35.8,28.0,29.91,NNE,22,0.0,0.0,73,0.00,,---,0.00,VWS V14.01,2013-03-30 11:33:00,
2013-03-30 07:34:00,35.6,27.8,29.91,NNE,22,0.0,0.0,73,0.00,,---,0.00,VWS V14.01,2013-03-30 11:34:00,
2013-03-30 07:35:00,35.6,27.8,29.91,NNE,22,0.0,0.0,73,0.00,,---,0.00,VWS V14.01,2013-03-30 11:35:00,
2013-03-30 07:36:00,35.6,28.1,29.91,NNE,22,0.0,0.0,74,0.00,,---,0.00,VWS V14.01,2013-03-30 11:36:00,
2013-03-30 07:37:00,35.6,27.8,29.91,NNE,22,0.0,0.0,73,0.00,,---,0.00,VWS V14.01,2013-03-30 11:37:00,
2013-03-30 07:38:00,35.4,28.0,29.91,NNE,22,0.0,0.0,74,0.00,,---,0.00,VWS V14.01,2013-03-30 11:38:00,
2013-03-30 07:39:00,35.6,27.8,29.91,NNE,22,0.0,0.0,73,0.00,,---,0.00,VWS V14.01,2013-03-30 11:39:00,
2013-03-30 07:40:00,35.4,28.0,29.88,NNE,22,0.0,0.0,74,0.00,,---,0.00,VWS V14.01,2013-03-30 11:40:00,
2013-03-30 07:41:00,35.4,28.0,29.88,NNE,22,0.0,0.0,74,0.00,,---,0.00,VWS V14.01,2013-03-30 11:41:00,
2013-03-30 07:42:00,35.6,28.1,29.91,NNE,22,0.0,0.0,74,0.00,,---,0.00,VWS V14.01,2013-03-30 11:42:00,
2013-03-30 07:43:00,35.4,28.0,29.91,NNE,22,0.0,0.0,74,0.00,,---,0.00,VWS V14.01,2013-03-30 11:43:00,
2013-03-30 07:44:00,35.4,28.3,29.88,NNE,22,0.0,0.0,75,0.00,,---,0.00,VWS V14.01,2013-03-30 11:44:00,
2013-03-30 07:45:00,35.4,28.0,29.88,NNE,22,0.0,0.0,74,0.00,,---,0.00,VWS V14.01,2013-03-30 11:45:00,
2013-03-30 07:46:00,35.4,28.0,29.88,NNE,22,0.0,0.0,74,0.00,,---,0.00,VWS V14.01,2013-03-30 11:46:00,
2013-03-30 07:47:00,35.4,28.0,29.88,NNE,22,0.0,0.0,74,0.00,,---,0.00,VWS V14.01,2013-03-30 11:47:00,
2013-03-30 07:48:00,35.4,28.0,29.88,NNE,22,0.0,0.0,74,0.00,,---,0.00,VWS V14.01,2013-03-30 11:48:00,
2013-03-30 07:49:00,35.4,28.0,29.88,NNE,22,0.0,0.0,74,0.00,,---,0.00,VWS V14.01,2013-03-30 11:49:00,
2013-03-30 07:50:00,35.4,28.3,29.88,NNE,22,0.0,0.0,75,0.00,,---,0.00,VWS V14.01,2013-03-30 11:50:00,
2013-03-30 07:51:00,35.4,28.0,29.88,NNE,22,0.0,0.0,74,0.00,,---,0.00,VWS V14.01,2013-03-30 11:51:00,
2013-03-30 07:52:00,35.2,28.1,29.88,NNE,22,0.0,0.0,75,0.00,,---,0.00,VWS V14.01,2013-03-30 11:52:00,
2013-03-30 07:53:00,35.4,28.0,29.88,NNE,22,0.0,0.0,74,0.00,,---,0.00,VWS V14.01,2013-03-30 11:53:00,
2013-03-30 07:54:00,35.2,28.1,29.91,NNE,22,0.0,0.0,75,0.00,,---,0.00,VWS V14.01,2013-03-30 11:54:00,
2013-03-30 07:55:00,35.4,28.0,29.88,NNE,22,0.0,0.0,74,0.00,,---,0.00,VWS V14.01,2013-03-30 11:55:00,
2013-03-30 07:56:00,35.2,28.1,29.91,NNE,22,0.0,0.0,75,0.00,,---,0.00,VWS V14.01,2013-03-30 11:56:00,
2013-03-30 07:57:00,35.2,28.1,29.88,NNE,22,0.0,0.0,75,0.00,,---,0.00,VWS V14.01,2013-03-30 11:57:00,
2013-03-30 07:58:00,35.2,28.1,29.91,NNE,22,0.0,0.0,75,0.00,,---,0.00,VWS V14.01,2013-03-30 11:58:00,
2013-03-30 07:59:00,35.1,28.0,29.91,NNE,22,0.0,0.0,75,0.00,,---,0.00,VWS V14.01,2013-03-30 11:59:00,
2013-03-30 08:00:00,35.2,28.1,29.91,NNE,22,0.0,0.0,75,0.00,,---,0.00,VWS V14.01,2013-03-30 12:00:00,
2013-03-30 08:01:00,35.2,28.1,29.91,NNE,22,0.0,0.0,75,0.00,,---,0.00,VWS V14.01,2013-03-30 12:01:00,
2013-03-30 08:02:00,35.2,28.1,29.91,NNE,22,0.0,0.0,75,0.00,,---,0.00,VWS V14.01,2013-03-30 12:02:00,
2013-03-30 08:03:00,35.2,28.1,29.91,NNE,22,0.0,0.0,75,0.00,,---,0.00,VWS V14.01,2013-03-30 12:03:00,
2013-03-30 08:04:00,35.1,28.0,29.91,NNE,22,0.0,0.0,75,0.00,,---,0.00,VWS V14.01,2013-03-30 12:04:00,
2013-03-30 08:05:00,35.1,28.0,29.91,NNE,22,0.0,0.0,75,0.00,,---,0.00,VWS V14.01,2013-03-30 12:05:00,
2013-03-30 08:06:00,35.1,28.0,29.91,NNE,22,0.0,0.0,75,0.00,,---,0.00,VWS V14.01,2013-03-30 12:06:00,
2013-03-30 08:07:00,35.1,28.0,29.91,NNE,22,0.0,0.0,75,0.00,,---,0.00,VWS V14.01,2013-03-30 12:07:00,
2013-03-30 08:08:00,35.1,28.0,29.91,NNE,22,0.0,0.0,75,0.00,,---,0.00,VWS V14.01,2013-03-30 12:08:00,
2013-03-30 08:09:00,35.1,28.3,29.94,NNE,22,0.0,0.0,76,0.00,,---,0.00,VWS V14.01,2013-03-30 12:09:00,
2013-03-30 08:10:00,35.1,28.0,29.91,NNE,22,0.0,0.0,75,0.00,,---,0.00,VWS V14.01,2013-03-30 12:10:00,
2013-03-30 08:11:00,35.1,28.3,29.94,NNE,22,0.0,0.0,76,0.00,,---,0.00,VWS V14.01,2013-03-30 12:11:00,
2013-03-30 08:12:00,35.1,28.3,29.94,NNE,22,0.0,0.0,76,0.00,,---,0.00,VWS V14.01,2013-03-30 12:12:00,
2013-03-30 08:13:00,35.1,28.3,29.91,NNE,22,0.0,0.0,76,0.00,,---,0.00,VWS V14.01,2013-03-30 12:13:00,
2013-03-30 08:14:00,35.1,28.3,29.91,NNE,22,0.0,0.0,76,0.00,,---,0.00,VWS V14.01,2013-03-30 12:14:00,
2013-03-30 08:15:00,35.2,28.5,29.94,NNE,22,0.0,0.0,76,0.00,,---,0.00,VWS V14.01,2013-03-30 12:15:00,
2013-03-30 08:16:00,35.1,28.3,29.94,NNE,22,0.0,0.0,76,0.00,,---,0.00,VWS V14.01,2013-03-30 12:16:00,
2013-03-30 08:17:00,35.2,28.5,29.94,NNE,22,0.0,0.0,76,0.00,,---,0.00,VWS V14.01,2013-03-30 12:17:00,
2013-03-30 08:18:00,35.1,28.3,29.94,NNE,22,0.0,0.0,76,0.00,,---,0.00,VWS V14.01,2013-03-30 12:18:00,
2013-03-30 08:19:00,35.2,28.5,29.94,NNE,22,0.0,0.0,76,0.00,,---,0.00,VWS V14.01,2013-03-30 12:19:00,
2013-03-30 08:21:00,35.2,28.5,29.94,NNE,22,0.0,0.0,76,0.00,,---,0.00,VWS V14.01,2013-03-30 12:21:00,
2013-03-30 08:22:00,35.4,28.6,29.94,NNE,22,0.0,0.0,76,0.00,,---,0.00,VWS V14.01,2013-03-30 12:22:00,
2013-03-30 08:23:00,35.4,28.6,29.94,NNE,22,0.0,0.0,76,0.00,,---,0.00,VWS V14.01,2013-03-30 12:23:00,
2013-03-30 08:24:00,35.2,28.5,29.94,NNE,22,0.0,0.0,76,0.00,,---,0.00,VWS V14.01,2013-03-30 12:24:00,
2013-03-30 08:25:00,35.2,28.5,29.94,NNE,22,0.0,0.0,76,0.00,,---,0.00,VWS V14.01,2013-03-30 12:25:00,
2013-03-30 08:26:00,35.6,28.8,29.94,NNE,22,0.0,0.0,76,0.00,,---,0.00,VWS V14.01,2013-03-30 12:26:00,
2013-03-30 08:27:00,35.4,28.6,29.94,NNE,22,0.0,0.0,76,0.00,,---,0.00,VWS V14.01,2013-03-30 12:27:00,
2013-03-30 08:28:00,35.6,28.8,29.94,NNE,22,0.0,0.0,76,0.00,,---,0.00,VWS V14.01,2013-03-30 12:28:00,
2013-03-30 08:29:00,35.4,28.6,29.94,NNE,22,0.0,0.0,76,0.00,,---,0.00,VWS V14.01,2013-03-30 12:29:00,
2013-03-30 08:30:00,35.8,29.3,29.94,NNE,22,0.0,0.0,77,0.00,,---,0.00,VWS V14.01,2013-03-30 12:30:00,
2013-03-30 08:31:00,35.4,28.6,29.94,NNE,22,0.0,0.0,76,0.00,,---,0.00,VWS V14.01,2013-03-30 12:31:00,
2013-03-30 08:32:00,35.8,29.6,29.94,NNE,22,0.0,0.0,78,0.00,,---,0.00,VWS V14.01,2013-03-30 12:32:00,
2013-03-30 08:33:00,36.0,29.8,29.94,NNE,22,0.0,0.0,78,0.00,,---,0.00,VWS V14.01,2013-03-30 12:33:00,
2013-03-30 08:34:00,36.0,29.8,29.94,NNE,22,0.0,0.0,78,0.00,,---,0.00,VWS V14.01,2013-03-30 12:34:00,
2013-03-30 08:35:00,35.8,29.3,29.94,NNE,22,0.0,0.0,77,0.00,,---,0.00,VWS V14.01,2013-03-30 12:35:00,
2013-03-30 08:36:00,36.0,29.8,29.94,NNE,22,0.0,0.0,78,0.00,,---,0.00,VWS V14.01,2013-03-30 12:36:00,
2013-03-30 08:37:00,35.8,29.6,29.94,NNE,22,0.0,0.0,78,0.00,,---,0.00,VWS V14.01,2013-03-30 12:37:00,
2013-03-30 08:38:00,35.8,29.6,29.94,NNE,22,0.0,0.0,78,0.00,,---,0.00,VWS V14.01,2013-03-30 12:38:00,
2013-03-30 08:39:00,36.3,29.8,29.91,NNE,22,0.0,0.0,77,0.00,,---,0.00,VWS V14.01,2013-03-30 12:39:00,
2013-03-30 08:40:00,36.0,29.8,29.94,NNE,22,0.0,0.0,78,0.00,,---,0.00,VWS V14.01,2013-03-30 12:40:00,
2013-03-30 08:41:00,36.5,30.0,29.91,NNE,22,0.0,0.0,77,0.00,,---,0.00,VWS V14.01,2013-03-30 12:41:00,
2013-03-30 08:42:00,36.0,29.8,29.94,NNE,22,0.0,0.0,78,0.00,,---,0.00,VWS V14.01,2013-03-30 12:42:00,
2013-03-30 08:43:00,36.5,30.0,29.91,NNE,22,0.0,0.0,77,0.00,,---,0.00,VWS V14.01,2013-03-30 12:43:00,
2013-03-30 08:44:00,36.7,30.2,29.91,NNE,22,0.0,0.0,77,0.00,,---,0.00,VWS V14.01,2013-03-30 12:44:00,
2013-03-30 08:45:00,36.3,29.8,29.91,NNE,22,0.0,0.0,77,0.00,,---,0.00,VWS V14.01,2013-03-30 12:45:00,
2013-03-30 08:46:00,36.9,30.3,29.91,NNE,22,0.0,0.0,77,0.00,,---,0.00,VWS V14.01,2013-03-30 12:46:00,
2013-03-30 08:47:00,36.5,30.0,29.91,NNE,22,0.0,0.0,77,0.00,,---,0.00,VWS V14.01,2013-03-30 12:47:00,
2013-03-30 08:48:00,36.5,30.0,29.91,NNE,22,0.0,0.0,77,0.00,,---,0.00,VWS V14.01,2013-03-30 12:48:00,
2013-03-30 08:49:00,37.0,30.8,29.91,NNE,22,0.0,0.0,78,0.00,,---,0.00,VWS V14.01,2013-03-30 12:49:00,
2013-03-30 08:50:00,36.7,30.2,29.91,NNE,22,0.0,0.0,77,0.00,,---,0.00,VWS V14.01,2013-03-30 12:50:00,
2013-03-30 08:51:00,37.4,31.2,29.91,NNE,22,0.0,0.0,78,0.00,,---,0.00,VWS V14.01,2013-03-30 12:51:00,
2013-03-30 08:52:00,37.4,31.2,29.91,NNE,22,0.0,0.0,78,0.00,,---,0.00,VWS V14.01,2013-03-30 12:52:00,
2013-03-30 08:53:00,37.6,31.0,29.91,NNE,22,0.0,0.0,77,0.00,,---,0.00,VWS V14.01,2013-03-30 12:53:00,
2013-03-30 08:54:00,37.0,30.8,29.91,NNE,22,0.0,0.0,78,0.00,,---,0.00,VWS V14.01,2013-03-30 12:54:00,
2013-03-30 08:55:00,37.0,30.8,29.91,NNE,22,0.0,0.0,78,0.00,,---,0.00,VWS V14.01,2013-03-30 12:55:00,
2013-03-30 08:56:00,37.2,31.0,29.91,NNE,22,0.0,0.0,78,0.00,,---,0.00,VWS V14.01,2013-03-30 12:56:00,
2013-03-30 08:57:00,37.8,31.2,29.91,NNE,22,0.0,0.0,77,0.00,,---,0.00,VWS V14.01,2013-03-30 12:57:00,
2013-03-30 08:58:00,37.4,31.2,29.91,NNE,22,0.0,0.0,78,0.00,,---,0.00,VWS V14.01,2013-03-30 12:58:00,
2013-03-30 08:59:00,38.1,31.6,29.91,NNE,22,0.0,0.0,77,0.00,,---,0.00,VWS V14.01,2013-03-30 12:59:00,
2013-03-30 09:00:00,37.6,31.0,29.91,NNE,22,0.0,0.0,77,0.00,,---,0.00,VWS V14.01,2013-03-30 13:00:00,
2013-03-30 09:01:00,37.8,31.2,29.91,NNE,22,0.0,0.0,77,0.00,,---,0.00,VWS V14.01,2013-03-30 13:01:00,
2013-03-30 09:02:00,37.8,31.2,29.91,NNE,22,0.0,0.0,77,0.00,,---,0.00,VWS V14.01,2013-03-30 13:02:00,
2013-03-30 09:03:00,37.8,31.2,29.91,NNE,22,0.0,0.0,77,0.00,,---,0.00,VWS V14.01,2013-03-30 13:03:00,
2013-03-30 09:04:00,38.7,32.1,29.91,NNE,22,0.0,0.0,77,0.00,,---,0.00,VWS V14.01,2013-03-30 13:04:00,
2013-03-30 09:05:00,38.7,32.4,29.91,NNE,22,0.0,0.0,78,0.00,,---,0.00,VWS V14.01,2013-03-30 13:05:00,
2013-03-30 09:06:00,38.8,32.6,29.91,NNE,22,0.0,0.0,78,0.00,,---,0.00,VWS V14.01,2013-03-30 13:06:00,
2013-03-30 09:07:00,38.3,31.7,29.91,NNE,22,0.0,0.0,77,0.00,,---,0.00,VWS V14.01,2013-03-30 13:07:00,
2013-03-30 09:08:00,38.5,31.9,29.91,NNE,22,0.0,0.0,77,0.00,,---,0.00,VWS V14.01,2013-03-30 13:08:00,
2013-03-30 09:09:00,38.5,31.9,29.91,NNE,22,0.0,0.0,77,0.00,,---,0.00,VWS V14.01,2013-03-30 13:09:00,
2013-03-30 09:10:00,39.2,32.6,29.94,North,0,0.0,0.0,77,0.00,,---,0.00,VWS V14.01,2013-03-30 13:10:00,
2013-03-30 09:11:00,39.2,32.6,29.94,North,0,0.0,0.0,77,0.00,,---,0.00,VWS V14.01,2013-03-30 13:11:00,
2013-03-30 09:12:00,38.8,32.6,29.91,NNE,22,0.0,0.0,78,0.00,,---,0.00,VWS V14.01,2013-03-30 13:12:00,
2013-03-30 09:13:00,39.0,32.8,29.91,North,0,0.0,0.0,78,0.00,,---,0.00,VWS V14.01,2013-03-30 13:13:00,
2013-03-30 09:14:00,39.0,32.8,29.91,North,0,0.0,0.0,78,0.00,,---,0.00,VWS V14.01,2013-03-30 13:14:00,
2013-03-30 09:16:00,39.7,33.1,29.94,NNW,338,0.0,0.0,77,0.00,,---,0.00,VWS V14.01,2013-03-30 13:16:00,
2013-03-30 09:17:00,39.9,33.3,29.94,NNW,338,0.0,0.0,77,0.00,,---,0.00,VWS V14.01,2013-03-30 13:17:00,
2013-03-30 09:18:00,39.4,33.1,29.94,NNW,338,0.0,0.0,78,0.00,,---,0.00,VWS V14.01,2013-03-30 13:18:00,
2013-03-30 09:19:00,39.9,33.3,29.94,NNW,338,0.0,0.0,77,0.00,,---,0.00,VWS V14.01,2013-03-30 13:19:00,
2013-03-30 09:20:00,39.6,33.0,29.94,NNW,338,0.0,0.0,77,0.00,,---,0.00,VWS V14.01,2013-03-30 13:20:00,
2013-03-30 09:21:00,39.6,33.0,29.94,NNW,338,0.0,0.0,77,0.00,,---,0.00,VWS V14.01,2013-03-30 13:21:00,
2013-03-30 09:22:00,40.1,33.2,29.94,NNW,338,0.0,0.0,76,0.00,,---,0.00,VWS V14.01,2013-03-30 13:22:00,
2013-03-30 09:23:00,39.9,33.3,29.94,NNW,338,0.0,0.0,77,0.00,,---,0.00,VWS V14.01,2013-03-30 13:23:00,
2013-03-30 09:24:00,40.5,33.5,29.94,NNW,338,0.0,0.0,76,0.00,,---,0.00,VWS V14.01,2013-03-30 13:24:00,
2013-03-30 09:25:00,39.9,33.3,29.94,NNW,338,0.0,0.0,77,0.00,,---,0.00,VWS V14.01,2013-03-30 13:25:00,
2013-03-30 09:27:00,40.1,33.2,29.94,NNW,338,0.0,0.0,76,0.00,,---,0.00,VWS V14.01,2013-03-30 13:27:00,
2013-03-30 09:28:00,41.0,33.4,29.94,NNW,338,0.0,0.0,74,0.00,,---,0.00,VWS V14.01,2013-03-30 13:28:00,
2013-03-30 09:30:00,41.4,33.7,29.94,NNW,338,0.0,0.0,74,0.00,,---,0.00,VWS V14.01,2013-03-30 13:30:00,
2013-03-30 09:31:00,40.6,33.3,29.94,NNW,338,0.0,0.0,75,0.00,,---,0.00,VWS V14.01,2013-03-30 13:31:00,
2013-03-30 09:32:00,40.8,33.5,29.94,NNW,338,0.0,0.0,75,0.00,,---,0.00,VWS V14.01,2013-03-30 13:32:00,
2013-03-30 09:33:00,41.5,33.9,29.94,NNW,338,0.0,0.0,74,0.00,,---,0.00,VWS V14.01,2013-03-30 13:33:00,
2013-03-30 09:34:00,41.0,33.4,29.94,NNW,338,0.0,0.0,74,0.00,,---,0.00,VWS V14.01,2013-03-30 13:34:00,
2013-03-30 09:35:00,41.7,34.1,29.94,NNW,338,0.0,0.0,74,0.00,,---,0.00,VWS V14.01,2013-03-30 13:35:00,
2013-03-30 09:36:00,41.9,33.9,29.94,NNW,338,0.0,0.0,73,0.00,,---,0.00,VWS V14.01,2013-03-30 13:36:00,
2013-03-30 09:37:00,41.5,34.2,29.94,NNW,338,0.0,0.0,75,0.00,,---,0.00,VWS V14.01,2013-03-30 13:37:00,
2013-03-30 09:38:00,41.5,33.9,29.94,NNW,338,0.0,0.0,74,0.00,,---,0.00,VWS V14.01,2013-03-30 13:38:00,
2013-03-30 09:39:00,42.4,34.4,29.94,NNW,338,0.0,0.0,73,0.00,,---,0.00,VWS V14.01,2013-03-30 13:39:00,
2013-03-30 09:40:00,41.7,34.1,29.94,NNW,338,0.0,0.0,74,0.00,,---,0.00,VWS V14.01,2013-03-30 13:40:00,
2013-03-30 09:41:00,41.7,34.1,29.94,NNW,338,0.0,0.0,74,0.00,,---,0.00,VWS V14.01,2013-03-30 13:41:00,
2013-03-30 09:42:00,42.8,34.4,29.94,NNW,338,0.0,0.0,72,0.00,,---,0.00,VWS V14.01,2013-03-30 13:42:00,
2013-03-30 09:43:00,43.0,34.2,29.94,NNW,338,0.0,0.0,71,0.00,,---,0.00,VWS V14.01,2013-03-30 13:43:00,
2013-03-30 09:44:00,43.3,33.5,29.94,NNW,338,0.0,0.0,68,0.00,,---,0.00,VWS V14.01,2013-03-30 13:44:00,
2013-03-30 09:45:00,42.4,34.4,29.94,NNW,338,0.0,0.0,73,0.00,,---,0.00,VWS V14.01,2013-03-30 13:45:00,
2013-03-30 09:46:00,42.4,34.1,29.94,NNW,338,0.0,0.0,72,0.00,,---,0.00,VWS V14.01,2013-03-30 13:46:00,
2013-03-30 09:47:00,42.4,34.1,29.94,NNW,338,0.0,0.0,72,0.00,,---,0.00,VWS V14.01,2013-03-30 13:47:00,
2013-03-30 09:48:00,43.5,34.0,29.94,NE,45,0.0,0.0,69,0.00,,---,0.00,VWS V14.01,2013-03-30 13:48:00,
2013-03-30 09:49:00,44.2,34.0,29.94,NE,45,0.0,0.0,67,0.00,,---,0.00,VWS V14.01,2013-03-30 13:49:00,
2013-03-30 09:50:00,44.4,34.2,29.94,North,0,0.0,0.0,67,0.00,,---,0.00,VWS V14.01,2013-03-30 13:50:00,
2013-03-30 09:51:00,43.5,34.0,29.94,NNW,338,0.0,0.0,69,0.00,,---,0.00,VWS V14.01,2013-03-30 13:51:00,
2013-03-30 09:52:00,43.5,34.0,29.94,NNW,338,0.0,0.0,69,0.00,,---,0.00,VWS V14.01,2013-03-30 13:52:00,
2013-03-30 09:53:00,43.5,34.0,29.94,NE,45,0.0,0.0,69,0.00,,---,0.00,VWS V14.01,2013-03-30 13:53:00,
2013-03-30 09:54:00,43.5,34.0,29.94,NE,45,0.0,0.0,69,0.00,,---,0.00,VWS V14.01,2013-03-30 13:54:00,
2013-03-30 09:55:00,45.5,33.7,29.94,North,0,0.2,0.0,63,0.00,,---,0.00,VWS V14.01,2013-03-30 13:55:00,
2013-03-30 09:56:00,46.0,35.0,29.94,NE,45,0.2,0.0,65,0.00,,---,0.00,VWS V14.01,2013-03-30 13:56:00,
2013-03-30 09:57:00,44.6,34.0,29.94,NNW,338,0.0,0.0,66,0.00,,---,0.00,VWS V14.01,2013-03-30 13:57:00,
2013-03-30 09:58:00,45.1,33.7,29.94,NNW,338,0.0,0.0,64,0.00,,---,0.00,VWS V14.01,2013-03-30 13:58:00,
2013-03-30 09:59:00,45.3,33.5,29.94,NNW,338,0.5,2.5,63,0.00,,---,0.00,VWS V14.01,2013-03-30 13:59:00,
2013-03-30 10:00:00,45.5,33.7,29.94,NNW,338,0.2,2.5,63,0.00,,---,0.00,VWS V14.01,2013-03-30 14:00:00,
2013-03-30 10:01:00,46.8,34.8,29.94,NE,45,0.2,0.0,63,0.00,,---,0.00,VWS V14.01,2013-03-30 14:01:00,
2013-03-30 10:02:00,46.0,35.0,29.94,NE,45,0.2,0.0,65,0.00,,---,0.00,VWS V14.01,2013-03-30 14:02:00,
2013-03-30 10:03:00,46.9,34.6,29.94,NE,45,0.2,0.0,62,0.00,,---,0.00,VWS V14.01,2013-03-30 14:03:00,
2013-03-30 10:04:00,47.1,34.8,29.94,NE,45,0.2,0.0,62,0.00,,---,0.00,VWS V14.01,2013-03-30 14:04:00,
2013-03-30 10:06:00,47.3,33.3,29.94,NNW,338,0.2,1.3,58,0.00,,---,0.00,VWS V14.01,2013-03-30 14:06:00,
2013-03-30 10:07:00,46.8,34.8,29.94,NE,45,0.2,0.0,63,0.00,,---,0.00,VWS V14.01,2013-03-30 14:07:00,
2013-03-30 10:08:00,47.3,33.3,29.94,NNW,338,0.2,0.0,58,0.00,,---,0.00,VWS V14.01,2013-03-30 14:08:00,
2013-03-30 10:09:00,46.9,34.6,29.94,NE,45,0.2,0.0,62,0.00,,---,0.00,VWS V14.01,2013-03-30 14:09:00,
2013-03-30 10:10:00,47.1,34.8,29.94,NE,45,0.2,0.0,62,0.00,,---,0.00,VWS V14.01,2013-03-30 14:10:00,
2013-03-30 10:11:00,47.3,35.0,29.94,NNW,338,0.2,1.3,62,0.00,,---,0.00,VWS V14.01,2013-03-30 14:11:00,
2013-03-30 10:12:00,48.0,33.5,29.91,NNW,338,0.2,0.0,57,0.00,,---,0.00,VWS V14.01,2013-03-30 14:12:00,
2013-03-30 10:13:00,48.0,34.0,29.91,NNW,338,0.2,2.2,58,0.00,,---,0.00,VWS V14.01,2013-03-30 14:13:00,
2013-03-30 10:14:00,47.7,32.8,29.94,NNW,338,0.2,0.0,56,0.00,,---,0.00,VWS V14.01,2013-03-30 14:14:00,
2013-03-30 10:15:00,48.4,34.7,29.91,NW,315,0.2,1.3,59,0.00,,---,0.00,VWS V14.01,2013-03-30 14:15:00,
2013-03-30 10:16:00,47.8,33.4,29.91,NNW,338,0.2,0.0,57,0.00,,---,0.00,VWS V14.01,2013-03-30 14:16:00,
2013-03-30 10:17:00,47.8,32.9,29.91,NNW,338,0.2,0.0,56,0.00,,---,0.00,VWS V14.01,2013-03-30 14:17:00,
2013-03-30 10:18:00,48.0,33.5,29.91,NNW,338,0.2,0.0,57,0.00,,---,0.00,VWS V14.01,2013-03-30 14:18:00,
2013-03-30 10:19:00,48.7,31.0,29.91,NNW,338,0.7,3.1,50,0.00,,---,0.00,VWS V14.01,2013-03-30 14:19:00,
2013-03-30 10:20:00,48.9,31.6,29.91,NNW,338,0.0,2.7,51,0.00,,---,0.00,VWS V14.01,2013-03-30 14:20:00,
2013-03-30 10:21:00,48.4,34.7,29.91,NW,315,0.2,1.3,59,0.00,,---,0.00,VWS V14.01,2013-03-30 14:21:00,
2013-03-30 10:22:00,48.6,34.0,29.91,NW,315,0.2,1.6,57,0.00,,---,0.00,VWS V14.01,2013-03-30 14:22:00,
2013-03-30 10:23:00,48.7,31.9,29.91,NE,45,0.2,2.7,52,0.00,,---,0.00,VWS V14.01,2013-03-30 14:23:00,
2013-03-30 10:24:00,49.1,32.2,29.91,ESE,112,0.0,0.0,52,0.00,,---,0.00,VWS V14.01,2013-03-30 14:24:00,
2013-03-30 10:25:00,48.7,31.0,29.91,NNW,338,0.7,3.1,50,0.00,,---,0.00,VWS V14.01,2013-03-30 14:25:00,
2013-03-30 10:26:00,48.9,31.6,29.91,NNW,338,0.0,2.7,51,0.00,,---,0.00,VWS V14.01,2013-03-30 14:26:00,
2013-03-30 10:28:00,50.0,31.1,29.91,NNE,22,0.0,2.7,48,0.00,,---,0.00,VWS V14.01,2013-03-30 14:28:00,
2013-03-30 10:29:00,50.0,31.1,29.91,WNW,292,0.5,2.5,48,0.00,,---,0.00,VWS V14.01,2013-03-30 14:29:00,
2013-03-30 10:30:00,49.1,32.2,29.91,SSE,158,0.0,1.1,52,0.00,,---,0.00,VWS V14.01,2013-03-30 14:30:00,
2013-03-30 10:31:00,49.6,32.3,29.91,SSE,158,0.0,1.1,51,0.00,,---,0.00,VWS V14.01,2013-03-30 14:31:00,
2013-03-30 10:32:00,50.2,31.3,29.91,NE,45,0.0,2.5,48,0.00,,---,0.00,VWS V14.01,2013-03-30 14:32:00,
2013-03-30 10:33:00,49.8,31.9,29.91,NNW,338,0.7,2.7,50,0.00,,---,0.00,VWS V14.01,2013-03-30 14:33:00,
2013-03-30 10:34:00,50.4,30.9,29.91,SSE,158,0.0,1.6,47,0.00,,---,0.00,VWS V14.01,2013-03-30 14:34:00,
2013-03-30 10:35:00,50.4,30.9,29.91,South,180,1.1,3.4,47,0.00,,---,0.00,VWS V14.01,2013-03-30 14:35:00,
2013-03-30 10:36:00,50.2,30.8,29.91,West,270,0.0,2.7,47,0.00,,---,0.00,VWS V14.01,2013-03-30 14:36:00,
2013-03-30 10:37:00,50.2,31.3,29.91,NE,45,0.0,2.5,48,0.00,,---,0.00,VWS V14.01,2013-03-30 14:37:00,
2013-03-30 10:38:00,50.7,31.2,29.91,SE,135,0.9,2.9,47,0.00,,---,0.00,VWS V14.01,2013-03-30 14:38:00,
2013-03-30 10:39:00,50.4,30.9,29.91,WSW,248,0.0,1.6,47,0.00,,---,0.00,VWS V14.01,2013-03-30 14:39:00,
2013-03-30 10:40:00,50.4,30.9,29.91,SSE,158,0.0,1.6,47,0.00,,---,0.00,VWS V14.01,2013-03-30 14:40:00,
2013-03-30 10:41:00,50.4,30.9,29.91,South,180,1.1,3.4,47,0.00,,---,0.00,VWS V14.01,2013-03-30 14:41:00,
2013-03-30 10:42:00,51.3,30.1,29.91,NE,45,0.5,2.7,44,0.00,,---,0.00,VWS V14.01,2013-03-30 14:42:00,
2013-03-30 10:43:00,51.4,31.4,29.91,NE,45,0.0,2.0,46,0.00,,---,0.00,VWS V14.01,2013-03-30 14:43:00,
2013-03-30 10:44:00,50.7,31.2,29.91,SE,135,0.9,2.9,47,0.00,,---,0.00,VWS V14.01,2013-03-30 14:44:00,
2013-03-30 10:45:00,51.8,30.0,29.91,North,0,0.5,2.5,43,0.00,,---,0.00,VWS V14.01,2013-03-30 14:45:00,
2013-03-30 10:46:00,50.9,30.9,29.91,NNW,338,0.0,3.8,46,0.00,,---,0.00,VWS V14.01,2013-03-30 14:46:00,
2013-03-30 10:47:00,52.0,29.0,29.91,North,0,1.4,3.4,41,0.00,,---,0.00,VWS V14.01,2013-03-30 14:47:00,
2013-03-30 10:48:00,51.3,30.1,29.91,NE,45,0.5,2.7,44,0.00,,---,0.00,VWS V14.01,2013-03-30 14:48:00,
2013-03-30 10:49:00,52.2,30.9,29.91,North,0,0.5,0.0,44,0.00,,---,0.00,VWS V14.01,2013-03-30 14:49:00,
2013-03-30 10:50:00,52.3,31.1,29.91,SSE,158,0.5,2.5,44,0.00,,---,0.00,VWS V14.01,2013-03-30 14:50:00,
2013-03-30 10:51:00,51.8,30.0,29.91,North,0,0.5,2.5,43,0.00,,---,0.00,VWS V14.01,2013-03-30 14:51:00,
2013-03-30 10:52:00,51.8,30.0,29.91,ESE,112,0.0,2.9,43,0.00,,---,0.00,VWS V14.01,2013-03-30 14:52:00,
2013-03-30 10:53:00,52.9,29.8,29.91,WNW,292,0.0,2.0,41,0.00,,---,0.00,VWS V14.01,2013-03-30 14:53:00,
2013-03-30 10:54:00,52.2,30.4,29.91,North,0,0.5,3.4,43,0.00,,---,0.00,VWS V14.01,2013-03-30 14:54:00,
2013-03-30 10:55:00,52.2,30.9,29.91,North,0,0.5,0.0,44,0.00,,---,0.00,VWS V14.01,2013-03-30 14:55:00,
2013-03-30 10:56:00,53.2,29.6,29.91,NNW,338,0.5,4.0,40,0.00,,---,0.00,VWS V14.01,2013-03-30 14:56:00,
2013-03-30 10:57:00,53.4,29.1,29.91,NE,45,0.2,3.6,39,0.00,,---,0.00,VWS V14.01,2013-03-30 14:57:00,
2013-03-30 10:58:00,53.4,29.7,29.91,NW,315,2.0,4.0,40,0.00,,---,0.00,VWS V14.01,2013-03-30 14:58:00,
2013-03-30 10:59:00,52.9,29.8,29.91,WNW,292,0.0,2.0,41,0.00,,---,0.00,VWS V14.01,2013-03-30 14:59:00,
2013-03-30 11:00:00,53.1,30.6,29.91,WNW,292,0.0,0.0,42,0.00,,---,0.00,VWS V14.01,2013-03-30 15:00:00,
2013-03-30 11:01:00,53.2,29.6,29.91,SE,135,1.1,4.3,40,0.00,,---,0.00,VWS V14.01,2013-03-30 15:01:00,
2013-03-30 11:02:00,53.8,29.4,29.91,ESE,112,0.5,2.5,39,0.00,,---,0.00,VWS V14.01,2013-03-30 15:02:00,
2013-03-30 11:03:00,53.4,29.1,29.91,NE,45,0.2,3.6,39,0.00,,---,0.00,VWS V14.01,2013-03-30 15:03:00,
2013-03-30 11:04:00,54.0,29.6,29.91,NW,315,0.2,2.2,39,0.00,,---,0.00,VWS V14.01,2013-03-30 15:04:00,
2013-03-30 11:05:00,54.0,29.6,29.91,NNW,338,0.0,2.0,39,0.00,,---,0.00,VWS V14.01,2013-03-30 15:05:00,
2013-03-30 11:06:00,53.6,28.6,29.91,NNW,338,0.0,1.3,38,0.00,,---,0.00,VWS V14.01,2013-03-30 15:06:00,
2013-03-30 11:07:00,53.8,29.4,29.91,NNW,338,0.0,1.3,39,0.00,,---,0.00,VWS V14.01,2013-03-30 15:07:00,
2013-03-30 11:08:00,53.8,29.4,29.91,ESE,112,0.5,2.5,39,0.00,,---,0.00,VWS V14.01,2013-03-30 15:08:00,
2013-03-30 11:09:00,53.8,29.4,29.91,ENE,68,0.5,2.5,39,0.00,,---,0.00,VWS V14.01,2013-03-30 15:09:00,
2013-03-30 11:10:00,54.5,28.8,29.88,North,0,0.5,2.9,37,0.00,,---,0.00,VWS V14.01,2013-03-30 15:10:00,
2013-03-30 11:11:00,54.7,28.9,29.88,NNW,338,0.5,2.9,37,0.00,,---,0.00,VWS V14.01,2013-03-30 15:11:00,
2013-03-30 11:12:00,54.0,29.6,29.91,SW,225,0.0,2.2,39,0.00,,---,0.00,VWS V14.01,2013-03-30 15:12:00,
2013-03-30 11:13:00,54.3,29.3,29.91,NNE,22,0.5,2.7,38,0.00,,---,0.00,VWS V14.01,2013-03-30 15:13:00,
2013-03-30 11:14:00,54.3,29.3,29.91,NNE,22,0.5,0.9,38,0.00,,---,0.00,VWS V14.01,2013-03-30 15:14:00,
2013-03-30 11:15:00,54.9,29.8,29.88,NNE,22,0.0,2.0,38,0.00,,---,0.00,VWS V14.01,2013-03-30 15:15:00,
2013-03-30 11:16:00,54.5,28.8,29.88,North,0,0.5,2.9,37,0.00,,---,0.00,VWS V14.01,2013-03-30 15:16:00,
2013-03-30 11:17:00,54.7,28.9,29.88,NNW,338,0.5,2.9,37,0.00,,---,0.00,VWS V14.01,2013-03-30 15:17:00,
2013-03-30 11:18:00,55.0,29.9,29.88,North,0,0.0,1.3,38,0.00,,---,0.00,VWS V14.01,2013-03-30 15:18:00,
2013-03-30 11:19:00,55.2,30.1,29.88,SSE,158,0.0,2.0,38,0.00,,---,0.00,VWS V14.01,2013-03-30 15:19:00,
2013-03-30 11:20:00,54.9,29.1,29.88,NNE,22,0.5,1.6,37,0.00,,---,0.00,VWS V14.01,2013-03-30 15:20:00,
2013-03-30 11:21:00,54.9,29.8,29.88,NNE,22,0.0,2.0,38,0.00,,---,0.00,VWS V14.01,2013-03-30 15:21:00,
2013-03-30 11:22:00,55.0,29.9,29.88,NNW,338,0.0,2.0,38,0.00,,---,0.00,VWS V14.01,2013-03-30 15:22:00,
2013-03-30 11:23:00,55.6,29.7,29.88,NE,45,0.5,4.5,37,0.00,,---,0.00,VWS V14.01,2013-03-30 15:23:00,
2013-03-30 11:24:00,55.0,29.9,29.88,East,90,0.0,2.9,38,0.00,,---,0.00,VWS V14.01,2013-03-30 15:24:00,
2013-03-30 11:25:00,55.9,29.4,29.88,NNE,22,2.3,4.3,36,0.00,,---,0.00,VWS V14.01,2013-03-30 15:25:00,
2013-03-30 11:26:00,55.2,30.1,29.88,SSE,158,0.0,1.1,38,0.00,,---,0.00,VWS V14.01,2013-03-30 15:26:00,
2013-03-30 11:27:00,55.9,29.4,29.88,NNE,22,0.5,2.9,36,0.00,,---,0.00,VWS V14.01,2013-03-30 15:27:00,
2013-03-30 11:28:00,55.4,29.6,29.88,North,0,0.5,1.6,37,0.00,,---,0.00,VWS V14.01,2013-03-30 15:28:00,
2013-03-30 11:29:00,56.1,29.5,29.88,SW,225,2.7,4.7,36,0.00,,---,0.00,VWS V14.01,2013-03-30 15:29:00,
2013-03-30 11:30:00,56.1,29.5,29.88,NW,315,0.2,4.7,36,0.00,,---,0.00,VWS V14.01,2013-03-30 15:30:00,
2013-03-30 11:31:00,56.1,29.5,29.88,NNW,338,0.2,1.6,36,0.00,,---,0.00,VWS V14.01,2013-03-30 15:31:00,
2013-03-30 11:32:00,55.9,29.4,29.88,NNW,338,0.9,4.7,36,0.00,,---,0.00,VWS V14.01,2013-03-30 15:32:00,
2013-03-30 11:33:00,56.1,29.5,29.88,NNW,338,1.6,5.4,36,0.00,,---,0.00,VWS V14.01,2013-03-30 15:33:00,
2013-03-30 11:34:00,55.9,30.1,29.88,North,0,0.0,2.9,37,0.00,,---,0.00,VWS V14.01,2013-03-30 15:34:00,
2013-03-30 11:35:00,56.3,29.7,29.88,SE,135,1.1,3.1,36,0.00,,---,0.00,VWS V14.01,2013-03-30 15:35:00,
2013-03-30 11:36:00,56.1,29.5,29.88,NW,315,0.2,4.7,36,0.00,,---,0.00,VWS V14.01,2013-03-30 15:36:00,
2013-03-30 11:37:00,56.1,29.5,29.88,NNW,338,0.2,1.6,36,0.00,,---,0.00,VWS V14.01,2013-03-30 15:37:00,
2013-03-30 11:38:00,56.1,29.5,29.88,North,0,0.7,2.7,36,0.00,,---,0.00,VWS V14.01,2013-03-30 15:38:00,
2013-03-30 11:39:00,56.5,29.9,29.88,NE,45,0.7,2.7,36,0.00,,---,0.00,VWS V14.01,2013-03-30 15:39:00,
2013-03-30 11:40:00,56.3,29.7,29.88,East,90,0.2,3.6,36,0.00,,---,0.00,VWS V14.01,2013-03-30 15:40:00,
2013-03-30 11:41:00,56.3,29.7,29.88,SE,135,1.1,3.1,36,0.00,,---,0.00,VWS V14.01,2013-03-30 15:41:00,
2013-03-30 11:42:00,56.3,29.7,29.88,NNE,22,0.5,2.5,36,0.00,,---,0.00,VWS V14.01,2013-03-30 15:42:00,
2013-03-30 11:43:00,56.5,29.9,29.88,NNW,338,0.7,2.7,36,0.00,,---,0.00,VWS V14.01,2013-03-30 15:43:00,
2013-03-30 11:44:00,56.8,30.2,29.88,WNW,292,0.2,2.5,36,0.00,,---,0.00,VWS V14.01,2013-03-30 15:44:00,
2013-03-30 11:45:00,57.0,30.4,29.88,WSW,248,0.9,2.9,36,0.00,,---,0.00,VWS V14.01,2013-03-30 15:45:00,
2013-03-30 11:46:00,57.0,30.4,29.88,WSW,248,0.0,3.1,36,0.00,,---,0.00,VWS V14.01,2013-03-30 15:46:00,
2013-03-30 11:47:00,56.7,30.0,29.88,ENE,68,1.6,3.6,36,0.00,,---,0.00,VWS V14.01,2013-03-30 15:47:00,
2013-03-30 11:48:00,56.7,30.0,29.88,NW,315,1.6,3.6,36,0.00,,---,0.00,VWS V14.01,2013-03-30 15:48:00,
2013-03-30 11:49:00,57.0,30.4,29.88,NNW,338,0.9,3.8,36,0.00,,---,0.00,VWS V14.01,2013-03-30 15:49:00,
2013-03-30 11:50:00,57.2,29.8,29.88,NNW,338,2.0,4.0,35,0.00,,---,0.00,VWS V14.01,2013-03-30 15:50:00,
2013-03-30 11:51:00,57.0,30.4,29.88,WSW,248,0.9,2.9,36,0.00,,---,0.00,VWS V14.01,2013-03-30 15:51:00,
2013-03-30 11:52:00,57.0,30.4,29.88,WSW,248,0.0,3.1,36,0.00,,---,0.00,VWS V14.01,2013-03-30 15:52:00,
2013-03-30 11:53:00,57.2,29.8,29.88,North,0,0.7,2.7,35,0.00,,---,0.00,VWS V14.01,2013-03-30 15:53:00,
2013-03-30 11:54:00,57.0,30.4,29.88,NW,315,1.1,3.1,36,0.00,,---,0.00,VWS V14.01,2013-03-30 15:54:00,
2013-03-30 11:55:00,57.0,30.4,29.88,NNW,338,0.9,3.8,36,0.00,,---,0.00,VWS V14.01,2013-03-30 15:55:00,
2013-03-30 11:56:00,57.2,29.8,29.85,NW,315,0.0,3.4,35,0.00,,---,0.00,VWS V14.01,2013-03-30 15:56:00,
2013-03-30 11:57:00,57.2,29.8,29.88,WNW,292,0.0,4.0,35,0.00,,---,0.00,VWS V14.01,2013-03-30 15:57:00,
2013-03-30 11:58:00,57.2,29.8,29.88,NNE,22,0.2,2.5,35,0.00,,---,0.00,VWS V14.01,2013-03-30 15:58:00,
2013-03-30 11:59:00,57.2,29.8,29.85,NNW,338,2.7,4.7,35,0.00,,---,0.00,VWS V14.01,2013-03-30 15:59:00,
2013-03-30 12:00:00,57.2,29.8,29.85,NW,315,0.0,4.7,35,0.00,,---,0.00,VWS V14.01,2013-03-30 16:00:00,
2013-03-30 12:01:00,57.2,29.8,29.85,ENE,68,0.0,4.7,35,0.00,,---,0.00,VWS V14.01,2013-03-30 16:01:00,
2013-03-30 12:02:00,57.2,29.8,29.85,NW,315,0.0,3.4,35,0.00,,---,0.00,VWS V14.01,2013-03-30 16:02:00,
2013-03-30 12:03:00,57.2,29.8,29.85,NNW,338,0.7,3.4,35,0.00,,---,0.00,VWS V14.01,2013-03-30 16:03:00,
2013-03-30 12:04:00,57.7,30.3,29.85,NNW,338,0.7,2.7,35,0.00,,---,0.00,VWS V14.01,2013-03-30 16:04:00,
2013-03-30 12:05:00,57.2,29.8,29.85,NNW,338,2.7,4.7,35,0.00,,---,0.00,VWS V14.01,2013-03-30 16:05:00,
2013-03-30 12:06:00,57.2,29.8,29.85,NW,315,0.0,4.7,35,0.00,,---,0.00,VWS V14.01,2013-03-30 16:06:00,
2013-03-30 12:07:00,57.9,30.5,29.85,WNW,292,0.9,4.3,35,0.00,,---,0.00,VWS V14.01,2013-03-30 16:07:00,
2013-03-30 12:08:00,57.9,30.5,29.85,WNW,292,1.1,4.3,35,0.00,,---,0.00,VWS V14.01,2013-03-30 16:08:00,
2013-03-30 12:09:00,57.9,30.5,29.88,WSW,248,0.9,3.4,35,0.00,,---,0.00,VWS V14.01,2013-03-30 16:09:00,
2013-03-30 12:10:00,57.7,30.3,29.85,NNW,338,0.7,2.7,35,0.00,,---,0.00,VWS V14.01,2013-03-30 16:10:00,
2013-03-30 12:11:00,57.7,29.6,29.88,NW,315,2.0,4.0,34,0.00,,---,0.00,VWS V14.01,2013-03-30 16:11:00,
2013-03-30 12:12:00,57.9,30.5,29.85,NNW,338,2.3,4.3,35,0.00,,---,0.00,VWS V14.01,2013-03-30 16:12:00,
2013-03-30 12:13:00,57.9,30.5,29.85,WNW,292,0.9,4.3,35,0.00,,---,0.00,VWS V14.01,2013-03-30 16:13:00,
2013-03-30 12:14:00,57.6,30.1,29.88,WNW,292,0.7,2.7,35,0.00,,---,0.00,VWS V14.01,2013-03-30 16:14:00,
2013-03-30 12:15:00,57.9,30.5,29.88,WSW,248,0.9,3.4,35,0.00,,---,0.00,VWS V14.01,2013-03-30 16:15:00,
2013-03-30 12:16:00,57.9,30.5,29.88,West,270,0.5,3.1,35,0.00,,---,0.00,VWS V14.01,2013-03-30 16:16:00,
2013-03-30 12:17:00,57.7,29.6,29.88,NW,315,2.0,4.0,34,0.00,,---,0.00,VWS V14.01,2013-03-30 16:17:00,
2013-03-30 12:18:00,57.6,30.1,29.88,WNW,292,1.1,4.0,35,0.00,,---,0.00,VWS V14.01,2013-03-30 16:18:00,
2013-03-30 12:19:00,57.6,30.1,29.88,West,270,0.7,3.1,35,0.00,,---,0.00,VWS V14.01,2013-03-30 16:19:00,
2013-03-30 12:20:00,57.4,30.0,29.88,WNW,292,0.5,2.5,35,0.00,,---,0.00,VWS V14.01,2013-03-30 16:20:00,
2013-03-30 12:21:00,57.4,29.3,29.88,WNW,292,1.8,4.7,34,0.00,,---,0.00,VWS V14.01,2013-03-30 16:21:00,
2013-03-30 12:22:00,57.4,29.3,29.88,WNW,292,1.1,4.3,34,0.00,,---,0.00,VWS V14.01,2013-03-30 16:22:00,
2013-03-30 12:23:00,57.2,29.8,29.88,WNW,292,1.6,4.0,35,0.00,,---,0.00,VWS V14.01,2013-03-30 16:23:00,
2013-03-30 12:24:00,57.6,30.1,29.88,NW,315,0.2,2.7,35,0.00,,---,0.00,VWS V14.01,2013-03-30 16:24:00,
2013-03-30 12:25:00,57.4,30.0,29.88,WNW,292,0.5,2.5,35,0.00,,---,0.00,VWS V14.01,2013-03-30 16:25:00,
2013-03-30 12:26:00,57.6,29.4,29.88,WSW,248,0.9,5.6,34,0.00,,---,0.00,VWS V14.01,2013-03-30 16:26:00,
2013-03-30 12:27:00,57.7,28.9,29.88,West,270,0.2,3.4,33,0.00,,---,0.00,VWS V14.01,2013-03-30 16:27:00,
2013-03-30 12:28:00,57.4,29.3,29.88,WSW,248,0.2,3.4,34,0.00,,---,0.00,VWS V14.01,2013-03-30 16:28:00,
2013-03-30 12:29:00,57.4,30.0,29.88,WSW,248,0.2,1.1,35,0.00,,---,0.00,VWS V14.01,2013-03-30 16:29:00,
2013-03-30 12:30:00,57.9,29.0,29.88,ESE,112,0.0,2.5,33,0.00,,---,0.00,VWS V14.01,2013-03-30 16:30:00,
2013-03-30 12:32:00,58.1,29.2,29.88,WSW,248,0.9,2.9,33,0.00,,---,0.00,VWS V14.01,2013-03-30 16:32:00,
2013-03-30 12:33:00,57.7,28.9,29.88,West,270,0.2,3.4,33,0.00,,---,0.00,VWS V14.01,2013-03-30 16:33:00,
2013-03-30 12:34:00,57.7,28.9,29.88,WSW,248,0.0,2.5,33,0.00,,---,0.00,VWS V14.01,2013-03-30 16:34:00,
2013-03-30 12:35:00,58.1,29.9,29.88,WSW,248,0.7,2.7,34,0.00,,---,0.00,VWS V14.01,2013-03-30 16:35:00,
2013-03-30 12:36:00,58.1,29.9,29.88,West,270,1.1,3.4,34,0.00,,---,0.00,VWS V14.01,2013-03-30 16:36:00,
2013-03-30 12:37:00,58.1,29.9,29.88,ESE,112,0.2,3.1,34,0.00,,---,0.00,VWS V14.01,2013-03-30 16:37:00,
2013-03-30 12:38:00,58.1,29.2,29.88,WSW,248,0.9,2.9,33,0.00,,---,0.00,VWS V14.01,2013-03-30 16:38:00,
2013-03-30 12:39:00,58.1,29.2,29.85,WSW,248,0.9,3.4,33,0.00,,---,0.00,VWS V14.01,2013-03-30 16:39:00,
2013-03-30 12:40:00,57.9,29.0,29.88,West,270,0.7,3.6,33,0.00,,---,0.00,VWS V14.01,2013-03-30 16:40:00,
2013-03-30 12:41:00,58.1,29.9,29.88,WSW,248,0.7,2.7,34,0.00,,---,0.00,VWS V14.01,2013-03-30 16:41:00,
2013-03-30 12:42:00,58.1,29.9,29.88,West,270,1.1,3.4,34,0.00,,---,0.00,VWS V14.01,2013-03-30 16:42:00,
2013-03-30 12:43:00,58.3,29.3,29.85,WNW,292,0.7,2.9,33,0.00,,---,0.00,VWS V14.01,2013-03-30 16:43:00,
2013-03-30 12:44:00,58.5,30.2,29.85,NNW,338,0.7,2.7,34,0.00,,---,0.00,VWS V14.01,2013-03-30 16:44:00,
2013-03-30 12:45:00,58.5,30.2,29.85,NNW,338,1.1,3.6,34,0.00,,---,0.00,VWS V14.01,2013-03-30 16:45:00,
2013-03-30 12:46:00,58.8,30.5,29.85,NNW,338,0.5,3.1,34,0.00,,---,0.00,VWS V14.01,2013-03-30 16:46:00,
2013-03-30 12:47:00,58.1,29.2,29.85,NNW,338,0.0,4.3,33,0.00,,---,0.00,VWS V14.01,2013-03-30 16:47:00,
2013-03-30 12:48:00,58.1,29.9,29.85,NNW,338,0.0,3.4,34,0.00,,---,0.00,VWS V14.01,2013-03-30 16:48:00,
2013-03-30 12:49:00,59.0,29.2,29.85,WSW,248,1.1,3.1,32,0.00,,---,0.00,VWS V14.01,2013-03-30 16:49:00,
2013-03-30 12:50:00,58.5,30.2,29.85,NNW,338,0.7,2.7,34,0.00,,---,0.00,VWS V14.01,2013-03-30 16:50:00,
2013-03-30 12:51:00,58.8,29.0,29.85,WSW,248,0.7,3.1,32,0.00,,---,0.00,VWS V14.01,2013-03-30 16:51:00,
2013-03-30 12:52:00,58.8,30.5,29.85,NNW,338,0.5,3.1,34,0.00,,---,0.00,VWS V14.01,2013-03-30 16:52:00,
2013-03-30 12:53:00,59.0,30.0,29.85,NW,315,0.7,3.6,33,0.00,,---,0.00,VWS V14.01,2013-03-30 16:53:00,
2013-03-30 12:54:00,59.0,29.2,29.85,WSW,248,0.0,3.8,32,0.00,,---,0.00,VWS V14.01,2013-03-30 16:54:00,
2013-03-30 12:55:00,58.5,28.7,29.85,WSW,248,0.7,3.8,32,0.00,,---,0.00,VWS V14.01,2013-03-30 16:55:00,
2013-03-30 12:56:00,58.5,28.7,29.85,WSW,248,1.4,3.4,32,0.00,,---,0.00,VWS V14.01,2013-03-30 16:56:00,
2013-03-30 12:57:00,58.8,29.0,29.85,WSW,248,0.7,3.1,32,0.00,,---,0.00,VWS V14.01,2013-03-30 16:57:00,
2013-03-30 12:58:00,58.8,29.0,29.85,WNW,292,0.9,3.1,32,0.00,,---,0.00,VWS V14.01,2013-03-30 16:58:00,
2013-03-30 12:59:00,58.3,29.3,29.85,WNW,292,0.5,3.1,33,0.00,,---,0.00,VWS V14.01,2013-03-30 16:59:00,
2013-03-30 13:00:00,58.3,29.3,29.85,NE,45,0.0,3.1,33,0.00,,---,0.00,VWS V14.01,2013-03-30 17:00:00,
2013-03-30 13:01:00,58.5,28.7,29.85,WSW,248,0.7,3.8,32,0.00,,---,0.00,VWS V14.01,2013-03-30 17:01:00,
2013-03-30 13:02:00,58.5,28.7,29.85,WSW,248,1.4,3.4,32,0.00,,---,0.00,VWS V14.01,2013-03-30 17:02:00,
2013-03-30 13:03:00,58.3,28.6,29.85,WSW,248,1.1,3.6,32,0.00,,---,0.00,VWS V14.01,2013-03-30 17:03:00,
2013-03-30 13:04:00,58.3,28.6,29.85,WSW,248,1.1,3.8,32,0.00,,---,0.00,VWS V14.01,2013-03-30 17:04:00,
2013-03-30 13:05:00,58.3,28.6,29.85,WSW,248,1.4,3.4,32,0.00,,---,0.00,VWS V14.01,2013-03-30 17:05:00,
2013-03-30 13:06:00,58.3,29.3,29.85,NE,45,0.0,3.1,33,0.00,,---,0.00,VWS V14.01,2013-03-30 17:06:00,
2013-03-30 13:07:00,58.5,28.7,29.85,WSW,248,0.9,3.4,32,0.00,,---,0.00,VWS V14.01,2013-03-30 17:07:00,
2013-03-30 13:08:00,58.3,28.6,29.85,WSW,248,1.4,3.4,32,0.00,,---,0.00,VWS V14.01,2013-03-30 17:08:00,
2013-03-30 13:09:00,58.3,28.6,29.85,WSW,248,1.1,3.6,32,0.00,,---,0.00,VWS V14.01,2013-03-30 17:09:00,
2013-03-30 13:10:00,58.3,28.6,29.85,WSW,248,0.9,3.1,32,0.00,,---,0.00,VWS V14.01,2013-03-30 17:10:00,
2013-03-30 13:11:00,58.5,29.5,29.85,NNW,338,0.2,2.7,33,0.00,,---,0.00,VWS V14.01,2013-03-30 17:11:00,
2013-03-30 13:12:00,58.3,28.6,29.85,SW,225,1.4,3.4,32,0.00,,---,0.00,VWS V14.01,2013-03-30 17:12:00,
2013-03-30 13:13:00,58.3,28.6,29.85,WSW,248,1.4,3.4,32,0.00,,---,0.00,VWS V14.01,2013-03-30 17:13:00,
2013-03-30 13:14:00,58.1,28.4,29.85,West,270,1.4,3.4,32,0.00,,---,0.00,VWS V14.01,2013-03-30 17:14:00,
2013-03-30 13:15:00,59.0,29.2,29.85,West,270,0.5,3.8,32,0.00,,---,0.00,VWS V14.01,2013-03-30 17:15:00,
2013-03-30 13:16:00,59.0,29.2,29.85,WNW,292,0.0,3.6,32,0.00,,---,0.00,VWS V14.01,2013-03-30 17:16:00,
2013-03-30 13:17:00,59.2,30.1,29.85,NW,315,0.5,2.5,33,0.00,,---,0.00,VWS V14.01,2013-03-30 17:17:00,
2013-03-30 13:18:00,58.5,29.5,29.85,North,0,0.5,2.5,33,0.00,,---,0.00,VWS V14.01,2013-03-30 17:18:00,
2013-03-30 13:19:00,58.6,29.6,29.85,NW,315,1.4,3.4,33,0.00,,---,0.00,VWS V14.01,2013-03-30 17:19:00,
2013-03-30 13:20:00,59.4,30.3,29.85,NNW,338,0.7,3.4,33,0.00,,---,0.00,VWS V14.01,2013-03-30 17:20:00,
2013-03-30 13:21:00,59.0,29.2,29.85,West,270,0.5,3.8,32,0.00,,---,0.00,VWS V14.01,2013-03-30 17:21:00,
2013-03-30 13:22:00,59.7,31.3,29.85,WSW,248,1.6,3.6,34,0.00,,---,0.00,VWS V14.01,2013-03-30 17:22:00,
2013-03-30 13:23:00,59.9,30.8,29.85,SW,225,0.5,3.6,33,0.00,,---,0.00,VWS V14.01,2013-03-30 17:23:00,
2013-03-30 13:24:00,59.2,30.1,29.85,NNW,338,0.9,2.9,33,0.00,,---,0.00,VWS V14.01,2013-03-30 17:24:00,
2013-03-30 13:25:00,59.4,30.3,29.85,NNW,338,1.4,3.4,33,0.00,,---,0.00,VWS V14.01,2013-03-30 17:25:00,
2013-03-30 13:26:00,59.9,30.8,29.85,WNW,292,0.0,2.5,33,0.00,,---,0.00,VWS V14.01,2013-03-30 17:26:00,
2013-03-30 13:27:00,59.5,30.4,29.85,NW,315,1.1,3.1,33,0.00,,---,0.00,VWS V14.01,2013-03-30 17:27:00,
2013-03-30 13:28:00,59.7,31.3,29.85,WSW,248,1.6,3.6,34,0.00,,---,0.00,VWS V14.01,2013-03-30 17:28:00,
2013-03-30 13:29:00,59.9,30.0,29.85,NW,315,0.7,3.6,32,0.00,,---,0.00,VWS V14.01,2013-03-30 17:29:00,
2013-03-30 13:31:00,59.9,30.8,29.85,West,270,0.5,2.5,33,0.00,,---,0.00,VWS V14.01,2013-03-30 17:31:00,
2013-03-30 13:32:00,59.9,30.8,29.85,WNW,292,0.0,2.5,33,0.00,,---,0.00,VWS V14.01,2013-03-30 17:32:00,
2013-03-30 13:33:00,59.9,30.0,29.85,WNW,292,1.6,4.0,32,0.00,,---,0.00,VWS V14.01,2013-03-30 17:33:00,
2013-03-30 13:34:00,59.7,29.8,29.85,WSW,248,1.6,3.6,32,0.00,,---,0.00,VWS V14.01,2013-03-30 17:34:00,
2013-03-30 13:35:00,59.7,29.8,29.85,WSW,248,2.0,4.7,32,0.00,,---,0.00,VWS V14.01,2013-03-30 17:35:00,
2013-03-30 13:36:00,59.9,30.0,29.85,West,270,1.4,3.4,32,0.00,,---,0.00,VWS V14.01,2013-03-30 17:36:00,
2013-03-30 13:37:00,59.4,29.5,29.85,WSW,248,1.4,3.8,32,0.00,,---,0.00,VWS V14.01,2013-03-30 17:37:00,
2013-03-30 13:38:00,59.7,29.8,29.85,NNW,338,1.4,3.4,32,0.00,,---,0.00,VWS V14.01,2013-03-30 17:38:00,
2013-03-30 13:39:00,59.9,30.0,29.85,WNW,292,1.6,4.0,32,0.00,,---,0.00,VWS V14.01,2013-03-30 17:39:00,
2013-03-30 13:40:00,59.7,29.8,29.85,WSW,248,1.6,3.6,32,0.00,,---,0.00,VWS V14.01,2013-03-30 17:40:00,
2013-03-30 13:41:00,59.7,29.8,29.85,WSW,248,2.0,4.7,32,0.00,,---,0.00,VWS V14.01,2013-03-30 17:41:00,
2013-03-30 13:42:00,59.4,29.5,29.82,NNW,338,0.5,3.1,32,0.00,,---,0.00,VWS V14.01,2013-03-30 17:42:00,
2013-03-30 13:43:00,59.5,29.7,29.82,NNW,338,1.1,4.3,32,0.00,,---,0.00,VWS V14.01,2013-03-30 17:43:00,
2013-03-30 13:44:00,59.4,29.5,29.85,WSW,248,0.9,3.4,32,0.00,,---,0.00,VWS V14.01,2013-03-30 17:44:00,
2013-03-30 13:45:00,59.9,30.8,29.82,NNW,338,2.3,4.3,33,0.00,,---,0.00,VWS V14.01,2013-03-30 17:45:00,
2013-03-30 13:46:00,59.4,29.5,29.82,WNW,292,0.5,3.4,32,0.00,,---,0.00,VWS V14.01,2013-03-30 17:46:00,
2013-03-30 13:47:00,59.4,29.5,29.82,WNW,292,0.7,3.1,32,0.00,,---,0.00,VWS V14.01,2013-03-30 17:47:00,
2013-03-30 13:48:00,59.9,30.0,29.82,NNW,338,1.1,3.6,32,0.00,,---,0.00,VWS V14.01,2013-03-30 17:48:00,
2013-03-30 13:49:00,59.5,29.7,29.82,NNW,338,1.1,4.3,32,0.00,,---,0.00,VWS V14.01,2013-03-30 17:49:00,
2013-03-30 13:50:00,59.7,29.8,29.82,WNW,292,1.4,3.6,32,0.00,,---,0.00,VWS V14.01,2013-03-30 17:50:00,
2013-03-30 13:51:00,59.9,30.0,29.82,WNW,292,2.3,4.3,32,0.00,,---,0.00,VWS V14.01,2013-03-30 17:51:00,
2013-03-30 13:52:00,59.9,30.0,29.82,WNW,292,1.6,4.3,32,0.00,,---,0.00,VWS V14.01,2013-03-30 17:52:00,
2013-03-30 13:53:00,59.9,30.0,29.82,NNW,338,1.1,3.6,32,0.00,,---,0.00,VWS V14.01,2013-03-30 17:53:00,
2013-03-30 13:54:00,59.9,30.0,29.82,WSW,248,0.0,3.1,32,0.00,,---,0.00,VWS V14.01,2013-03-30 17:54:00,
2013-03-30 13:55:00,60.1,30.1,29.82,NNW,338,2.0,4.3,32,0.00,,---,0.00,VWS V14.01,2013-03-30 17:55:00,
2013-03-30 13:56:00,60.3,30.3,29.82,WNW,292,2.7,4.7,32,0.00,,---,0.00,VWS V14.01,2013-03-30 17:56:00,
2013-03-30 13:57:00,60.4,30.5,29.82,NW,315,1.6,4.7,32,0.00,,---,0.00,VWS V14.01,2013-03-30 17:57:00,
2013-03-30 13:58:00,60.6,31.4,29.82,NNW,338,2.7,4.7,33,0.00,,---,0.00,VWS V14.01,2013-03-30 17:58:00,
2013-03-30 13:59:00,59.9,30.0,29.82,WNW,292,2.0,4.0,32,0.00,,---,0.00,VWS V14.01,2013-03-30 17:59:00,
2013-03-30 14:00:00,60.1,30.1,29.82,NW,315,1.6,4.0,32,0.00,,---,0.00,VWS V14.01,2013-03-30 18:00:00,
2013-03-30 14:01:00,60.8,30.8,29.82,WNW,292,0.9,3.8,32,0.00,,---,0.00,VWS V14.01,2013-03-30 18:01:00,
2013-03-30 14:02:00,60.8,30.8,29.82,WNW,292,1.1,3.4,32,0.00,,---,0.00,VWS V14.01,2013-03-30 18:02:00,
2013-03-30 14:03:00,60.8,30.8,29.82,NNW,338,1.4,4.5,32,0.00,,---,0.00,VWS V14.01,2013-03-30 18:03:00,
2013-03-30 14:04:00,60.6,31.4,29.82,NNW,338,2.7,4.7,33,0.00,,---,0.00,VWS V14.01,2013-03-30 18:04:00,
2013-03-30 14:05:00,60.6,30.6,29.82,NW,315,1.1,4.7,32,0.00,,---,0.00,VWS V14.01,2013-03-30 18:05:00,
2013-03-30 14:06:00,60.8,31.5,29.82,WNW,292,1.8,3.8,33,0.00,,---,0.00,VWS V14.01,2013-03-30 18:06:00,
2013-03-30 14:07:00,60.8,30.8,29.82,WNW,292,0.9,3.8,32,0.00,,---,0.00,VWS V14.01,2013-03-30 18:07:00,
2013-03-30 14:08:00,61.0,30.9,29.82,NNW,338,0.5,4.3,32,0.00,,---,0.00,VWS V14.01,2013-03-30 18:08:00,
2013-03-30 14:09:00,61.0,30.9,29.82,NNE,22,0.0,2.5,32,0.00,,---,0.00,VWS V14.01,2013-03-30 18:09:00,
2013-03-30 14:10:00,60.8,30.0,29.82,NNW,338,1.4,4.7,31,0.00,,---,0.00,VWS V14.01,2013-03-30 18:10:00,
2013-03-30 14:11:00,60.8,30.8,29.82,NW,315,1.6,3.6,32,0.00,,---,0.00,VWS V14.01,2013-03-30 18:11:00,
2013-03-30 14:12:00,60.8,30.0,29.82,West,270,1.6,4.0,31,0.00,,---,0.00,VWS V14.01,2013-03-30 18:12:00,
2013-03-30 14:13:00,61.0,30.2,29.82,NNW,338,1.8,4.3,31,0.00,,---,0.00,VWS V14.01,2013-03-30 18:13:00,
2013-03-30 14:14:00,61.0,30.9,29.82,NNW,338,0.5,4.3,32,0.00,,---,0.00,VWS V14.01,2013-03-30 18:14:00,
2013-03-30 14:15:00,60.4,30.5,29.82,WSW,248,0.9,4.0,32,0.00,,---,0.00,VWS V14.01,2013-03-30 18:15:00,
2013-03-30 14:16:00,60.4,30.5,29.82,WNW,292,0.9,3.8,32,0.00,,---,0.00,VWS V14.01,2013-03-30 18:16:00,
2013-03-30 14:17:00,60.6,30.6,29.82,WNW,292,0.7,3.6,32,0.00,,---,0.00,VWS V14.01,2013-03-30 18:17:00,
2013-03-30 14:18:00,60.8,30.0,29.82,West,270,1.6,4.0,31,0.00,,---,0.00,VWS V14.01,2013-03-30 18:18:00,
2013-03-30 14:19:00,61.0,30.9,29.82,NNW,338,2.0,4.3,32,0.00,,---,0.00,VWS V14.01,2013-03-30 18:19:00,
2013-03-30 14:20:00,60.6,30.6,29.82,WSW,248,1.6,4.0,32,0.00,,---,0.00,VWS V14.01,2013-03-30 18:20:00,
2013-03-30 14:21:00,60.4,30.5,29.82,WSW,248,0.9,4.0,32,0.00,,---,0.00,VWS V14.01,2013-03-30 18:21:00,
2013-03-30 14:22:00,60.4,30.5,29.82,WNW,292,0.9,3.8,32,0.00,,---,0.00,VWS V14.01,2013-03-30 18:22:00,
2013-03-30 14:23:00,60.6,30.6,29.82,WNW,292,0.7,3.6,32,0.00,,---,0.00,VWS V14.01,2013-03-30 18:23:00,
2013-03-30 14:24:00,61.0,30.2,29.82,NNW,338,0.7,2.9,31,0.00,,---,0.00,VWS V14.01,2013-03-30 18:24:00,
2013-03-30 14:25:00,61.0,30.9,29.82,NNW,338,2.0,4.3,32,0.00,,---,0.00,VWS V14.01,2013-03-30 18:25:00,
2013-03-30 14:26:00,61.0,30.2,29.82,WSW,248,1.6,4.0,31,0.00,,---,0.00,VWS V14.01,2013-03-30 18:26:00,
2013-03-30 14:27:00,61.0,30.9,29.82,NW,315,0.0,2.5,32,0.00,,---,0.00,VWS V14.01,2013-03-30 18:27:00,
2013-03-30 14:28:00,61.0,30.2,29.82,West,270,0.7,2.7,31,0.00,,---,0.00,VWS V14.01,2013-03-30 18:28:00,
2013-03-30 14:29:00,61.0,30.2,29.82,WSW,248,1.1,3.1,31,0.00,,---,0.00,VWS V14.01,2013-03-30 18:29:00,
2013-03-30 14:30:00,61.0,30.2,29.82,West,270,0.9,3.4,31,0.00,,---,0.00,VWS V14.01,2013-03-30 18:30:00,
2013-03-30 14:31:00,61.0,30.2,29.82,NNW,338,2.7,4.7,31,0.00,,---,0.00,VWS V14.01,2013-03-30 18:31:00,
2013-03-30 14:32:00,61.0,30.2,29.82,NW,315,0.5,4.7,31,0.00,,---,0.00,VWS V14.01,2013-03-30 18:32:00,
2013-03-30 14:33:00,61.0,30.2,29.82,WNW,292,0.7,4.3,31,0.00,,---,0.00,VWS V14.01,2013-03-30 18:33:00,
2013-03-30 14:34:00,61.0,30.2,29.82,West,270,0.7,2.7,31,0.00,,---,0.00,VWS V14.01,2013-03-30 18:34:00,
2013-03-30 14:35:00,61.0,30.2,29.82,NW,315,0.0,2.0,31,0.00,,---,0.00,VWS V14.01,2013-03-30 18:35:00,
2013-03-30 14:36:00,61.0,30.2,29.82,West,270,0.9,3.4,31,0.00,,---,0.00,VWS V14.01,2013-03-30 18:36:00,
2013-03-30 14:37:00,61.2,30.3,29.82,NW,315,0.5,2.5,31,0.00,,---,0.00,VWS V14.01,2013-03-30 18:37:00,
2013-03-30 14:38:00,61.2,31.1,29.82,NW,315,0.5,1.6,32,0.00,,---,0.00,VWS V14.01,2013-03-30 18:38:00,
2013-03-30 14:39:00,61.3,30.5,29.82,WNW,292,0.5,2.5,31,0.00,,---,0.00,VWS V14.01,2013-03-30 18:39:00,
2013-03-30 14:40:00,61.0,30.2,29.82,NNW,338,0.0,3.8,31,0.00,,---,0.00,VWS V14.01,2013-03-30 18:40:00,
2013-03-30 14:41:00,61.3,30.5,29.82,WSW,248,1.8,4.3,31,0.00,,---,0.00,VWS V14.01,2013-03-30 18:41:00,
2013-03-30 14:42:00,61.2,30.3,29.82,WNW,292,0.2,2.2,31,0.00,,---,0.00,VWS V14.01,2013-03-30 18:42:00,
2013-03-30 14:43:00,61.2,30.3,29.82,NW,315,0.5,2.5,31,0.00,,---,0.00,VWS V14.01,2013-03-30 18:43:00,
2013-03-30 14:44:00,61.2,30.3,29.82,WNW,292,0.9,3.1,31,0.00,,---,0.00,VWS V14.01,2013-03-30 18:44:00,
2013-03-30 14:45:00,61.3,30.5,29.82,WNW,292,0.5,2.5,31,0.00,,---,0.00,VWS V14.01,2013-03-30 18:45:00,
2013-03-30 14:46:00,61.3,31.2,29.82,NW,315,0.0,3.6,32,0.00,,---,0.00,VWS V14.01,2013-03-30 18:46:00,
2013-03-30 14:47:00,61.0,30.2,29.82,WNW,292,1.1,3.4,31,0.00,,---,0.00,VWS V14.01,2013-03-30 18:47:00,
2013-03-30 14:48:00,61.0,30.2,29.82,WNW,292,0.2,3.1,31,0.00,,---,0.00,VWS V14.01,2013-03-30 18:48:00,
2013-03-30 14:49:00,61.0,30.2,29.82,SW,225,0.5,2.7,31,0.00,,---,0.00,VWS V14.01,2013-03-30 18:49:00,
2013-03-30 14:50:00,61.2,30.3,29.82,WNW,292,0.9,3.1,31,0.00,,---,0.00,VWS V14.01,2013-03-30 18:50:00,
2013-03-30 14:51:00,61.2,30.3,29.82,WSW,248,1.1,3.4,31,0.00,,---,0.00,VWS V14.01,2013-03-30 18:51:00,
2013-03-30 14:52:00,61.0,30.2,29.82,WSW,248,1.4,3.6,31,0.00,,---,0.00,VWS V14.01,2013-03-30 18:52:00,
2013-03-30 14:53:00,61.2,30.3,29.82,WSW,248,1.4,4.3,31,0.00,,---,0.00,VWS V14.01,2013-03-30 18:53:00,
2013-03-30 14:54:00,61.2,30.3,29.79,WSW,248,1.4,3.8,31,0.00,,---,0.00,VWS V14.01,2013-03-30 18:54:00,
2013-03-30 14:55:00,61.3,30.5,29.79,WSW,248,1.4,3.4,31,0.00,,---,0.00,VWS V14.01,2013-03-30 18:55:00,
2013-03-30 14:56:00,61.2,30.3,29.82,WSW,248,0.7,3.6,31,0.00,,---,0.00,VWS V14.01,2013-03-30 18:56:00,
2013-03-30 14:57:00,61.2,30.3,29.82,WSW,248,0.9,2.9,31,0.00,,---,0.00,VWS V14.01,2013-03-30 18:57:00,
2013-03-30 14:58:00,61.2,30.3,29.82,West,270,0.7,2.9,31,0.00,,---,0.00,VWS V14.01,2013-03-30 18:58:00,
2013-03-30 14:59:00,61.3,30.5,29.79,WSW,248,0.5,3.6,31,0.00,,---,0.00,VWS V14.01,2013-03-30 18:59:00,
2013-03-30 15:00:00,61.3,30.5,29.79,West,270,1.1,3.1,31,0.00,,---,0.00,VWS V14.01,2013-03-30 19:00:00,
2013-03-30 15:01:00,61.3,30.5,29.79,WSW,248,1.4,3.4,31,0.00,,---,0.00,VWS V14.01,2013-03-30 19:01:00,
2013-03-30 15:02:00,61.3,30.5,29.79,WNW,292,1.1,3.1,31,0.00,,---,0.00,VWS V14.01,2013-03-30 19:02:00,
2013-03-30 15:03:00,61.3,30.5,29.79,SW,225,1.1,3.6,31,0.00,,---,0.00,VWS V14.01,2013-03-30 19:03:00,
2013-03-30 15:04:00,61.3,30.5,29.79,WSW,248,1.4,4.0,31,0.00,,---,0.00,VWS V14.01,2013-03-30 19:04:00,
2013-03-30 15:05:00,61.7,30.8,29.79,NNE,22,0.5,3.1,31,0.00,,---,0.00,VWS V14.01,2013-03-30 19:05:00,
2013-03-30 15:06:00,61.9,30.9,29.79,NNW,338,0.2,2.7,31,0.00,,---,0.00,VWS V14.01,2013-03-30 19:06:00,
2013-03-30 15:07:00,61.3,30.5,29.79,WNW,292,1.1,3.1,31,0.00,,---,0.00,VWS V14.01,2013-03-30 19:07:00,
2013-03-30 15:08:00,62.1,31.1,29.79,WSW,248,1.4,3.4,31,0.00,,---,0.00,VWS V14.01,2013-03-30 19:08:00,
2013-03-30 15:09:00,61.5,30.6,29.79,NNW,338,0.5,3.1,31,0.00,,---,0.00,VWS V14.01,2013-03-30 19:09:00,
2013-03-30 15:10:00,61.7,30.8,29.79,NNW,338,0.5,4.3,31,0.00,,---,0.00,VWS V14.01,2013-03-30 19:10:00,
2013-03-30 15:11:00,61.9,30.9,29.79,North,0,0.0,3.1,31,0.00,,---,0.00,VWS V14.01,2013-03-30 19:11:00,
2013-03-30 15:12:00,61.9,30.9,29.79,WNW,292,0.5,2.5,31,0.00,,---,0.00,VWS V14.01,2013-03-30 19:12:00,
2013-03-30 15:13:00,61.9,30.9,29.79,NW,315,0.7,2.9,31,0.00,,---,0.00,VWS V14.01,2013-03-30 19:13:00,
2013-03-30 15:14:00,61.9,30.9,29.79,West,270,0.9,3.1,31,0.00,,---,0.00,VWS V14.01,2013-03-30 19:14:00,
2013-03-30 15:16:00,61.9,30.9,29.79,South,180,0.0,2.7,31,0.00,,---,0.00,VWS V14.01,2013-03-30 19:16:00,
2013-03-30 15:17:00,61.9,30.9,29.79,North,0,0.0,3.1,31,0.00,,---,0.00,VWS V14.01,2013-03-30 19:17:00,
2013-03-30 15:18:00,61.9,30.9,29.79,East,90,0.5,1.6,31,0.00,,---,0.00,VWS V14.01,2013-03-30 19:18:00,
2013-03-30 15:19:00,61.9,30.9,29.79,NW,315,0.7,2.9,31,0.00,,---,0.00,VWS V14.01,2013-03-30 19:19:00,
2013-03-30 15:20:00,61.9,30.9,29.79,West,270,0.9,3.1,31,0.00,,---,0.00,VWS V14.01,2013-03-30 19:20:00,
2013-03-30 15:21:00,61.9,30.9,29.79,NE,45,0.2,2.2,31,0.00,,---,0.00,VWS V14.01,2013-03-30 19:21:00,
2013-03-30 15:22:00,61.9,30.9,29.79,South,180,0.0,2.7,31,0.00,,---,0.00,VWS V14.01,2013-03-30 19:22:00,
2013-03-30 15:23:00,61.9,30.9,29.79,SE,135,0.5,2.5,31,0.00,,---,0.00,VWS V14.01,2013-03-30 19:23:00,
2013-03-30 15:24:00,61.9,30.9,29.79,East,90,0.5,1.6,31,0.00,,---,0.00,VWS V14.01,2013-03-30 19:24:00,
2013-03-30 15:25:00,62.1,31.1,29.76,WSW,248,0.0,2.0,31,0.00,,---,0.00,VWS V14.01,2013-03-30 19:25:00,
2013-03-30 15:26:00,62.2,31.2,29.76,WNW,292,0.0,2.0,31,0.00,,---,0.00,VWS V14.01,2013-03-30 19:26:00,
2013-03-30 15:27:00,62.2,31.2,29.76,NNW,338,0.0,3.4,31,0.00,,---,0.00,VWS V14.01,2013-03-30 19:27:00,
2013-03-30 15:28:00,62.1,31.1,29.79,East,90,0.5,2.5,31,0.00,,---,0.00,VWS V14.01,2013-03-30 19:28:00,
2013-03-30 15:29:00,62.1,31.1,29.79,ENE,68,0.0,2.7,31,0.00,,---,0.00,VWS V14.01,2013-03-30 19:29:00,
2013-03-30 15:30:00,62.1,31.1,29.76,East,90,0.0,2.0,31,0.00,,---,0.00,VWS V14.01,2013-03-30 19:30:00,
2013-03-30 15:31:00,62.1,31.1,29.76,WSW,248,0.0,2.0,31,0.00,,---,0.00,VWS V14.01,2013-03-30 19:31:00,
2013-03-30 15:32:00,62.2,30.5,29.76,WSW,248,0.7,3.8,30,0.00,,---,0.00,VWS V14.01,2013-03-30 19:32:00,
2013-03-30 15:33:00,62.4,30.6,29.76,SW,225,0.5,2.7,30,0.00,,---,0.00,VWS V14.01,2013-03-30 19:33:00,
2013-03-30 15:34:00,62.4,31.4,29.76,South,180,0.2,2.5,31,0.00,,---,0.00,VWS V14.01,2013-03-30 19:34:00,
2013-03-30 15:35:00,62.2,30.5,29.76,WNW,292,0.5,3.1,30,0.00,,---,0.00,VWS V14.01,2013-03-30 19:35:00,
2013-03-30 15:36:00,62.2,30.5,29.76,WNW,292,2.5,4.9,30,0.00,,---,0.00,VWS V14.01,2013-03-30 19:36:00,
2013-03-30 15:37:00,62.6,30.8,29.76,NNW,338,0.5,2.9,30,0.00,,---,0.00,VWS V14.01,2013-03-30 19:37:00,
2013-03-30 15:38:00,62.6,30.8,29.76,WNW,292,0.9,3.6,30,0.00,,---,0.00,VWS V14.01,2013-03-30 19:38:00,
2013-03-30 15:39:00,62.4,30.6,29.76,SW,225,0.5,2.7,30,0.00,,---,0.00,VWS V14.01,2013-03-30 19:39:00,
2013-03-30 15:40:00,62.8,30.9,29.76,West,270,0.7,3.1,30,0.00,,---,0.00,VWS V14.01,2013-03-30 19:40:00,
2013-03-30 15:41:00,62.4,31.4,29.76,NNW,338,0.5,2.5,31,0.00,,---,0.00,VWS V14.01,2013-03-30 19:41:00,
2013-03-30 15:42:00,63.0,31.1,29.76,West,270,0.7,2.9,30,0.00,,---,0.00,VWS V14.01,2013-03-30 19:42:00,
2013-03-30 15:43:00,63.0,31.1,29.76,WNW,292,0.7,3.6,30,0.00,,---,0.00,VWS V14.01,2013-03-30 19:43:00,
2013-03-30 15:44:00,62.6,30.8,29.76,WNW,292,0.9,3.6,30,0.00,,---,0.00,VWS V14.01,2013-03-30 19:44:00,
2013-03-30 15:45:00,62.8,30.9,29.76,West,270,1.1,4.0,30,0.00,,---,0.00,VWS V14.01,2013-03-30 19:45:00,
2013-03-30 15:46:00,62.8,30.9,29.76,West,270,0.7,3.1,30,0.00,,---,0.00,VWS V14.01,2013-03-30 19:46:00,
2013-03-30 15:47:00,63.5,32.3,29.76,NNE,22,0.7,2.9,31,0.00,,---,0.00,VWS V14.01,2013-03-30 19:47:00,
2013-03-30 15:48:00,63.0,31.1,29.76,West,270,0.7,2.9,30,0.00,,---,0.00,VWS V14.01,2013-03-30 19:48:00,
2013-03-30 15:49:00,63.0,31.1,29.76,WNW,292,0.7,3.6,30,0.00,,---,0.00,VWS V14.01,2013-03-30 19:49:00,
2013-03-30 15:50:00,63.7,31.7,29.76,NE,45,2.0,4.3,30,0.00,,---,0.00,VWS V14.01,2013-03-30 19:50:00,
2013-03-30 15:51:00,63.1,32.0,29.76,WNW,292,1.1,3.1,31,0.00,,---,0.00,VWS V14.01,2013-03-30 19:51:00,
2013-03-30 15:52:00,63.5,31.5,29.76,NNW,338,0.9,6.5,30,0.00,,---,0.00,VWS V14.01,2013-03-30 19:52:00,
2013-03-30 15:53:00,63.7,32.5,29.76,WNW,292,1.4,3.4,31,0.00,,---,0.00,VWS V14.01,2013-03-30 19:53:00,
2013-03-30 15:54:00,63.7,31.7,29.76,WNW,292,1.1,3.1,30,0.00,,---,0.00,VWS V14.01,2013-03-30 19:54:00,
2013-03-30 15:55:00,63.7,31.7,29.76,NNE,22,0.0,4.3,30,0.00,,---,0.00,VWS V14.01,2013-03-30 19:55:00,
2013-03-30 15:56:00,63.9,31.9,29.76,WNW,292,0.9,3.1,30,0.00,,---,0.00,VWS V14.01,2013-03-30 19:56:00,
2013-03-30 15:57:00,64.0,32.0,29.76,WSW,248,0.7,2.9,30,0.00,,---,0.00,VWS V14.01,2013-03-30 19:57:00,
2013-03-30 15:58:00,63.7,32.5,29.76,WNW,292,1.4,3.4,31,0.00,,---,0.00,VWS V14.01,2013-03-30 19:58:00,
2013-03-30 15:59:00,63.7,32.5,29.76,WNW,292,0.9,3.8,31,0.00,,---,0.00,VWS V14.01,2013-03-30 19:59:00,
2013-03-30 16:00:00,63.9,31.9,29.76,WNW,292,1.4,3.8,30,0.00,,---,0.00,VWS V14.01,2013-03-30 20:00:00,
2013-03-30 16:01:00,63.9,31.9,29.76,NW,315,1.1,4.0,30,0.00,,---,0.00,VWS V14.01,2013-03-30 20:01:00,
2013-03-30 16:02:00,63.9,31.9,29.76,WSW,248,1.1,3.1,30,0.00,,---,0.00,VWS V14.01,2013-03-30 20:02:00,
2013-03-30 16:03:00,64.0,32.0,29.76,WSW,248,0.7,2.9,30,0.00,,---,0.00,VWS V14.01,2013-03-30 20:03:00,
2013-03-30 16:04:00,64.0,32.0,29.76,WSW,248,0.7,2.9,30,0.00,,---,0.00,VWS V14.01,2013-03-30 20:04:00,
2013-03-30 16:05:00,63.3,31.4,29.76,NNW,338,0.2,3.8,30,0.00,,---,0.00,VWS V14.01,2013-03-30 20:05:00,
2013-03-30 16:06:00,63.9,31.9,29.76,NNE,22,1.1,3.1,30,0.00,,---,0.00,VWS V14.01,2013-03-30 20:06:00,
2013-03-30 16:07:00,63.3,32.2,29.76,NW,315,0.7,3.4,31,0.00,,---,0.00,VWS V14.01,2013-03-30 20:07:00,
2013-03-30 16:08:00,63.5,32.3,29.76,NNW,338,1.4,3.4,31,0.00,,---,0.00,VWS V14.01,2013-03-30 20:08:00,
2013-03-30 16:09:00,63.5,32.3,29.76,NNW,338,2.7,4.7,31,0.00,,---,0.00,VWS V14.01,2013-03-30 20:09:00,
2013-03-30 16:10:00,63.5,31.5,29.76,NNW,338,3.4,5.6,30,0.00,,---,0.00,VWS V14.01,2013-03-30 20:10:00,
2013-03-30 16:11:00,63.3,31.4,29.76,NNW,338,0.2,3.8,30,0.00,,---,0.00,VWS V14.01,2013-03-30 20:11:00,
2013-03-30 16:12:00,63.3,31.4,29.76,NNW,338,1.4,3.6,30,0.00,,---,0.00,VWS V14.01,2013-03-30 20:12:00,
2013-03-30 16:13:00,63.3,32.2,29.76,NW,315,0.7,3.4,31,0.00,,---,0.00,VWS V14.01,2013-03-30 20:13:00,
2013-03-30 16:14:00,63.7,31.7,29.76,NNW,338,0.0,2.9,30,0.00,,---,0.00,VWS V14.01,2013-03-30 20:14:00,
2013-03-30 16:15:00,63.7,32.5,29.76,WSW,248,0.7,2.7,31,0.00,,---,0.00,VWS V14.01,2013-03-30 20:15:00,
2013-03-30 16:16:00,63.7,31.7,29.76,SW,225,0.5,2.9,30,0.00,,---,0.00,VWS V14.01,2013-03-30 20:16:00,
2013-03-30 16:17:00,63.7,31.7,29.76,WNW,292,0.0,3.1,30,0.00,,---,0.00,VWS V14.01,2013-03-30 20:17:00,
2013-03-30 16:18:00,63.5,31.5,29.76,NNW,338,1.6,5.4,30,0.00,,---,0.00,VWS V14.01,2013-03-30 20:18:00,
2013-03-30 16:19:00,63.5,31.5,29.76,NNW,338,0.5,3.6,30,0.00,,---,0.00,VWS V14.01,2013-03-30 20:19:00,
2013-03-30 16:20:00,63.9,32.7,29.76,NNE,22,0.2,0.0,31,0.00,,---,0.00,VWS V14.01,2013-03-30 20:20:00,
2013-03-30 16:21:00,63.9,32.7,29.76,NW,315,0.2,1.3,31,0.00,,---,0.00,VWS V14.01,2013-03-30 20:21:00,
2013-03-30 16:22:00,64.0,32.0,29.76,WNW,292,0.0,2.0,30,0.00,,---,0.00,VWS V14.01,2013-03-30 20:22:00,
2013-03-30 16:23:00,63.7,31.7,29.76,WNW,292,0.0,3.1,30,0.00,,---,0.00,VWS V14.01,2013-03-30 20:23:00,
2013-03-30 16:24:00,63.9,31.9,29.76,NNW,338,0.2,2.2,30,0.00,,---,0.00,VWS V14.01,2013-03-30 20:24:00,
2013-03-30 16:25:00,64.2,33.0,29.76,West,270,0.5,2.5,31,0.00,,---,0.00,VWS V14.01,2013-03-30 20:25:00,
2013-03-30 16:26:00,63.9,32.7,29.76,NNE,22,0.2,0.0,31,0.00,,---,0.00,VWS V14.01,2013-03-30 20:26:00,
2013-03-30 16:27:00,63.9,32.7,29.76,NW,315,0.2,1.3,31,0.00,,---,0.00,VWS V14.01,2013-03-30 20:27:00,
2013-03-30 16:28:00,64.0,32.0,29.76,WNW,292,0.7,2.9,30,0.00,,---,0.00,VWS V14.01,2013-03-30 20:28:00,
2013-03-30 16:29:00,64.0,32.0,29.76,North,0,0.0,1.6,30,0.00,,---,0.00,VWS V14.01,2013-03-30 20:29:00,
2013-03-30 16:30:00,64.0,32.0,29.76,WSW,248,0.0,1.3,30,0.00,,---,0.00,VWS V14.01,2013-03-30 20:30:00,
2013-03-30 16:31:00,64.0,32.0,29.76,WNW,292,0.2,2.9,30,0.00,,---,0.00,VWS V14.01,2013-03-30 20:31:00,
2013-03-30 16:32:00,64.2,32.2,29.76,WNW,292,0.0,2.9,30,0.00,,---,0.00,VWS V14.01,2013-03-30 20:32:00,
2013-03-30 16:33:00,64.2,32.2,29.76,WNW,292,0.9,2.9,30,0.00,,---,0.00,VWS V14.01,2013-03-30 20:33:00,
2013-03-30 16:34:00,63.9,31.9,29.76,WSW,248,0.0,2.0,30,0.00,,---,0.00,VWS V14.01,2013-03-30 20:34:00,
2013-03-30 16:35:00,63.9,31.9,29.76,WSW,248,0.0,3.4,30,0.00,,---,0.00,VWS V14.01,2013-03-30 20:35:00,
2013-03-30 16:36:00,63.9,31.9,29.76,NW,315,0.5,2.5,30,0.00,,---,0.00,VWS V14.01,2013-03-30 20:36:00,
2013-03-30 16:37:00,63.9,32.7,29.76,WNW,292,0.0,2.5,31,0.00,,---,0.00,VWS V14.01,2013-03-30 20:37:00,
2013-03-30 16:38:00,63.9,31.9,29.76,WNW,292,0.0,2.2,30,0.00,,---,0.00,VWS V14.01,2013-03-30 20:38:00,
2013-03-30 16:39:00,63.9,32.7,29.76,WNW,292,0.0,2.0,31,0.00,,---,0.00,VWS V14.01,2013-03-30 20:39:00,
2013-03-30 16:40:00,63.9,31.9,29.76,WSW,248,0.0,2.0,30,0.00,,---,0.00,VWS V14.01,2013-03-30 20:40:00,
2013-03-30 16:41:00,63.9,31.9,29.76,WSW,248,0.0,3.4,30,0.00,,---,0.00,VWS V14.01,2013-03-30 20:41:00,
2013-03-30 16:42:00,63.9,31.9,29.76,SSE,158,0.5,4.7,30,0.00,,---,0.00,VWS V14.01,2013-03-30 20:42:00,
2013-03-30 16:43:00,63.9,32.7,29.76,WNW,292,0.0,2.5,31,0.00,,---,0.00,VWS V14.01,2013-03-30 20:43:00,
2013-03-30 16:44:00,63.9,32.7,29.76,ESE,112,1.4,3.4,31,0.00,,---,0.00,VWS V14.01,2013-03-30 20:44:00,
2013-03-30 16:45:00,63.9,31.9,29.76,WNW,292,0.9,3.4,30,0.00,,---,0.00,VWS V14.01,2013-03-30 20:45:00,
2013-03-30 16:46:00,63.9,31.9,29.76,WNW,292,0.0,2.0,30,0.00,,---,0.00,VWS V14.01,2013-03-30 20:46:00,
2013-03-30 16:47:00,63.9,31.9,29.76,NW,315,0.5,2.5,30,0.00,,---,0.00,VWS V14.01,2013-03-30 20:47:00,
2013-03-30 16:48:00,63.9,31.9,29.76,SSE,158,0.5,4.7,30,0.00,,---,0.00,VWS V14.01,2013-03-30 20:48:00,
2013-03-30 16:49:00,64.2,33.0,29.76,SE,135,0.7,3.1,31,0.00,,---,0.00,VWS V14.01,2013-03-30 20:49:00,
2013-03-30 16:50:00,63.9,32.7,29.76,ESE,112,1.4,3.4,31,0.00,,---,0.00,VWS V14.01,2013-03-30 20:50:00,
2013-03-30 16:51:00,64.4,32.3,29.76,SE,135,0.5,3.1,30,0.00,,---,0.00,VWS V14.01,2013-03-30 20:51:00,
2013-03-30 16:52:00,64.4,32.3,29.76,SE,135,1.4,4.0,30,0.00,,---,0.00,VWS V14.01,2013-03-30 20:52:00,
2013-03-30 16:53:00,64.0,32.0,29.76,NW,315,1.4,5.6,30,0.00,,---,0.00,VWS V14.01,2013-03-30 20:53:00,
2013-03-30 16:54:00,64.2,32.2,29.76,WNW,292,1.1,3.8,30,0.00,,---,0.00,VWS V14.01,2013-03-30 20:54:00,
2013-03-30 16:55:00,64.2,33.0,29.76,SE,135,0.7,3.1,31,0.00,,---,0.00,VWS V14.01,2013-03-30 20:55:00,
2013-03-30 16:56:00,64.4,32.3,29.76,East,90,1.1,3.1,30,0.00,,---,0.00,VWS V14.01,2013-03-30 20:56:00,
2013-03-30 16:57:00,64.4,32.3,29.76,ESE,112,0.0,3.6,30,0.00,,---,0.00,VWS V14.01,2013-03-30 20:57:00,
2013-03-30 16:58:00,64.4,32.3,29.76,North,0,1.1,3.4,30,0.00,,---,0.00,VWS V14.01,2013-03-30 20:58:00,
2013-03-30 16:59:00,64.4,32.3,29.76,NNW,338,0.2,3.1,30,0.00,,---,0.00,VWS V14.01,2013-03-30 20:59:00,
2013-03-30 17:00:00,64.4,32.3,29.76,ESE,112,2.0,4.0,30,0.00,,---,0.00,VWS V14.01,2013-03-30 21:00:00,
2013-03-30 17:01:00,64.4,32.3,29.76,West,270,1.6,4.7,30,0.00,,---,0.00,VWS V14.01,2013-03-30 21:01:00,
2013-03-30 17:02:00,64.4,32.3,29.76,NNE,22,0.2,4.0,30,0.00,,---,0.00,VWS V14.01,2013-03-30 21:02:00,
2013-03-30 17:03:00,64.4,32.3,29.76,NNW,338,0.0,2.0,30,0.00,,---,0.00,VWS V14.01,2013-03-30 21:03:00,
2013-03-30 17:04:00,64.4,32.3,29.76,NNW,338,0.2,3.1,30,0.00,,---,0.00,VWS V14.01,2013-03-30 21:04:00,
2013-03-30 17:05:00,64.4,32.3,29.76,WSW,248,0.0,2.2,30,0.00,,---,0.00,VWS V14.01,2013-03-30 21:05:00,
2013-03-30 17:06:00,64.4,32.3,29.76,NNW,338,3.8,5.8,30,0.00,,---,0.00,VWS V14.01,2013-03-30 21:06:00,
2013-03-30 17:07:00,64.2,32.2,29.76,NW,315,0.9,3.6,30,0.00,,---,0.00,VWS V14.01,2013-03-30 21:07:00,
2013-03-30 17:08:00,64.4,32.3,29.76,NNE,22,0.2,4.0,30,0.00,,---,0.00,VWS V14.01,2013-03-30 21:08:00,
2013-03-30 17:09:00,64.4,32.3,29.76,NNW,338,0.9,2.9,30,0.00,,---,0.00,VWS V14.01,2013-03-30 21:09:00,
2013-03-30 17:10:00,64.2,32.2,29.76,ESE,112,0.5,4.0,30,0.00,,---,0.00,VWS V14.01,2013-03-30 21:10:00,
2013-03-30 17:11:00,64.4,32.3,29.76,WSW,248,0.0,2.2,30,0.00,,---,0.00,VWS V14.01,2013-03-30 21:11:00,
2013-03-30 17:12:00,64.2,32.2,29.76,NW,315,0.2,3.4,30,0.00,,---,0.00,VWS V14.01,2013-03-30 21:12:00,
2013-03-30 17:13:00,64.2,32.2,29.76,NW,315,0.9,3.6,30,0.00,,---,0.00,VWS V14.01,2013-03-30 21:13:00,
2013-03-30 17:14:00,64.2,32.2,29.76,WNW,292,0.5,2.5,30,0.00,,---,0.00,VWS V14.01,2013-03-30 21:14:00,
2013-03-30 17:15:00,64.2,32.2,29.76,NW,315,2.0,4.0,30,0.00,,---,0.00,VWS V14.01,2013-03-30 21:15:00,
2013-03-30 17:16:00,64.2,32.2,29.76,ESE,112,0.5,4.0,30,0.00,,---,0.00,VWS V14.01,2013-03-30 21:16:00,
2013-03-30 17:17:00,64.0,32.0,29.76,NNW,338,0.2,1.6,30,0.00,,---,0.00,VWS V14.01,2013-03-30 21:17:00,
2013-03-30 17:18:00,64.2,32.2,29.76,NW,315,0.2,3.4,30,0.00,,---,0.00,VWS V14.01,2013-03-30 21:18:00,
2013-03-30 17:19:00,63.9,31.9,29.76,SE,135,1.1,3.1,30,0.00,,---,0.00,VWS V14.01,2013-03-30 21:19:00,
2013-03-30 17:20:00,64.0,32.0,29.76,WNW,292,0.9,2.9,30,0.00,,---,0.00,VWS V14.01,2013-03-30 21:20:00,
2013-03-30 17:21:00,63.9,31.9,29.76,NNW,338,0.2,2.2,30,0.00,,---,0.00,VWS V14.01,2013-03-30 21:21:00,
2013-03-30 17:22:00,64.0,32.0,29.76,WNW,292,0.2,0.0,30,0.00,,---,0.00,VWS V14.01,2013-03-30 21:22:00,
2013-03-30 17:23:00,63.9,31.0,29.76,NW,315,0.5,2.5,29,0.00,,---,0.00,VWS V14.01,2013-03-30 21:23:00,
2013-03-30 17:24:00,64.0,32.0,29.76,East,90,0.2,2.2,30,0.00,,---,0.00,VWS V14.01,2013-03-30 21:24:00,
2013-03-30 17:25:00,63.7,30.9,29.76,WNW,292,0.5,3.6,29,0.00,,---,0.00,VWS V14.01,2013-03-30 21:25:00,
2013-03-30 17:26:00,63.7,30.9,29.76,NW,315,0.5,2.5,29,0.00,,---,0.00,VWS V14.01,2013-03-30 21:26:00,
2013-03-30 17:27:00,63.9,31.9,29.76,NNW,338,0.2,2.2,30,0.00,,---,0.00,VWS V14.01,2013-03-30 21:27:00,
2013-03-30 17:28:00,63.9,31.0,29.76,WNW,292,1.1,3.1,29,0.00,,---,0.00,VWS V14.01,2013-03-30 21:28:00,
2013-03-30 17:29:00,63.7,30.9,29.76,ESE,112,0.9,3.1,29,0.00,,---,0.00,VWS V14.01,2013-03-30 21:29:00,
2013-03-30 17:30:00,63.7,30.9,29.76,WNW,292,1.6,3.6,29,0.00,,---,0.00,VWS V14.01,2013-03-30 21:30:00,
2013-03-30 17:31:00,63.7,30.9,29.76,ESE,112,0.2,2.2,29,0.00,,---,0.00,VWS V14.01,2013-03-30 21:31:00,
2013-03-30 17:32:00,63.9,31.0,29.76,WNW,292,1.6,3.6,29,0.00,,---,0.00,VWS V14.01,2013-03-30 21:32:00,
2013-03-30 17:33:00,63.7,30.9,29.76,NW,315,1.1,3.6,29,0.00,,---,0.00,VWS V14.01,2013-03-30 21:33:00,
2013-03-30 17:34:00,63.7,30.9,29.76,NW,315,0.2,3.1,29,0.00,,---,0.00,VWS V14.01,2013-03-30 21:34:00,
2013-03-30 17:35:00,63.7,30.9,29.76,ESE,112,0.9,3.1,29,0.00,,---,0.00,VWS V14.01,2013-03-30 21:35:00,
2013-03-30 17:36:00,63.9,31.0,29.76,NE,45,0.7,3.6,29,0.00,,---,0.00,VWS V14.01,2013-03-30 21:36:00,
2013-03-30 17:37:00,64.0,31.2,29.76,South,180,0.7,2.7,29,0.00,,---,0.00,VWS V14.01,2013-03-30 21:37:00,
2013-03-30 17:38:00,63.9,31.0,29.76,WNW,292,1.6,3.6,29,0.00,,---,0.00,VWS V14.01,2013-03-30 21:38:00,
2013-03-30 17:39:00,64.0,31.2,29.76,NW,315,1.6,4.9,29,0.00,,---,0.00,VWS V14.01,2013-03-30 21:39:00,
2013-03-30 17:40:00,63.9,31.0,29.76,SSE,158,0.0,2.7,29,0.00,,---,0.00,VWS V14.01,2013-03-30 21:40:00,
2013-03-30 17:41:00,64.2,31.3,29.76,WNW,292,0.0,3.6,29,0.00,,---,0.00,VWS V14.01,2013-03-30 21:41:00,
2013-03-30 17:42:00,63.9,31.0,29.76,NE,45,0.7,3.6,29,0.00,,---,0.00,VWS V14.01,2013-03-30 21:42:00,
2013-03-30 17:43:00,64.2,31.3,29.76,ENE,68,0.0,1.3,29,0.00,,---,0.00,VWS V14.01,2013-03-30 21:43:00,
2013-03-30 17:44:00,64.0,31.2,29.76,WSW,248,0.7,2.7,29,0.00,,---,0.00,VWS V14.01,2013-03-30 21:44:00,
2013-03-30 17:45:00,64.2,31.3,29.76,WNW,292,0.0,2.2,29,0.00,,---,0.00,VWS V14.01,2013-03-30 21:45:00,
2013-03-30 17:46:00,64.2,31.3,29.76,NW,315,0.0,2.7,29,0.00,,---,0.00,VWS V14.01,2013-03-30 21:46:00,
2013-03-30 17:47:00,64.2,31.3,29.76,ESE,112,0.0,0.0,29,0.00,,---,0.00,VWS V14.01,2013-03-30 21:47:00,
2013-03-30 17:48:00,64.2,31.3,29.76,WNW,292,0.0,1.1,29,0.00,,---,0.00,VWS V14.01,2013-03-30 21:48:00,
2013-03-30 17:49:00,64.2,31.3,29.76,ENE,68,0.0,1.3,29,0.00,,---,0.00,VWS V14.01,2013-03-30 21:49:00,
2013-03-30 17:50:00,64.2,31.3,29.76,North,0,0.0,1.3,29,0.00,,---,0.00,VWS V14.01,2013-03-30 21:50:00,
2013-03-30 17:51:00,64.2,31.3,29.76,WNW,292,0.0,2.2,29,0.00,,---,0.00,VWS V14.01,2013-03-30 21:51:00,
2013-03-30 17:52:00,64.2,31.3,29.76,NNW,338,0.2,0.0,29,0.00,,---,0.00,VWS V14.01,2013-03-30 21:52:00,
2013-03-30 17:53:00,64.2,31.3,29.76,NNW,338,0.2,0.0,29,0.00,,---,0.00,VWS V14.01,2013-03-30 21:53:00,
2013-03-30 17:54:00,64.2,31.3,29.76,SSE,158,0.0,1.3,29,0.00,,---,0.00,VWS V14.01,2013-03-30 21:54:00,
2013-03-30 17:55:00,64.2,31.3,29.76,SSE,158,0.2,2.2,29,0.00,,---,0.00,VWS V14.01,2013-03-30 21:55:00,
2013-03-30 17:56:00,64.2,31.3,29.74,NNE,22,0.5,1.3,29,0.00,,---,0.00,VWS V14.01,2013-03-30 21:56:00,
2013-03-30 17:57:00,64.0,31.2,29.74,NNE,22,0.5,1.6,29,0.00,,---,0.00,VWS V14.01,2013-03-30 21:57:00,
2013-03-30 17:58:00,64.2,31.3,29.76,NNW,338,0.2,0.0,29,0.00,,---,0.00,VWS V14.01,2013-03-30 21:58:00,
2013-03-30 17:59:00,64.0,31.2,29.74,SE,135,1.1,3.1,29,0.00,,---,0.00,VWS V14.01,2013-03-30 21:59:00,
2013-03-30 18:00:00,64.0,32.0,29.74,East,90,1.8,3.8,30,0.00,,---,0.00,VWS V14.01,2013-03-30 22:00:00,
2013-03-30 18:01:00,64.2,31.3,29.74,NNE,22,0.5,3.1,29,0.00,,---,0.00,VWS V14.01,2013-03-30 22:01:00,
2013-03-30 18:02:00,64.2,31.3,29.74,NNE,22,0.5,1.3,29,0.00,,---,0.00,VWS V14.01,2013-03-30 22:02:00,
2013-03-30 18:03:00,64.0,31.2,29.74,NNE,22,0.5,1.6,29,0.00,,---,0.00,VWS V14.01,2013-03-30 22:03:00,
2013-03-30 18:04:00,63.9,31.0,29.74,NW,315,0.0,3.6,29,0.00,,---,0.00,VWS V14.01,2013-03-30 22:04:00,
2013-03-30 18:05:00,63.9,31.9,29.74,ESE,112,0.7,2.7,30,0.00,,---,0.00,VWS V14.01,2013-03-30 22:05:00,
2013-03-30 18:06:00,64.0,32.0,29.74,East,90,1.8,3.8,30,0.00,,---,0.00,VWS V14.01,2013-03-30 22:06:00,
2013-03-30 18:07:00,63.9,31.9,29.74,North,0,0.2,1.6,30,0.00,,---,0.00,VWS V14.01,2013-03-30 22:07:00,
2013-03-30 18:08:00,63.9,31.0,29.74,South,180,0.7,3.6,29,0.00,,---,0.00,VWS V14.01,2013-03-30 22:08:00,
2013-03-30 18:09:00,63.9,31.9,29.76,ENE,68,0.9,2.9,30,0.00,,---,0.00,VWS V14.01,2013-03-30 22:09:00,
2013-03-30 18:10:00,63.9,31.9,29.76,ESE,112,0.5,2.9,30,0.00,,---,0.00,VWS V14.01,2013-03-30 22:10:00,
2013-03-30 18:11:00,63.9,31.9,29.74,ESE,112,0.7,2.7,30,0.00,,---,0.00,VWS V14.01,2013-03-30 22:11:00,
2013-03-30 18:12:00,63.9,31.9,29.74,North,0,0.2,2.7,30,0.00,,---,0.00,VWS V14.01,2013-03-30 22:12:00,
2013-03-30 18:13:00,63.9,31.9,29.76,ESE,112,0.0,2.2,30,0.00,,---,0.00,VWS V14.01,2013-03-30 22:13:00,
2013-03-30 18:14:00,63.9,31.9,29.76,ESE,112,0.0,1.3,30,0.00,,---,0.00,VWS V14.01,2013-03-30 22:14:00,
2013-03-30 18:15:00,63.9,31.9,29.76,ESE,112,0.0,1.3,30,0.00,,---,0.00,VWS V14.01,2013-03-30 22:15:00,
2013-03-30 18:16:00,63.9,31.9,29.76,ESE,112,0.5,2.9,30,0.00,,---,0.00,VWS V14.01,2013-03-30 22:16:00,
2013-03-30 18:17:00,63.9,31.9,29.76,East,90,0.2,2.9,30,0.00,,---,0.00,VWS V14.01,2013-03-30 22:17:00,
2013-03-30 18:18:00,63.9,31.9,29.76,ESE,112,0.2,2.2,30,0.00,,---,0.00,VWS V14.01,2013-03-30 22:18:00,
2013-03-30 18:19:00,63.9,31.9,29.76,NW,315,0.7,2.7,30,0.00,,---,0.00,VWS V14.01,2013-03-30 22:19:00,
2013-03-30 18:20:00,63.9,31.9,29.76,ESE,112,0.0,1.3,30,0.00,,---,0.00,VWS V14.01,2013-03-30 22:20:00,
2013-03-30 18:21:00,63.9,31.9,29.76,ESE,112,0.0,1.3,30,0.00,,---,0.00,VWS V14.01,2013-03-30 22:21:00,
2013-03-30 18:22:00,63.9,31.9,29.76,NW,315,0.5,2.5,30,0.00,,---,0.00,VWS V14.01,2013-03-30 22:22:00,
2013-03-30 18:23:00,63.9,31.9,29.76,NE,45,0.2,0.0,30,0.00,,---,0.00,VWS V14.01,2013-03-30 22:23:00,
2013-03-30 18:24:00,63.9,31.9,29.76,WSW,248,0.2,0.0,30,0.00,,---,0.00,VWS V14.01,2013-03-30 22:24:00,
2013-03-30 18:25:00,63.9,31.9,29.76,NW,315,0.7,2.7,30,0.00,,---,0.00,VWS V14.01,2013-03-30 22:25:00,
2013-03-30 18:26:00,63.9,31.9,29.76,NE,45,0.2,2.2,30,0.00,,---,0.00,VWS V14.01,2013-03-30 22:26:00,
2013-03-30 18:27:00,63.7,31.7,29.76,North,0,0.5,1.6,30,0.00,,---,0.00,VWS V14.01,2013-03-30 22:27:00,
2013-03-30 18:28:00,63.7,31.7,29.76,NW,315,0.9,2.9,30,0.00,,---,0.00,VWS V14.01,2013-03-30 22:28:00,
2013-03-30 18:29:00,63.7,31.7,29.76,NW,315,0.2,2.9,30,0.00,,---,0.00,VWS V14.01,2013-03-30 22:29:00,
2013-03-30 18:30:00,63.9,31.9,29.76,WSW,248,0.2,0.0,30,0.00,,---,0.00,VWS V14.01,2013-03-30 22:30:00,
2013-03-30 18:31:00,63.9,31.9,29.76,NW,315,0.0,2.7,30,0.00,,---,0.00,VWS V14.01,2013-03-30 22:31:00,
2013-03-30 18:32:00,63.9,31.9,29.76,North,0,0.5,2.5,30,0.00,,---,0.00,VWS V14.01,2013-03-30 22:32:00,
2013-03-30 18:33:00,63.7,31.7,29.76,East,90,0.7,2.7,30,0.00,,---,0.00,VWS V14.01,2013-03-30 22:33:00,
2013-03-30 18:34:00,63.7,31.7,29.76,NW,315,0.9,2.9,30,0.00,,---,0.00,VWS V14.01,2013-03-30 22:34:00,
2013-03-30 18:35:00,63.7,32.5,29.76,ENE,68,1.4,4.0,31,0.00,,---,0.00,VWS V14.01,2013-03-30 22:35:00,
2013-03-30 18:36:00,63.7,31.7,29.76,North,0,0.9,2.9,30,0.00,,---,0.00,VWS V14.01,2013-03-30 22:36:00,
2013-03-30 18:37:00,63.7,31.7,29.76,NNE,22,0.9,2.9,30,0.00,,---,0.00,VWS V14.01,2013-03-30 22:37:00,
2013-03-30 18:38:00,63.7,31.7,29.76,ENE,68,0.0,2.2,30,0.00,,---,0.00,VWS V14.01,2013-03-30 22:38:00,
2013-03-30 18:39:00,63.7,31.7,29.76,East,90,0.7,2.7,30,0.00,,---,0.00,VWS V14.01,2013-03-30 22:39:00,
2013-03-30 18:40:00,63.5,32.3,29.76,NNW,338,0.9,2.9,31,0.00,,---,0.00,VWS V14.01,2013-03-30 22:40:00,
2013-03-30 18:41:00,63.3,32.2,29.76,ENE,68,0.2,4.3,31,0.00,,---,0.00,VWS V14.01,2013-03-30 22:41:00,
2013-03-30 18:42:00,63.5,32.3,29.76,West,270,0.9,2.9,31,0.00,,---,0.00,VWS V14.01,2013-03-30 22:42:00,
2013-03-30 18:43:00,63.3,32.2,29.76,East,90,0.5,2.5,31,0.00,,---,0.00,VWS V14.01,2013-03-30 22:43:00,
2013-03-30 18:44:00,63.5,32.3,29.76,East,90,0.2,0.9,31,0.00,,---,0.00,VWS V14.01,2013-03-30 22:44:00,
2013-03-30 18:45:00,63.5,32.3,29.76,NNW,338,0.9,2.9,31,0.00,,---,0.00,VWS V14.01,2013-03-30 22:45:00,
2013-03-30 18:46:00,63.1,32.0,29.76,East,90,0.0,2.5,31,0.00,,---,0.00,VWS V14.01,2013-03-30 22:46:00,
2013-03-30 18:47:00,63.1,32.0,29.76,ENE,68,0.0,2.0,31,0.00,,---,0.00,VWS V14.01,2013-03-30 22:47:00,
2013-03-30 18:48:00,63.3,32.2,29.76,ESE,112,0.9,2.9,31,0.00,,---,0.00,VWS V14.01,2013-03-30 22:48:00,
2013-03-30 18:49:00,63.1,32.0,29.76,East,90,0.0,2.0,31,0.00,,---,0.00,VWS V14.01,2013-03-30 22:49:00,
2013-03-30 18:50:00,63.3,32.2,29.76,East,90,0.5,2.5,31,0.00,,---,0.00,VWS V14.01,2013-03-30 22:50:00,
2013-03-30 18:51:00,63.1,32.0,29.76,East,90,0.0,1.3,31,0.00,,---,0.00,VWS V14.01,2013-03-30 22:51:00,
2013-03-30 18:52:00,63.1,32.0,29.76,East,90,0.0,0.0,31,0.00,,---,0.00,VWS V14.01,2013-03-30 22:52:00,
2013-03-30 18:53:00,63.1,32.0,29.76,ENE,68,0.0,2.0,31,0.00,,---,0.00,VWS V14.01,2013-03-30 22:53:00,
2013-03-30 18:54:00,63.1,32.0,29.76,ESE,112,0.0,2.0,31,0.00,,---,0.00,VWS V14.01,2013-03-30 22:54:00,
2013-03-30 18:55:00,63.1,32.0,29.76,East,90,0.0,2.0,31,0.00,,---,0.00,VWS V14.01,2013-03-30 22:55:00,
2013-03-30 18:56:00,63.1,32.0,29.76,East,90,0.0,1.1,31,0.00,,---,0.00,VWS V14.01,2013-03-30 22:56:00,
2013-03-30 18:57:00,63.1,32.0,29.76,East,90,0.0,1.3,31,0.00,,---,0.00,VWS V14.01,2013-03-30 22:57:00,
2013-03-30 18:58:00,63.0,31.9,29.76,NNE,22,0.0,0.0,31,0.00,,---,0.00,VWS V14.01,2013-03-30 22:58:00,
2013-03-30 18:59:00,63.1,32.0,29.76,East,90,0.0,0.0,31,0.00,,---,0.00,VWS V14.01,2013-03-30 22:59:00,
2013-03-30 19:00:00,63.0,31.9,29.76,NNE,22,0.0,0.0,31,0.00,,---,0.00,VWS V14.01,2013-03-30 23:00:00,
2013-03-30 19:01:00,63.0,31.9,29.76,NNE,22,0.0,0.0,31,0.00,,---,0.00,VWS V14.01,2013-03-30 23:01:00,
2013-03-30 19:02:00,63.0,31.9,29.76,NNE,22,0.0,0.0,31,0.00,,---,0.00,VWS V14.01,2013-03-30 23:02:00,
2013-03-30 19:03:00,63.0,31.9,29.76,NNE,22,0.0,2.0,31,0.00,,---,0.00,VWS V14.01,2013-03-30 23:03:00,
2013-03-30 19:04:00,62.8,31.7,29.76,NNE,22,0.0,2.0,31,0.00,,---,0.00,VWS V14.01,2013-03-30 23:04:00,
2013-03-30 19:05:00,63.0,31.9,29.76,NNE,22,0.0,0.0,31,0.00,,---,0.00,VWS V14.01,2013-03-30 23:05:00,
2013-03-30 19:06:00,63.0,31.9,29.76,NNE,22,0.0,0.0,31,0.00,,---,0.00,VWS V14.01,2013-03-30 23:06:00,
2013-03-30 19:07:00,62.8,32.5,29.76,NNE,22,0.0,0.0,32,0.00,,---,0.00,VWS V14.01,2013-03-30 23:07:00,
2013-03-30 19:08:00,63.0,31.9,29.76,NE,45,0.0,0.0,31,0.00,,---,0.00,VWS V14.01,2013-03-30 23:08:00,
2013-03-30 19:09:00,63.0,31.9,29.76,NNE,22,0.0,2.0,31,0.00,,---,0.00,VWS V14.01,2013-03-30 23:09:00,
2013-03-30 19:10:00,62.6,32.3,29.76,NNE,22,0.0,0.0,32,0.00,,---,0.00,VWS V14.01,2013-03-30 23:10:00,
2013-03-30 19:11:00,62.8,32.5,29.76,NNE,22,0.0,0.0,32,0.00,,---,0.00,VWS V14.01,2013-03-30 23:11:00,
2013-03-30 19:12:00,62.8,32.5,29.76,NNE,22,0.0,0.0,32,0.00,,---,0.00,VWS V14.01,2013-03-30 23:12:00,
2013-03-30 19:13:00,62.8,32.5,29.76,NNE,22,0.0,0.0,32,0.00,,---,0.00,VWS V14.01,2013-03-30 23:13:00,
2013-03-30 19:14:00,62.4,32.2,29.76,NNE,22,0.0,0.0,32,0.00,,---,0.00,VWS V14.01,2013-03-30 23:14:00,
2013-03-30 19:15:00,62.4,32.2,29.76,NNE,22,0.0,0.0,32,0.00,,---,0.00,VWS V14.01,2013-03-30 23:15:00,
2013-03-30 19:16:00,62.4,32.2,29.76,NNE,22,0.0,0.0,32,0.00,,---,0.00,VWS V14.01,2013-03-30 23:16:00,
2013-03-30 19:17:00,62.2,32.0,29.76,NNE,22,0.0,0.0,32,0.00,,---,0.00,VWS V14.01,2013-03-30 23:17:00,
2013-03-30 19:18:00,62.6,32.3,29.76,NNE,22,0.0,0.0,32,0.00,,---,0.00,VWS V14.01,2013-03-30 23:18:00,
2013-03-30 19:19:00,62.4,32.2,29.76,NNE,22,0.0,0.0,32,0.00,,---,0.00,VWS V14.01,2013-03-30 23:19:00,
2013-03-30 19:20:00,62.4,32.2,29.76,NNE,22,0.0,0.0,32,0.00,,---,0.00,VWS V14.01,2013-03-30 23:20:00,
2013-03-30 19:21:00,62.4,32.2,29.76,NNE,22,0.0,0.0,32,0.00,,---,0.00,VWS V14.01,2013-03-30 23:21:00,
2013-03-30 19:22:00,62.4,32.2,29.76,NNE,22,0.0,0.0,32,0.00,,---,0.00,VWS V14.01,2013-03-30 23:22:00,
2013-03-30 19:23:00,62.1,32.6,29.76,NNE,22,0.0,1.3,33,0.00,,---,0.00,VWS V14.01,2013-03-30 23:23:00,
2013-03-30 19:24:00,61.9,32.5,29.76,NNE,22,0.0,0.0,33,0.00,,---,0.00,VWS V14.01,2013-03-30 23:24:00,
2013-03-30 19:25:00,62.2,32.0,29.76,NNE,22,0.0,0.0,32,0.00,,---,0.00,VWS V14.01,2013-03-30 23:25:00,
2013-03-30 19:26:00,62.1,32.6,29.76,NNE,22,0.0,0.0,33,0.00,,---,0.00,VWS V14.01,2013-03-30 23:26:00,
2013-03-30 19:27:00,62.1,32.6,29.76,NNE,22,0.0,0.0,33,0.00,,---,0.00,VWS V14.01,2013-03-30 23:27:00,
2013-03-30 19:28:00,61.7,32.3,29.76,NNE,22,0.0,1.3,33,0.00,,---,0.00,VWS V14.01,2013-03-30 23:28:00,
2013-03-30 19:29:00,61.7,32.3,29.76,NNE,22,0.0,0.0,33,0.00,,---,0.00,VWS V14.01,2013-03-30 23:29:00,
2013-03-30 19:30:00,61.7,32.3,29.76,NNE,22,0.0,0.0,33,0.00,,---,0.00,VWS V14.01,2013-03-30 23:30:00,
2013-03-30 19:31:00,61.9,32.5,29.76,NNE,22,0.0,0.0,33,0.00,,---,0.00,VWS V14.01,2013-03-30 23:31:00,
2013-03-30 19:32:00,61.9,32.5,29.76,NNE,22,0.0,2.0,33,0.00,,---,0.00,VWS V14.01,2013-03-30 23:32:00,
2013-03-30 19:33:00,61.5,32.2,29.76,NNE,22,0.0,0.0,33,0.00,,---,0.00,VWS V14.01,2013-03-30 23:33:00,
2013-03-30 19:34:00,61.5,32.2,29.76,NNE,22,0.0,0.0,33,0.00,,---,0.00,VWS V14.01,2013-03-30 23:34:00,
2013-03-30 19:35:00,61.7,32.3,29.76,NNE,22,0.0,0.0,33,0.00,,---,0.00,VWS V14.01,2013-03-30 23:35:00,
2013-03-30 19:36:00,61.7,32.3,29.76,NNE,22,0.0,0.0,33,0.00,,---,0.00,VWS V14.01,2013-03-30 23:36:00,
2013-03-30 19:37:00,61.7,32.3,29.76,NNE,22,0.0,0.0,33,0.00,,---,0.00,VWS V14.01,2013-03-30 23:37:00,
2013-03-30 19:38:00,61.7,32.3,29.76,NNE,22,0.0,0.0,33,0.00,,---,0.00,VWS V14.01,2013-03-30 23:38:00,
2013-03-30 19:39:00,61.3,32.8,29.76,NNE,22,0.0,0.0,34,0.00,,---,0.00,VWS V14.01,2013-03-30 23:39:00,
2013-03-30 19:40:00,61.2,32.6,29.76,NNE,22,0.0,0.0,34,0.00,,---,0.00,VWS V14.01,2013-03-30 23:40:00,
2013-03-30 19:41:00,61.2,32.6,29.76,NNE,22,0.0,0.0,34,0.00,,---,0.00,VWS V14.01,2013-03-30 23:41:00,
2013-03-30 19:42:00,61.3,32.0,29.76,NNE,22,0.0,0.0,33,0.00,,---,0.00,VWS V14.01,2013-03-30 23:42:00,
2013-03-30 19:43:00,61.3,32.8,29.76,NNE,22,0.0,0.0,34,0.00,,---,0.00,VWS V14.01,2013-03-30 23:43:00,
2013-03-30 19:44:00,61.3,32.8,29.76,NNE,22,0.0,0.0,34,0.00,,---,0.00,VWS V14.01,2013-03-30 23:44:00,
2013-03-30 19:45:00,61.0,32.4,29.76,NNE,22,0.0,0.0,34,0.00,,---,0.00,VWS V14.01,2013-03-30 23:45:00,
2013-03-30 19:46:00,60.8,32.3,29.76,NNE,22,0.0,0.0,34,0.00,,---,0.00,VWS V14.01,2013-03-30 23:46:00,
2013-03-30 19:47:00,60.8,32.3,29.76,NNE,22,0.0,0.0,34,0.00,,---,0.00,VWS V14.01,2013-03-30 23:47:00,
2013-03-30 19:48:00,61.2,32.6,29.76,NNE,22,0.0,0.0,34,0.00,,---,0.00,VWS V14.01,2013-03-30 23:48:00,
2013-03-30 19:49:00,60.6,32.1,29.76,NNE,22,0.0,0.0,34,0.00,,---,0.00,VWS V14.01,2013-03-30 23:49:00,
2013-03-30 19:50:00,61.0,32.4,29.76,NNE,22,0.0,0.0,34,0.00,,---,0.00,VWS V14.01,2013-03-30 23:50:00,
2013-03-30 19:51:00,61.0,32.4,29.76,NNE,22,0.0,0.0,34,0.00,,---,0.00,VWS V14.01,2013-03-30 23:51:00,
2013-03-30 19:52:00,60.6,32.1,29.76,NNE,22,0.0,1.1,34,0.00,,---,0.00,VWS V14.01,2013-03-30 23:52:00,
2013-03-30 19:53:00,60.8,32.3,29.76,NNE,22,0.0,0.0,34,0.00,,---,0.00,VWS V14.01,2013-03-30 23:53:00,
2013-03-30 19:54:00,60.8,32.3,29.76,NNE,22,0.0,0.0,34,0.00,,---,0.00,VWS V14.01,2013-03-30 23:54:00,
2013-03-30 19:55:00,60.6,32.1,29.76,NNE,22,0.0,0.0,34,0.00,,---,0.00,VWS V14.01,2013-03-30 23:55:00,
2013-03-30 19:56:00,60.6,32.1,29.76,NNE,22,0.0,0.0,34,0.00,,---,0.00,VWS V14.01,2013-03-30 23:56:00,
2013-03-30 19:57:00,60.6,32.1,29.76,NNE,22,0.0,1.1,34,0.00,,---,0.00,VWS V14.01,2013-03-30 23:57:00,
2013-03-30 19:58:00,60.3,31.8,29.76,ESE,112,0.0,1.1,34,0.00,,---,0.00,VWS V14.01,2013-03-30 23:58:00,
2013-03-30 19:59:00,60.1,31.6,29.76,NE,45,0.0,1.6,34,0.00,,---,0.00,VWS V14.01,2013-03-30 23:59:00,
2013-03-30 20:00:00,60.4,32.0,29.76,NNE,22,0.0,0.0,34,0.00,,---,0.00,VWS V14.01,2013-03-31 00:00:00,
2013-03-30 20:01:00,60.4,32.0,29.76,NNE,22,0.0,0.0,34,0.00,,---,0.00,VWS V14.01,2013-03-31 00:01:00,
2013-03-30 20:02:00,60.4,32.0,29.76,NNE,22,0.0,1.1,34,0.00,,---,0.00,VWS V14.01,2013-03-31 00:02:00,
2013-03-30 20:03:00,59.7,31.3,29.76,NE,45,0.0,0.0,34,0.00,,---,0.00,VWS V14.01,2013-03-31 00:03:00,
2013-03-30 20:04:00,59.7,31.3,29.76,NNW,338,0.0,1.3,34,0.00,,---,0.00,VWS V14.01,2013-03-31 00:04:00,
2013-03-30 20:05:00,59.5,31.2,29.76,ENE,68,0.5,2.5,34,0.00,,---,0.00,VWS V14.01,2013-03-31 00:05:00,
2013-03-30 20:06:00,60.1,31.6,29.76,NE,45,0.0,1.6,34,0.00,,---,0.00,VWS V14.01,2013-03-31 00:06:00,
2013-03-30 20:07:00,59.5,31.2,29.76,ENE,68,0.5,1.6,34,0.00,,---,0.00,VWS V14.01,2013-03-31 00:07:00,
2013-03-30 20:08:00,59.9,31.5,29.76,NE,45,0.0,0.0,34,0.00,,---,0.00,VWS V14.01,2013-03-31 00:08:00,
2013-03-30 20:09:00,59.7,31.3,29.76,NE,45,0.0,0.0,34,0.00,,---,0.00,VWS V14.01,2013-03-31 00:09:00,
2013-03-30 20:10:00,59.7,31.3,29.76,NNW,338,0.0,1.3,34,0.00,,---,0.00,VWS V14.01,2013-03-31 00:10:00,
2013-03-30 20:11:00,59.4,31.0,29.76,NE,45,0.5,1.6,34,0.00,,---,0.00,VWS V14.01,2013-03-31 00:11:00,
2013-03-30 20:12:00,59.4,31.0,29.76,ENE,68,0.5,0.0,34,0.00,,---,0.00,VWS V14.01,2013-03-31 00:12:00,
2013-03-30 20:13:00,59.5,31.2,29.76,ENE,68,0.5,0.9,34,0.00,,---,0.00,VWS V14.01,2013-03-31 00:13:00,
2013-03-30 20:14:00,59.4,31.7,29.76,ENE,68,0.5,0.0,35,0.00,,---,0.00,VWS V14.01,2013-03-31 00:14:00,
2013-03-30 20:15:00,59.4,31.0,29.76,NE,45,0.5,1.6,34,0.00,,---,0.00,VWS V14.01,2013-03-31 00:15:00,
2013-03-30 20:16:00,59.4,31.0,29.76,NE,45,0.5,1.6,34,0.00,,---,0.00,VWS V14.01,2013-03-31 00:16:00,
2013-03-30 20:17:00,59.2,31.6,29.76,ENE,68,0.5,0.0,35,0.00,,---,0.00,VWS V14.01,2013-03-31 00:17:00,
2013-03-30 20:18:00,59.2,31.6,29.76,ENE,68,0.5,0.0,35,0.00,,---,0.00,VWS V14.01,2013-03-31 00:18:00,
2013-03-30 20:19:00,59.4,31.7,29.76,ENE,68,0.5,0.0,35,0.00,,---,0.00,VWS V14.01,2013-03-31 00:19:00,
2013-03-30 20:20:00,59.4,31.7,29.76,ENE,68,0.5,0.0,35,0.00,,---,0.00,VWS V14.01,2013-03-31 00:20:00,
2013-03-30 20:21:00,59.2,31.6,29.76,ENE,68,0.5,0.0,35,0.00,,---,0.00,VWS V14.01,2013-03-31 00:21:00,
2013-03-30 20:22:00,59.4,31.7,29.76,ENE,68,0.5,0.0,35,0.00,,---,0.00,VWS V14.01,2013-03-31 00:22:00,
2013-03-30 20:23:00,59.2,31.6,29.76,ENE,68,0.5,0.0,35,0.00,,---,0.00,VWS V14.01,2013-03-31 00:23:00,
2013-03-30 20:24:00,58.8,31.2,29.76,NNE,22,0.5,0.0,35,0.00,,---,0.00,VWS V14.01,2013-03-31 00:24:00,
2013-03-30 20:25:00,59.2,31.6,29.76,ENE,68,0.5,0.0,35,0.00,,---,0.00,VWS V14.01,2013-03-31 00:25:00,
2013-03-30 20:26:00,58.8,31.2,29.76,NNE,22,0.5,0.0,35,0.00,,---,0.00,VWS V14.01,2013-03-31 00:26:00,
2013-03-30 20:27:00,58.8,31.2,29.76,NNE,22,0.5,0.0,35,0.00,,---,0.00,VWS V14.01,2013-03-31 00:27:00,
2013-03-30 20:28:00,59.0,31.4,29.76,ENE,68,0.5,0.0,35,0.00,,---,0.00,VWS V14.01,2013-03-31 00:28:00,
2013-03-30 20:29:00,58.6,31.8,29.76,NNE,22,0.5,0.0,36,0.00,,---,0.00,VWS V14.01,2013-03-31 00:29:00,
2013-03-30 20:30:00,58.8,31.2,29.76,NNE,22,0.5,0.0,35,0.00,,---,0.00,VWS V14.01,2013-03-31 00:30:00,
2013-03-30 20:32:00,58.6,31.8,29.76,NNE,22,0.5,0.0,36,0.00,,---,0.00,VWS V14.01,2013-03-31 00:32:00,
2013-03-30 20:33:00,58.8,31.2,29.76,NNE,22,0.5,0.0,35,0.00,,---,0.00,VWS V14.01,2013-03-31 00:33:00,
2013-03-30 20:34:00,58.8,31.2,29.76,NNE,22,0.5,0.0,35,0.00,,---,0.00,VWS V14.01,2013-03-31 00:34:00,
2013-03-30 20:35:00,58.6,31.8,29.76,NNE,22,0.5,0.0,36,0.00,,---,0.00,VWS V14.01,2013-03-31 00:35:00,
2013-03-30 20:36:00,58.6,31.8,29.76,NNE,22,0.5,0.0,36,0.00,,---,0.00,VWS V14.01,2013-03-31 00:36:00,
2013-03-30 20:37:00,58.5,31.6,29.76,NNE,22,0.5,0.0,36,0.00,,---,0.00,VWS V14.01,2013-03-31 00:37:00,
2013-03-30 20:38:00,58.6,31.8,29.76,NNE,22,0.5,0.0,36,0.00,,---,0.00,VWS V14.01,2013-03-31 00:38:00,
2013-03-30 20:39:00,58.5,31.6,29.76,NNE,22,0.5,0.0,36,0.00,,---,0.00,VWS V14.01,2013-03-31 00:39:00,
2013-03-30 20:40:00,58.5,31.6,29.76,NNE,22,0.5,0.0,36,0.00,,---,0.00,VWS V14.01,2013-03-31 00:40:00,
2013-03-30 20:41:00,58.3,31.5,29.76,NNE,22,0.5,0.0,36,0.00,,---,0.00,VWS V14.01,2013-03-31 00:41:00,
2013-03-30 20:42:00,58.5,31.6,29.76,NNE,22,0.5,0.0,36,0.00,,---,0.00,VWS V14.01,2013-03-31 00:42:00,
2013-03-30 20:43:00,58.5,31.6,29.76,NNE,22,0.5,0.0,36,0.00,,---,0.00,VWS V14.01,2013-03-31 00:43:00,
2013-03-30 20:44:00,58.1,31.3,29.76,NNE,22,0.5,0.0,36,0.00,,---,0.00,VWS V14.01,2013-03-31 00:44:00,
2013-03-30 20:45:00,58.1,31.3,29.76,NNE,22,0.5,0.0,36,0.00,,---,0.00,VWS V14.01,2013-03-31 00:45:00,
2013-03-30 20:46:00,58.3,31.5,29.76,NNE,22,0.5,0.0,36,0.00,,---,0.00,VWS V14.01,2013-03-31 00:46:00,
2013-03-30 20:47:00,58.1,31.3,29.76,NNE,22,0.5,0.0,36,0.00,,---,0.00,VWS V14.01,2013-03-31 00:47:00,
2013-03-30 20:48:00,58.3,31.5,29.76,NNE,22,0.5,0.0,36,0.00,,---,0.00,VWS V14.01,2013-03-31 00:48:00,
2013-03-30 20:49:00,58.3,31.5,29.76,NNE,22,0.5,0.0,36,0.00,,---,0.00,VWS V14.01,2013-03-31 00:49:00,
2013-03-30 20:50:00,57.9,31.1,29.76,NNE,22,0.5,0.0,36,0.00,,---,0.00,VWS V14.01,2013-03-31 00:50:00,
2013-03-30 20:51:00,57.7,31.7,29.76,NNE,22,0.5,0.0,37,0.00,,---,0.00,VWS V14.01,2013-03-31 00:51:00,
2013-03-30 20:52:00,58.1,31.3,29.76,NNE,22,0.5,0.0,36,0.00,,---,0.00,VWS V14.01,2013-03-31 00:52:00,
2013-03-30 20:53:00,57.6,31.5,29.76,NNE,22,0.5,0.0,37,0.00,,---,0.00,VWS V14.01,2013-03-31 00:53:00,
2013-03-30 20:54:00,57.9,31.1,29.76,NNE,22,0.5,0.0,36,0.00,,---,0.00,VWS V14.01,2013-03-31 00:54:00,
2013-03-30 20:55:00,57.4,31.3,29.74,NNE,22,0.5,0.0,37,0.00,,---,0.00,VWS V14.01,2013-03-31 00:55:00,
2013-03-30 20:56:00,57.9,31.1,29.76,NNE,22,0.5,0.0,36,0.00,,---,0.00,VWS V14.01,2013-03-31 00:56:00,
2013-03-30 20:57:00,57.7,31.7,29.76,NNE,22,0.5,0.0,37,0.00,,---,0.00,VWS V14.01,2013-03-31 00:57:00,
2013-03-30 20:58:00,57.2,31.2,29.74,NNE,22,0.5,0.0,37,0.00,,---,0.00,VWS V14.01,2013-03-31 00:58:00,
2013-03-30 20:59:00,57.6,31.5,29.76,NNE,22,0.5,0.0,37,0.00,,---,0.00,VWS V14.01,2013-03-31 00:59:00,
2013-03-30 21:00:00,57.6,31.5,29.74,NNE,22,0.5,0.0,37,0.00,,---,0.00,VWS V14.01,2013-03-31 01:00:00,
2013-03-30 21:01:00,57.4,31.3,29.74,NNE,22,0.5,0.0,37,0.00,,---,0.00,VWS V14.01,2013-03-31 01:01:00,
2013-03-30 21:02:00,56.7,31.4,29.74,NNE,22,0.5,0.0,38,0.00,,---,0.00,VWS V14.01,2013-03-31 01:02:00,
2013-03-30 21:03:00,57.4,31.3,29.74,NNE,22,0.5,0.0,37,0.00,,---,0.00,VWS V14.01,2013-03-31 01:03:00,
2013-03-30 21:04:00,56.7,32.6,29.74,NNW,338,0.5,0.0,40,0.00,,---,0.00,VWS V14.01,2013-03-31 01:04:00,
2013-03-30 21:05:00,56.5,32.5,29.74,NNW,338,0.5,0.0,40,0.00,,---,0.00,VWS V14.01,2013-03-31 01:05:00,
2013-03-30 21:06:00,56.8,31.5,29.74,NNE,22,0.5,0.0,38,0.00,,---,0.00,VWS V14.01,2013-03-31 01:06:00,
2013-03-30 21:07:00,56.8,31.5,29.74,NNE,22,0.5,0.0,38,0.00,,---,0.00,VWS V14.01,2013-03-31 01:07:00,
2013-03-30 21:08:00,56.1,34.0,29.74,NNW,338,0.5,0.0,43,0.00,,---,0.00,VWS V14.01,2013-03-31 01:08:00,
2013-03-30 21:09:00,56.7,31.4,29.74,NNW,338,0.5,0.0,38,0.00,,---,0.00,VWS V14.01,2013-03-31 01:09:00,
2013-03-30 21:10:00,55.9,33.8,29.76,NNW,338,0.5,0.0,43,0.00,,---,0.00,VWS V14.01,2013-03-31 01:10:00,
2013-03-30 21:11:00,56.5,32.5,29.74,NNW,338,0.5,0.0,40,0.00,,---,0.00,VWS V14.01,2013-03-31 01:11:00,
2013-03-30 21:12:00,55.9,33.8,29.76,NNW,338,0.5,0.0,43,0.00,,---,0.00,VWS V14.01,2013-03-31 01:12:00,
2013-03-30 21:13:00,56.3,35.2,29.74,NNW,338,0.5,0.0,45,0.00,,---,0.00,VWS V14.01,2013-03-31 01:13:00,
2013-03-30 21:14:00,56.1,34.0,29.74,NNW,338,0.5,0.0,43,0.00,,---,0.00,VWS V14.01,2013-03-31 01:14:00,
2013-03-30 21:15:00,55.9,34.4,29.76,NNW,338,0.5,0.0,44,0.00,,---,0.00,VWS V14.01,2013-03-31 01:15:00,
2013-03-30 21:16:00,55.4,34.4,29.76,NNW,338,0.5,0.0,45,0.00,,---,0.00,VWS V14.01,2013-03-31 01:16:00,
2013-03-30 21:17:00,55.4,34.4,29.76,NNW,338,0.5,0.0,45,0.00,,---,0.00,VWS V14.01,2013-03-31 01:17:00,
2013-03-30 21:18:00,55.8,33.6,29.76,NNW,338,0.5,0.0,43,0.00,,---,0.00,VWS V14.01,2013-03-31 01:18:00,
2013-03-30 21:19:00,55.2,34.8,29.76,NNW,338,0.5,0.0,46,0.00,,---,0.00,VWS V14.01,2013-03-31 01:19:00,
2013-03-30 21:20:00,55.6,34.0,29.76,NNW,338,0.5,0.0,44,0.00,,---,0.00,VWS V14.01,2013-03-31 01:20:00,
2013-03-30 21:21:00,55.6,34.0,29.76,NNW,338,0.5,0.0,44,0.00,,---,0.00,VWS V14.01,2013-03-31 01:21:00,
2013-03-30 21:22:00,55.4,34.4,29.76,NNW,338,0.5,0.0,45,0.00,,---,0.00,VWS V14.01,2013-03-31 01:22:00,
2013-03-30 21:23:00,55.4,34.4,29.76,NNW,338,0.5,0.0,45,0.00,,---,0.00,VWS V14.01,2013-03-31 01:23:00,
2013-03-30 21:24:00,55.2,34.8,29.76,NNW,338,0.5,0.0,46,0.00,,---,0.00,VWS V14.01,2013-03-31 01:24:00,
2013-03-30 21:25:00,54.9,34.5,29.76,NNE,22,0.0,0.0,46,0.00,,---,0.00,VWS V14.01,2013-03-31 01:25:00,
2013-03-30 21:26:00,54.9,34.5,29.76,NNE,22,0.0,0.0,46,0.00,,---,0.00,VWS V14.01,2013-03-31 01:26:00,
2013-03-30 21:27:00,55.0,34.7,29.76,NW,315,0.0,0.9,46,0.00,,---,0.00,VWS V14.01,2013-03-31 01:27:00,
2013-03-30 21:28:00,55.0,34.7,29.76,NNE,22,0.0,0.0,46,0.00,,---,0.00,VWS V14.01,2013-03-31 01:28:00,
2013-03-30 21:29:00,54.9,34.5,29.76,NNE,22,0.0,0.0,46,0.00,,---,0.00,VWS V14.01,2013-03-31 01:29:00,
2013-03-30 21:30:00,54.7,34.3,29.76,NNE,22,0.0,0.0,46,0.00,,---,0.00,VWS V14.01,2013-03-31 01:30:00,
2013-03-30 21:31:00,54.9,34.5,29.76,NNE,22,0.0,0.0,46,0.00,,---,0.00,VWS V14.01,2013-03-31 01:31:00,
2013-03-30 21:32:00,54.5,34.2,29.76,NNE,22,0.0,0.0,46,0.00,,---,0.00,VWS V14.01,2013-03-31 01:32:00,
2013-03-30 21:33:00,54.7,34.3,29.76,NNE,22,0.0,0.0,46,0.00,,---,0.00,VWS V14.01,2013-03-31 01:33:00,
2013-03-30 21:34:00,54.7,34.3,29.76,NNE,22,0.0,0.0,46,0.00,,---,0.00,VWS V14.01,2013-03-31 01:34:00,
2013-03-30 21:35:00,54.7,34.3,29.76,NNE,22,0.0,0.0,46,0.00,,---,0.00,VWS V14.01,2013-03-31 01:35:00,
2013-03-30 21:36:00,54.5,34.7,29.76,NNE,22,0.0,0.0,47,0.00,,---,0.00,VWS V14.01,2013-03-31 01:36:00,
2013-03-30 21:37:00,54.5,34.2,29.76,NNE,22,0.0,0.0,46,0.00,,---,0.00,VWS V14.01,2013-03-31 01:37:00,
2013-03-30 21:38:00,54.5,34.2,29.76,NNE,22,0.0,0.0,46,0.00,,---,0.00,VWS V14.01,2013-03-31 01:38:00,
2013-03-30 21:39:00,54.5,34.2,29.76,NNE,22,0.0,0.0,46,0.00,,---,0.00,VWS V14.01,2013-03-31 01:39:00,
2013-03-30 21:40:00,54.5,34.2,29.76,NNE,22,0.0,0.0,46,0.00,,---,0.00,VWS V14.01,2013-03-31 01:40:00,
2013-03-30 21:41:00,54.3,34.0,29.76,NNE,22,0.0,0.0,46,0.00,,---,0.00,VWS V14.01,2013-03-31 01:41:00,
2013-03-30 21:42:00,54.3,34.0,29.76,NNE,22,0.0,0.0,46,0.00,,---,0.00,VWS V14.01,2013-03-31 01:42:00,
2013-03-30 21:43:00,54.5,34.2,29.76,NNE,22,0.0,0.0,46,0.00,,---,0.00,VWS V14.01,2013-03-31 01:43:00,
2013-03-30 21:44:00,54.3,34.0,29.76,NNE,22,0.0,0.0,46,0.00,,---,0.00,VWS V14.01,2013-03-31 01:44:00,
2013-03-30 21:45:00,54.3,34.0,29.76,NNE,22,0.0,0.0,46,0.00,,---,0.00,VWS V14.01,2013-03-31 01:45:00,
2013-03-30 21:46:00,54.3,34.0,29.76,NNE,22,0.0,0.0,46,0.00,,---,0.00,VWS V14.01,2013-03-31 01:46:00,
2013-03-30 21:47:00,54.3,34.0,29.76,NNE,22,0.0,0.0,46,0.00,,---,0.00,VWS V14.01,2013-03-31 01:47:00,
2013-03-30 21:48:00,54.3,34.0,29.76,NNE,22,0.0,0.0,46,0.00,,---,0.00,VWS V14.01,2013-03-31 01:48:00,
2013-03-30 21:49:00,54.1,33.8,29.76,NNE,22,0.0,0.0,46,0.00,,---,0.00,VWS V14.01,2013-03-31 01:49:00,
2013-03-30 21:50:00,54.1,33.8,29.76,NNE,22,0.0,0.0,46,0.00,,---,0.00,VWS V14.01,2013-03-31 01:50:00,
2013-03-30 21:51:00,54.1,34.4,29.76,NNE,22,0.0,0.0,47,0.00,,---,0.00,VWS V14.01,2013-03-31 01:51:00,
2013-03-30 21:52:00,54.1,33.8,29.76,NNE,22,0.0,0.0,46,0.00,,---,0.00,VWS V14.01,2013-03-31 01:52:00,
2013-03-30 21:53:00,54.1,33.8,29.76,NNE,22,0.0,0.0,46,0.00,,---,0.00,VWS V14.01,2013-03-31 01:53:00,
2013-03-30 21:54:00,54.1,33.8,29.76,NNE,22,0.0,0.0,46,0.00,,---,0.00,VWS V14.01,2013-03-31 01:54:00,
2013-03-30 21:55:00,54.0,34.2,29.76,NNE,22,0.0,0.0,47,0.00,,---,0.00,VWS V14.01,2013-03-31 01:55:00,
2013-03-30 21:56:00,54.0,35.2,29.76,NNE,22,0.0,0.0,49,0.00,,---,0.00,VWS V14.01,2013-03-31 01:56:00,
2013-03-30 21:57:00,54.1,34.4,29.76,NNE,22,0.0,0.0,47,0.00,,---,0.00,VWS V14.01,2013-03-31 01:57:00,
2013-03-30 21:58:00,53.8,34.6,29.76,NNE,22,0.0,0.0,48,0.00,,---,0.00,VWS V14.01,2013-03-31 01:58:00,
2013-03-30 21:59:00,54.0,34.2,29.76,NNE,22,0.0,0.0,47,0.00,,---,0.00,VWS V14.01,2013-03-31 01:59:00,
2013-03-30 22:00:00,53.6,33.9,29.76,NNE,22,0.0,0.0,47,0.00,,---,0.00,VWS V14.01,2013-03-31 02:00:00,
2013-03-30 22:01:00,54.0,34.2,29.76,NNE,22,0.0,0.0,47,0.00,,---,0.00,VWS V14.01,2013-03-31 02:01:00,
2013-03-30 22:02:00,54.0,35.2,29.76,NNE,22,0.0,0.0,49,0.00,,---,0.00,VWS V14.01,2013-03-31 02:02:00,
2013-03-30 22:03:00,53.6,33.9,29.76,NNE,22,0.0,0.0,47,0.00,,---,0.00,VWS V14.01,2013-03-31 02:03:00,
2013-03-30 22:04:00,53.8,34.6,29.76,NNE,22,0.0,0.0,48,0.00,,---,0.00,VWS V14.01,2013-03-31 02:04:00,
2013-03-30 22:05:00,53.6,33.9,29.76,NNE,22,0.0,0.0,47,0.00,,---,0.00,VWS V14.01,2013-03-31 02:05:00,
2013-03-30 22:06:00,53.4,34.2,29.76,NNE,22,0.0,0.0,48,0.00,,---,0.00,VWS V14.01,2013-03-31 02:06:00,
2013-03-30 22:07:00,53.6,33.9,29.76,NNE,22,0.0,0.0,47,0.00,,---,0.00,VWS V14.01,2013-03-31 02:07:00,
2013-03-30 22:08:00,53.2,34.6,29.76,NNE,22,0.0,0.0,49,0.00,,---,0.00,VWS V14.01,2013-03-31 02:08:00,
2013-03-30 22:09:00,53.6,33.9,29.76,NNE,22,0.0,0.0,47,0.00,,---,0.00,VWS V14.01,2013-03-31 02:09:00,
2013-03-30 22:10:00,53.2,34.1,29.79,NNE,22,0.0,0.0,48,0.00,,---,0.00,VWS V14.01,2013-03-31 02:10:00,
2013-03-30 22:11:00,53.2,34.1,29.79,NNE,22,0.0,0.0,48,0.00,,---,0.00,VWS V14.01,2013-03-31 02:11:00,
2013-03-30 22:12:00,53.4,34.2,29.76,NNE,22,0.0,0.0,48,0.00,,---,0.00,VWS V14.01,2013-03-31 02:12:00,
2013-03-30 22:13:00,53.1,33.9,29.79,NNE,22,0.0,0.0,48,0.00,,---,0.00,VWS V14.01,2013-03-31 02:13:00,
2013-03-30 22:14:00,53.2,34.6,29.76,NNE,22,0.0,0.0,49,0.00,,---,0.00,VWS V14.01,2013-03-31 02:14:00,
2013-03-30 22:15:00,53.2,34.6,29.79,NNE,22,0.0,0.0,49,0.00,,---,0.00,VWS V14.01,2013-03-31 02:15:00,
2013-03-30 22:16:00,53.1,33.9,29.79,NNE,22,0.0,0.0,48,0.00,,---,0.00,VWS V14.01,2013-03-31 02:16:00,
2013-03-30 22:17:00,53.1,33.9,29.79,NNE,22,0.0,0.0,48,0.00,,---,0.00,VWS V14.01,2013-03-31 02:17:00,
2013-03-30 22:18:00,53.2,34.1,29.80,NNE,22,0.0,0.0,48,0.00,,---,0.00,VWS V14.01,2013-03-31 02:18:00,
2013-03-30 22:19:00,53.1,33.9,29.79,NNE,22,0.0,0.0,48,0.00,,---,0.00,VWS V14.01,2013-03-31 02:19:00,
2013-03-30 22:20:00,53.1,34.4,29.79,NNE,22,0.0,0.0,49,0.00,,---,0.00,VWS V14.01,2013-03-31 02:20:00,
2013-03-30 22:21:00,53.1,33.9,29.79,NNE,22,0.0,0.0,48,0.00,,---,0.00,VWS V14.01,2013-03-31 02:21:00,
2013-03-30 22:22:00,53.1,33.9,29.79,NNE,22,0.0,0.0,48,0.00,,---,0.00,VWS V14.01,2013-03-31 02:22:00,
2013-03-30 22:23:00,53.1,33.9,29.79,NNE,22,0.0,0.0,48,0.00,,---,0.00,VWS V14.01,2013-03-31 02:23:00,
2013-03-30 22:24:00,53.1,33.9,29.79,NNE,22,0.0,0.0,48,0.00,,---,0.00,VWS V14.01,2013-03-31 02:24:00,
2013-03-30 22:25:00,53.1,33.9,29.79,NNE,22,0.0,0.0,48,0.00,,---,0.00,VWS V14.01,2013-03-31 02:25:00,
2013-03-30 22:26:00,53.1,33.9,29.76,NNE,22,0.0,0.0,48,0.00,,---,0.00,VWS V14.01,2013-03-31 02:26:00,
2013-03-30 22:27:00,53.1,33.9,29.76,NNE,22,0.0,0.0,48,0.00,,---,0.00,VWS V14.01,2013-03-31 02:27:00,
2013-03-30 22:28:00,53.1,33.9,29.76,NNE,22,0.0,0.0,48,0.00,,---,0.00,VWS V14.01,2013-03-31 02:28:00,
2013-03-30 22:29:00,53.1,33.9,29.79,NNE,22,0.0,0.0,48,0.00,,---,0.00,VWS V14.01,2013-03-31 02:29:00,
2013-03-30 22:30:00,53.1,33.9,29.76,NNE,22,0.0,0.0,48,0.00,,---,0.00,VWS V14.01,2013-03-31 02:30:00,
2013-03-30 22:31:00,53.1,33.9,29.76,NNE,22,0.0,0.0,48,0.00,,---,0.00,VWS V14.01,2013-03-31 02:31:00,
2013-03-30 22:32:00,53.1,33.9,29.76,NNE,22,0.0,0.0,48,0.00,,---,0.00,VWS V14.01,2013-03-31 02:32:00,
2013-03-30 22:33:00,52.9,33.7,29.76,NNE,22,0.0,0.0,48,0.00,,---,0.00,VWS V14.01,2013-03-31 02:33:00,
2013-03-30 22:34:00,52.9,33.7,29.76,NNE,22,0.0,0.0,48,0.00,,---,0.00,VWS V14.01,2013-03-31 02:34:00,
2013-03-30 22:35:00,53.1,33.9,29.76,NNE,22,0.0,0.0,48,0.00,,---,0.00,VWS V14.01,2013-03-31 02:35:00,
2013-03-30 22:36:00,52.9,34.3,29.76,NNE,22,0.0,0.0,49,0.00,,---,0.00,VWS V14.01,2013-03-31 02:36:00,
2013-03-30 22:37:00,52.9,33.7,29.76,NNE,22,0.0,0.0,48,0.00,,---,0.00,VWS V14.01,2013-03-31 02:37:00,
2013-03-30 22:39:00,52.7,33.6,29.76,NNE,22,0.0,0.0,48,0.00,,---,0.00,VWS V14.01,2013-03-31 02:39:00,
2013-03-30 22:40:00,52.9,33.7,29.76,NNE,22,0.0,0.0,48,0.00,,---,0.00,VWS V14.01,2013-03-31 02:40:00,
2013-03-30 22:41:00,52.7,33.6,29.76,NNE,22,0.0,0.0,48,0.00,,---,0.00,VWS V14.01,2013-03-31 02:41:00,
2013-03-30 22:42:00,52.9,34.3,29.76,NNE,22,0.0,0.0,49,0.00,,---,0.00,VWS V14.01,2013-03-31 02:42:00,
2013-03-30 22:43:00,52.9,34.3,29.76,NNE,22,0.0,0.0,49,0.00,,---,0.00,VWS V14.01,2013-03-31 02:43:00,
2013-03-30 22:44:00,52.7,34.1,29.76,NNE,22,0.0,0.0,49,0.00,,---,0.00,VWS V14.01,2013-03-31 02:44:00,
2013-03-30 22:45:00,52.7,33.6,29.76,NNE,22,0.0,0.0,48,0.00,,---,0.00,VWS V14.01,2013-03-31 02:45:00,
2013-03-30 22:46:00,52.7,33.6,29.76,NNE,22,0.0,0.0,48,0.00,,---,0.00,VWS V14.01,2013-03-31 02:46:00,
2013-03-30 22:47:00,52.5,33.9,29.76,NNE,22,0.0,0.0,49,0.00,,---,0.00,VWS V14.01,2013-03-31 02:47:00,
2013-03-30 22:48:00,52.7,34.1,29.76,NNE,22,0.0,0.0,49,0.00,,---,0.00,VWS V14.01,2013-03-31 02:48:00,
2013-03-30 22:49:00,52.5,33.9,29.76,NNE,22,0.0,0.0,49,0.00,,---,0.00,VWS V14.01,2013-03-31 02:49:00,
2013-03-30 22:50:00,52.7,34.1,29.76,NNE,22,0.0,0.0,49,0.00,,---,0.00,VWS V14.01,2013-03-31 02:50:00,
2013-03-30 22:51:00,52.5,33.9,29.76,NNE,22,0.0,0.0,49,0.00,,---,0.00,VWS V14.01,2013-03-31 02:51:00,
2013-03-30 22:52:00,52.7,34.1,29.76,NNE,22,0.0,0.0,49,0.00,,---,0.00,VWS V14.01,2013-03-31 02:52:00,
2013-03-30 22:53:00,52.5,33.9,29.76,NNE,22,0.0,0.0,49,0.00,,---,0.00,VWS V14.01,2013-03-31 02:53:00,
2013-03-30 22:54:00,52.3,34.3,29.74,NNE,22,0.0,0.0,50,0.00,,---,0.00,VWS V14.01,2013-03-31 02:54:00,
2013-03-30 22:55:00,52.3,33.8,29.74,NNE,22,0.0,0.0,49,0.00,,---,0.00,VWS V14.01,2013-03-31 02:55:00,
2013-03-30 22:56:00,52.3,33.8,29.74,NNE,22,0.0,0.0,49,0.00,,---,0.00,VWS V14.01,2013-03-31 02:56:00,
2013-03-30 22:57:00,52.5,33.9,29.76,NNE,22,0.0,0.0,49,0.00,,---,0.00,VWS V14.01,2013-03-31 02:57:00,
2013-03-30 22:58:00,52.3,33.8,29.76,NNE,22,0.0,0.0,49,0.00,,---,0.00,VWS V14.01,2013-03-31 02:58:00,
2013-03-30 22:59:00,52.3,34.3,29.76,NNE,22,0.0,0.0,50,0.00,,---,0.00,VWS V14.01,2013-03-31 02:59:00,
2013-03-30 23:00:00,52.3,33.8,29.74,NNE,22,0.0,0.0,49,0.00,,---,0.00,VWS V14.01,2013-03-31 03:00:00,
2013-03-30 23:01:00,52.3,34.3,29.74,NNE,22,0.0,0.0,50,0.00,,---,0.00,VWS V14.01,2013-03-31 03:01:00,
2013-03-30 23:02:00,52.3,33.8,29.74,NNE,22,0.0,0.0,49,0.00,,---,0.00,VWS V14.01,2013-03-31 03:02:00,
2013-03-30 23:03:00,52.3,33.8,29.74,NNE,22,0.0,0.0,49,0.00,,---,0.00,VWS V14.01,2013-03-31 03:03:00,
2013-03-30 23:04:00,52.3,33.8,29.74,NNE,22,0.0,0.0,49,0.00,,---,0.00,VWS V14.01,2013-03-31 03:04:00,
2013-03-30 23:05:00,52.3,33.8,29.74,NNE,22,0.0,0.0,49,0.00,,---,0.00,VWS V14.01,2013-03-31 03:05:00,
2013-03-30 23:06:00,52.3,33.8,29.74,NNE,22,0.0,0.0,49,0.00,,---,0.00,VWS V14.01,2013-03-31 03:06:00,
2013-03-30 23:07:00,52.3,33.8,29.74,NNE,22,0.0,0.0,49,0.00,,---,0.00,VWS V14.01,2013-03-31 03:07:00,
2013-03-30 23:08:00,52.3,33.8,29.74,NNE,22,0.0,0.0,49,0.00,,---,0.00,VWS V14.01,2013-03-31 03:08:00,
2013-03-30 23:09:00,52.3,33.8,29.74,NNE,22,0.0,0.0,49,0.00,,---,0.00,VWS V14.01,2013-03-31 03:09:00,
2013-03-30 23:10:00,52.3,33.8,29.74,NNE,22,0.0,0.0,49,0.00,,---,0.00,VWS V14.01,2013-03-31 03:10:00,
2013-03-30 23:11:00,52.3,33.8,29.76,NNE,22,0.0,0.0,49,0.00,,---,0.00,VWS V14.01,2013-03-31 03:11:00,
2013-03-30 23:12:00,52.2,34.1,29.76,NNE,22,0.0,0.0,50,0.00,,---,0.00,VWS V14.01,2013-03-31 03:12:00,
2013-03-30 23:13:00,52.3,33.8,29.74,NNE,22,0.0,0.0,49,0.00,,---,0.00,VWS V14.01,2013-03-31 03:13:00,
2013-03-30 23:14:00,52.2,34.1,29.76,NNE,22,0.0,0.0,50,0.00,,---,0.00,VWS V14.01,2013-03-31 03:14:00,
2013-03-30 23:15:00,52.3,33.8,29.76,NNE,22,0.0,0.0,49,0.00,,---,0.00,VWS V14.01,2013-03-31 03:15:00,
2013-03-30 23:16:00,52.2,35.6,29.76,NNE,22,0.0,0.0,53,0.00,,---,0.00,VWS V14.01,2013-03-31 03:16:00,
2013-03-30 23:17:00,52.2,37.4,29.76,NNE,22,0.0,0.0,57,0.00,,---,0.00,VWS V14.01,2013-03-31 03:17:00,
2013-03-30 23:18:00,52.2,34.1,29.76,NNE,22,0.0,0.0,50,0.00,,---,0.00,VWS V14.01,2013-03-31 03:18:00,
2013-03-30 23:19:00,52.0,35.9,29.76,NNE,22,0.0,0.0,54,0.00,,---,0.00,VWS V14.01,2013-03-31 03:19:00,
2013-03-30 23:20:00,52.2,34.1,29.76,NNE,22,0.0,0.0,50,0.00,,---,0.00,VWS V14.01,2013-03-31 03:20:00,
2013-03-30 23:21:00,52.2,34.1,29.76,NNE,22,0.0,0.0,50,0.00,,---,0.00,VWS V14.01,2013-03-31 03:21:00,
2013-03-30 23:22:00,52.2,35.6,29.76,NNE,22,0.0,0.0,53,0.00,,---,0.00,VWS V14.01,2013-03-31 03:22:00,
2013-03-30 23:23:00,52.2,37.4,29.76,NNE,22,0.0,0.0,57,0.00,,---,0.00,VWS V14.01,2013-03-31 03:23:00,
2013-03-30 23:24:00,51.6,36.5,29.76,NNW,338,0.0,0.0,56,0.00,,---,0.00,VWS V14.01,2013-03-31 03:24:00,
2013-03-30 23:25:00,51.6,36.9,29.76,NNW,338,0.0,0.0,57,0.00,,---,0.00,VWS V14.01,2013-03-31 03:25:00,
2013-03-30 23:26:00,51.6,36.9,29.76,NNW,338,0.0,0.0,57,0.00,,---,0.00,VWS V14.01,2013-03-31 03:26:00,
2013-03-30 23:27:00,52.0,36.3,29.76,NNE,22,0.0,0.0,55,0.00,,---,0.00,VWS V14.01,2013-03-31 03:27:00,
2013-03-30 23:29:00,51.6,36.9,29.76,NNE,22,0.0,1.6,57,0.00,,---,0.00,VWS V14.01,2013-03-31 03:29:00,
2013-03-30 23:30:00,51.6,36.5,29.76,NNW,338,0.0,0.0,56,0.00,,---,0.00,VWS V14.01,2013-03-31 03:30:00,
2013-03-30 23:31:00,51.4,37.2,29.76,North,0,0.0,0.0,58,0.00,,---,0.00,VWS V14.01,2013-03-31 03:31:00,
2013-03-30 23:32:00,51.6,36.9,29.76,NNW,338,0.0,0.0,57,0.00,,---,0.00,VWS V14.01,2013-03-31 03:32:00,
2013-03-30 23:33:00,51.6,37.8,29.76,NNW,338,0.0,0.0,59,0.00,,---,0.00,VWS V14.01,2013-03-31 03:33:00,
2013-03-30 23:34:00,51.4,38.5,29.76,NNW,338,0.0,0.0,61,0.00,,---,0.00,VWS V14.01,2013-03-31 03:34:00,
2013-03-30 23:35:00,51.6,36.9,29.76,NNE,22,0.0,1.6,57,0.00,,---,0.00,VWS V14.01,2013-03-31 03:35:00,
2013-03-30 23:36:00,51.6,37.3,29.76,NNE,22,0.0,1.6,58,0.00,,---,0.00,VWS V14.01,2013-03-31 03:36:00,
2013-03-30 23:37:00,51.3,37.4,29.76,NE,45,0.0,0.0,59,0.00,,---,0.00,VWS V14.01,2013-03-31 03:37:00,
2013-03-30 23:38:00,51.4,37.6,29.76,North,0,0.0,0.0,59,0.00,,---,0.00,VWS V14.01,2013-03-31 03:38:00,
2013-03-30 23:39:00,51.3,37.4,29.76,ESE,112,0.0,2.0,59,0.00,,---,0.00,VWS V14.01,2013-03-31 03:39:00,
2013-03-30 23:40:00,51.4,38.5,29.76,NNW,338,0.0,0.0,61,0.00,,---,0.00,VWS V14.01,2013-03-31 03:40:00,
2013-03-30 23:41:00,51.3,37.4,29.76,NNW,338,0.0,0.0,59,0.00,,---,0.00,VWS V14.01,2013-03-31 03:41:00,
2013-03-30 23:42:00,51.1,36.8,29.76,NW,315,0.0,0.0,58,0.00,,---,0.00,VWS V14.01,2013-03-31 03:42:00,
2013-03-30 23:43:00,51.3,37.4,29.76,NE,45,0.0,0.0,59,0.00,,---,0.00,VWS V14.01,2013-03-31 03:43:00,
2013-03-30 23:44:00,51.1,37.3,29.76,NW,315,0.0,0.0,59,0.00,,---,0.00,VWS V14.01,2013-03-31 03:44:00,
2013-03-30 23:45:00,51.3,37.4,29.76,ESE,112,0.0,2.0,59,0.00,,---,0.00,VWS V14.01,2013-03-31 03:45:00,
2013-03-30 23:46:00,50.9,36.2,29.76,NW,315,0.0,0.0,57,0.00,,---,0.00,VWS V14.01,2013-03-31 03:46:00,
2013-03-30 23:47:00,50.9,36.2,29.76,NW,315,0.0,0.0,57,0.00,,---,0.00,VWS V14.01,2013-03-31 03:47:00,
2013-03-30 23:48:00,51.1,36.8,29.76,NW,315,0.0,0.0,58,0.00,,---,0.00,VWS V14.01,2013-03-31 03:48:00,
2013-03-30 23:49:00,51.1,37.3,29.76,NW,315,0.0,0.0,59,0.00,,---,0.00,VWS V14.01,2013-03-31 03:49:00,
2013-03-30 23:50:00,50.9,36.2,29.76,NW,315,0.0,0.0,57,0.00,,---,0.00,VWS V14.01,2013-03-31 03:50:00,
2013-03-30 23:51:00,50.9,36.2,29.76,NE,45,0.0,0.0,57,0.00,,---,0.00,VWS V14.01,2013-03-31 03:51:00,
2013-03-30 23:52:00,50.9,36.7,29.76,NE,45,0.0,0.0,58,0.00,,---,0.00,VWS V14.01,2013-03-31 03:52:00,
2013-03-30 23:53:00,50.9,36.2,29.76,NW,315,0.0,0.0,57,0.00,,---,0.00,VWS V14.01,2013-03-31 03:53:00,
2013-03-30 23:54:00,50.9,36.2,29.76,NW,315,0.0,0.0,57,0.00,,---,0.00,VWS V14.01,2013-03-31 03:54:00,
2013-03-30 23:55:00,50.9,36.2,29.76,NW,315,0.0,0.0,57,0.00,,---,0.00,VWS V14.01,2013-03-31 03:55:00,
2013-03-30 23:56:00,50.7,36.1,29.76,NE,45,0.0,0.0,57,0.00,,---,0.00,VWS V14.01,2013-03-31 03:56:00,
2013-03-30 23:57:00,50.7,36.1,29.76,NE,45,0.0,0.0,57,0.00,,---,0.00,VWS V14.01,2013-03-31 03:57:00,
2013-03-30 23:58:00,50.9,36.7,29.76,NE,45,0.0,0.0,58,0.00,,---,0.00,VWS V14.01,2013-03-31 03:58:00,
2013-03-30 23:59:00,50.7,36.1,29.76,NE,45,0.0,0.0,57,0.00,,---,0.00,VWS V14.01,2013-03-31 03:59:00,